<?xml version="1.0" encoding="UTF-8" standalone="no" ?>
<gpx xmlns="http://www.topografix.com/GPX/1/1" xmlns:xsi="http://www.w3.org/2001/XMLSchema-instance" xsi:schemaLocation="http://www.topografix.com/GPX/1/1 http://www.topografix.com/GPX/1/1/gpx.xsd" version="1.1" creator="VisuGPX - https://www.visugpx.com">
  <metadata>
    <name>St Fériol-le Pech-Bitrague  30km</name>
  </metadata>
  <trk>
    <name><![CDATA[St Feriol - le Pech - Bitrague ]]></name>
    <trkseg>
      <trkpt lat="42.87012" lon="2.18409">
        <ele>288</ele>
        <time>2025-10-18T09:23:43.000Z</time>
      </trkpt>
      <trkpt lat="42.87012" lon="2.18409">
        <ele>288</ele>
        <time>2025-10-18T09:23:44.000Z</time>
      </trkpt>
      <trkpt lat="42.87013" lon="2.18403">
        <ele>288</ele>
        <time>2025-10-18T09:24:26.000Z</time>
      </trkpt>
      <trkpt lat="42.87012" lon="2.18395">
        <ele>288</ele>
        <time>2025-10-18T09:24:28.000Z</time>
      </trkpt>
      <trkpt lat="42.87005" lon="2.18373">
        <ele>288.39999389648</ele>
        <time>2025-10-18T09:24:34.000Z</time>
      </trkpt>
      <trkpt lat="42.86998" lon="2.18347">
        <ele>289.20001220703</ele>
        <time>2025-10-18T09:24:41.000Z</time>
      </trkpt>
      <trkpt lat="42.87002" lon="2.18339">
        <ele>289</ele>
        <time>2025-10-18T09:24:44.000Z</time>
      </trkpt>
      <trkpt lat="42.87004" lon="2.18338">
        <ele>289</ele>
        <time>2025-10-18T09:24:45.000Z</time>
      </trkpt>
      <trkpt lat="42.87019" lon="2.18336">
        <ele>289</ele>
        <time>2025-10-18T09:24:49.000Z</time>
      </trkpt>
      <trkpt lat="42.87048" lon="2.18333">
        <ele>290</ele>
        <time>2025-10-18T09:24:55.000Z</time>
      </trkpt>
      <trkpt lat="42.87079" lon="2.18329">
        <ele>289.79998779297</ele>
        <time>2025-10-18T09:25:01.000Z</time>
      </trkpt>
      <trkpt lat="42.8711" lon="2.18323">
        <ele>290</ele>
        <time>2025-10-18T09:25:07.000Z</time>
      </trkpt>
      <trkpt lat="42.87146" lon="2.18316">
        <ele>290.79998779297</ele>
        <time>2025-10-18T09:25:14.000Z</time>
      </trkpt>
      <trkpt lat="42.87176" lon="2.18311">
        <ele>291</ele>
        <time>2025-10-18T09:25:20.000Z</time>
      </trkpt>
      <trkpt lat="42.87208" lon="2.18304">
        <ele>289.79998779297</ele>
        <time>2025-10-18T09:25:26.000Z</time>
      </trkpt>
      <trkpt lat="42.87247" lon="2.18297">
        <ele>289</ele>
        <time>2025-10-18T09:25:34.000Z</time>
      </trkpt>
      <trkpt lat="42.87269" lon="2.18293">
        <ele>289.39999389648</ele>
        <time>2025-10-18T09:25:39.000Z</time>
      </trkpt>
      <trkpt lat="42.87285" lon="2.18292">
        <ele>290.20001220703</ele>
        <time>2025-10-18T09:25:43.000Z</time>
      </trkpt>
      <trkpt lat="42.87291" lon="2.18301">
        <ele>289.60000610352</ele>
        <time>2025-10-18T09:25:45.000Z</time>
      </trkpt>
      <trkpt lat="42.87293" lon="2.18309">
        <ele>289.20001220703</ele>
        <time>2025-10-18T09:25:46.000Z</time>
      </trkpt>
      <trkpt lat="42.87301" lon="2.18325">
        <ele>288</ele>
        <time>2025-10-18T09:25:48.000Z</time>
      </trkpt>
      <trkpt lat="42.87311" lon="2.18335">
        <ele>288</ele>
        <time>2025-10-18T09:25:50.000Z</time>
      </trkpt>
      <trkpt lat="42.87321" lon="2.18344">
        <ele>288</ele>
        <time>2025-10-18T09:25:52.000Z</time>
      </trkpt>
      <trkpt lat="42.87332" lon="2.18346">
        <ele>288</ele>
        <time>2025-10-18T09:25:54.000Z</time>
      </trkpt>
      <trkpt lat="42.87349" lon="2.18342">
        <ele>288.20001220703</ele>
        <time>2025-10-18T09:25:58.000Z</time>
      </trkpt>
      <trkpt lat="42.87353" lon="2.1835">
        <ele>288.39999389648</ele>
        <time>2025-10-18T09:26:00.000Z</time>
      </trkpt>
      <trkpt lat="42.87354" lon="2.18355">
        <ele>288.39999389648</ele>
        <time>2025-10-18T09:26:01.000Z</time>
      </trkpt>
      <trkpt lat="42.87356" lon="2.18361">
        <ele>288.39999389648</ele>
        <time>2025-10-18T09:26:02.000Z</time>
      </trkpt>
      <trkpt lat="42.87359" lon="2.18374">
        <ele>288.60000610352</ele>
        <time>2025-10-18T09:26:04.000Z</time>
      </trkpt>
      <trkpt lat="42.87361" lon="2.18387">
        <ele>288.60000610352</ele>
        <time>2025-10-18T09:26:06.000Z</time>
      </trkpt>
      <trkpt lat="42.87361" lon="2.18401">
        <ele>288.79998779297</ele>
        <time>2025-10-18T09:26:08.000Z</time>
      </trkpt>
      <trkpt lat="42.87359" lon="2.18407">
        <ele>289</ele>
        <time>2025-10-18T09:26:09.000Z</time>
      </trkpt>
      <trkpt lat="42.87355" lon="2.18411">
        <ele>289.20001220703</ele>
        <time>2025-10-18T09:26:10.000Z</time>
      </trkpt>
      <trkpt lat="42.87343" lon="2.18425">
        <ele>289.60000610352</ele>
        <time>2025-10-18T09:26:13.000Z</time>
      </trkpt>
      <trkpt lat="42.87327" lon="2.18442">
        <ele>289.39999389648</ele>
        <time>2025-10-18T09:26:17.000Z</time>
      </trkpt>
      <trkpt lat="42.87313" lon="2.18454">
        <ele>288.79998779297</ele>
        <time>2025-10-18T09:26:20.000Z</time>
      </trkpt>
      <trkpt lat="42.87278" lon="2.18485">
        <ele>286.60000610352</ele>
        <time>2025-10-18T09:26:28.000Z</time>
      </trkpt>
      <trkpt lat="42.87273" lon="2.18489">
        <ele>286.39999389648</ele>
        <time>2025-10-18T09:26:29.000Z</time>
      </trkpt>
      <trkpt lat="42.87268" lon="2.18503">
        <ele>286.60000610352</ele>
        <time>2025-10-18T09:26:31.000Z</time>
      </trkpt>
      <trkpt lat="42.87267" lon="2.18534">
        <ele>287.20001220703</ele>
        <time>2025-10-18T09:26:35.000Z</time>
      </trkpt>
      <trkpt lat="42.87269" lon="2.18562">
        <ele>287.60000610352</ele>
        <time>2025-10-18T09:26:39.000Z</time>
      </trkpt>
      <trkpt lat="42.87276" lon="2.18571">
        <ele>287.79998779297</ele>
        <time>2025-10-18T09:26:41.000Z</time>
      </trkpt>
      <trkpt lat="42.8728" lon="2.18572">
        <ele>288</ele>
        <time>2025-10-18T09:26:42.000Z</time>
      </trkpt>
      <trkpt lat="42.87294" lon="2.18575">
        <ele>288.20001220703</ele>
        <time>2025-10-18T09:26:45.000Z</time>
      </trkpt>
      <trkpt lat="42.87308" lon="2.18582">
        <ele>288.79998779297</ele>
        <time>2025-10-18T09:26:48.000Z</time>
      </trkpt>
      <trkpt lat="42.87341" lon="2.186">
        <ele>289</ele>
        <time>2025-10-18T09:26:55.000Z</time>
      </trkpt>
      <trkpt lat="42.8738" lon="2.18622">
        <ele>290.39999389648</ele>
        <time>2025-10-18T09:27:03.000Z</time>
      </trkpt>
      <trkpt lat="42.87401" lon="2.18631">
        <ele>292.39999389648</ele>
        <time>2025-10-18T09:27:07.000Z</time>
      </trkpt>
      <trkpt lat="42.87406" lon="2.18632">
        <ele>293</ele>
        <time>2025-10-18T09:27:08.000Z</time>
      </trkpt>
      <trkpt lat="42.87434" lon="2.18632">
        <ele>295.79998779297</ele>
        <time>2025-10-18T09:27:13.000Z</time>
      </trkpt>
      <trkpt lat="42.8744" lon="2.1863">
        <ele>295.79998779297</ele>
        <time>2025-10-18T09:27:14.000Z</time>
      </trkpt>
      <trkpt lat="42.87467" lon="2.18616">
        <ele>295.20001220703</ele>
        <time>2025-10-18T09:27:20.000Z</time>
      </trkpt>
      <trkpt lat="42.87472" lon="2.18615">
        <ele>295.39999389648</ele>
        <time>2025-10-18T09:27:21.000Z</time>
      </trkpt>
      <trkpt lat="42.87483" lon="2.1862">
        <ele>296.79998779297</ele>
        <time>2025-10-18T09:27:23.000Z</time>
      </trkpt>
      <trkpt lat="42.87522" lon="2.18649">
        <ele>299.60000610352</ele>
        <time>2025-10-18T09:27:31.000Z</time>
      </trkpt>
      <trkpt lat="42.87573" lon="2.18683">
        <ele>291.60000610352</ele>
        <time>2025-10-18T09:27:41.000Z</time>
      </trkpt>
      <trkpt lat="42.87612" lon="2.18709">
        <ele>291.60000610352</ele>
        <time>2025-10-18T09:27:48.000Z</time>
      </trkpt>
      <trkpt lat="42.87647" lon="2.1873">
        <ele>292.79998779297</ele>
        <time>2025-10-18T09:27:54.000Z</time>
      </trkpt>
      <trkpt lat="42.87698" lon="2.18762">
        <ele>294.20001220703</ele>
        <time>2025-10-18T09:28:03.000Z</time>
      </trkpt>
      <trkpt lat="42.87732" lon="2.18782">
        <ele>295.39999389648</ele>
        <time>2025-10-18T09:28:09.000Z</time>
      </trkpt>
      <trkpt lat="42.87778" lon="2.1881">
        <ele>291.20001220703</ele>
        <time>2025-10-18T09:28:17.000Z</time>
      </trkpt>
      <trkpt lat="42.87821" lon="2.18839">
        <ele>286.79998779297</ele>
        <time>2025-10-18T09:28:24.000Z</time>
      </trkpt>
      <trkpt lat="42.87869" lon="2.18868">
        <ele>287.20001220703</ele>
        <time>2025-10-18T09:28:31.000Z</time>
      </trkpt>
      <trkpt lat="42.87921" lon="2.18901">
        <ele>286</ele>
        <time>2025-10-18T09:28:38.000Z</time>
      </trkpt>
      <trkpt lat="42.87929" lon="2.18906">
        <ele>285.79998779297</ele>
        <time>2025-10-18T09:28:39.000Z</time>
      </trkpt>
      <trkpt lat="42.87978" lon="2.18937">
        <ele>286.20001220703</ele>
        <time>2025-10-18T09:28:46.000Z</time>
      </trkpt>
      <trkpt lat="42.87985" lon="2.18941">
        <ele>286.20001220703</ele>
        <time>2025-10-18T09:28:47.000Z</time>
      </trkpt>
      <trkpt lat="42.88037" lon="2.18976">
        <ele>285</ele>
        <time>2025-10-18T09:28:55.000Z</time>
      </trkpt>
      <trkpt lat="42.88044" lon="2.1898">
        <ele>285</ele>
        <time>2025-10-18T09:28:56.000Z</time>
      </trkpt>
      <trkpt lat="42.88099" lon="2.19012">
        <ele>289.39999389648</ele>
        <time>2025-10-18T09:29:04.000Z</time>
      </trkpt>
      <trkpt lat="42.88106" lon="2.19016">
        <ele>289.79998779297</ele>
        <time>2025-10-18T09:29:05.000Z</time>
      </trkpt>
      <trkpt lat="42.88117" lon="2.19024">
        <ele>291.20001220703</ele>
        <time>2025-10-18T09:29:07.000Z</time>
      </trkpt>
      <trkpt lat="42.88127" lon="2.19031">
        <ele>292.60000610352</ele>
        <time>2025-10-18T09:29:09.000Z</time>
      </trkpt>
      <trkpt lat="42.8816" lon="2.19049">
        <ele>293</ele>
        <time>2025-10-18T09:29:15.000Z</time>
      </trkpt>
      <trkpt lat="42.88178" lon="2.19055">
        <ele>291.79998779297</ele>
        <time>2025-10-18T09:29:18.000Z</time>
      </trkpt>
      <trkpt lat="42.8819" lon="2.19055">
        <ele>293</ele>
        <time>2025-10-18T09:29:20.000Z</time>
      </trkpt>
      <trkpt lat="42.88215" lon="2.19052">
        <ele>292.60000610352</ele>
        <time>2025-10-18T09:29:24.000Z</time>
      </trkpt>
      <trkpt lat="42.88221" lon="2.19053">
        <ele>293.20001220703</ele>
        <time>2025-10-18T09:29:25.000Z</time>
      </trkpt>
      <trkpt lat="42.88252" lon="2.19051">
        <ele>294.79998779297</ele>
        <time>2025-10-18T09:29:30.000Z</time>
      </trkpt>
      <trkpt lat="42.88285" lon="2.19047">
        <ele>293.20001220703</ele>
        <time>2025-10-18T09:29:35.000Z</time>
      </trkpt>
      <trkpt lat="42.88323" lon="2.19044">
        <ele>288.60000610352</ele>
        <time>2025-10-18T09:29:41.000Z</time>
      </trkpt>
      <trkpt lat="42.88361" lon="2.19044">
        <ele>286.39999389648</ele>
        <time>2025-10-18T09:29:47.000Z</time>
      </trkpt>
      <trkpt lat="42.88404" lon="2.19049">
        <ele>281.79998779297</ele>
        <time>2025-10-18T09:29:54.000Z</time>
      </trkpt>
      <trkpt lat="42.88409" lon="2.19051">
        <ele>281.20001220703</ele>
        <time>2025-10-18T09:29:55.000Z</time>
      </trkpt>
      <trkpt lat="42.88432" lon="2.19064">
        <ele>279.60000610352</ele>
        <time>2025-10-18T09:29:59.000Z</time>
      </trkpt>
      <trkpt lat="42.88447" lon="2.19075">
        <ele>278.60000610352</ele>
        <time>2025-10-18T09:30:02.000Z</time>
      </trkpt>
      <trkpt lat="42.88454" lon="2.19086">
        <ele>278</ele>
        <time>2025-10-18T09:30:04.000Z</time>
      </trkpt>
      <trkpt lat="42.88457" lon="2.19111">
        <ele>278.20001220703</ele>
        <time>2025-10-18T09:30:07.000Z</time>
      </trkpt>
      <trkpt lat="42.88466" lon="2.19171">
        <ele>279.39999389648</ele>
        <time>2025-10-18T09:30:14.000Z</time>
      </trkpt>
      <trkpt lat="42.88478" lon="2.19219">
        <ele>280.79998779297</ele>
        <time>2025-10-18T09:30:20.000Z</time>
      </trkpt>
      <trkpt lat="42.8849" lon="2.19263">
        <ele>282.79998779297</ele>
        <time>2025-10-18T09:30:26.000Z</time>
      </trkpt>
      <trkpt lat="42.88499" lon="2.19302">
        <ele>285.20001220703</ele>
        <time>2025-10-18T09:30:32.000Z</time>
      </trkpt>
      <trkpt lat="42.88512" lon="2.19352">
        <ele>285.79998779297</ele>
        <time>2025-10-18T09:30:40.000Z</time>
      </trkpt>
      <trkpt lat="42.88522" lon="2.19387">
        <ele>285.60000610352</ele>
        <time>2025-10-18T09:30:47.000Z</time>
      </trkpt>
      <trkpt lat="42.88524" lon="2.19392">
        <ele>285.60000610352</ele>
        <time>2025-10-18T09:30:48.000Z</time>
      </trkpt>
      <trkpt lat="42.8853" lon="2.19414">
        <ele>286.20001220703</ele>
        <time>2025-10-18T09:30:52.000Z</time>
      </trkpt>
      <trkpt lat="42.88541" lon="2.19454">
        <ele>286.60000610352</ele>
        <time>2025-10-18T09:30:59.000Z</time>
      </trkpt>
      <trkpt lat="42.88546" lon="2.19469">
        <ele>287.20001220703</ele>
        <time>2025-10-18T09:31:02.000Z</time>
      </trkpt>
      <trkpt lat="42.88553" lon="2.19477">
        <ele>288</ele>
        <time>2025-10-18T09:31:04.000Z</time>
      </trkpt>
      <trkpt lat="42.8857" lon="2.19486">
        <ele>288.79998779297</ele>
        <time>2025-10-18T09:31:08.000Z</time>
      </trkpt>
      <trkpt lat="42.88589" lon="2.19488">
        <ele>290.20001220703</ele>
        <time>2025-10-18T09:31:12.000Z</time>
      </trkpt>
      <trkpt lat="42.88593" lon="2.19489">
        <ele>290.60000610352</ele>
        <time>2025-10-18T09:31:13.000Z</time>
      </trkpt>
      <trkpt lat="42.88612" lon="2.19497">
        <ele>293.20001220703</ele>
        <time>2025-10-18T09:31:18.000Z</time>
      </trkpt>
      <trkpt lat="42.88634" lon="2.19501">
        <ele>295</ele>
        <time>2025-10-18T09:31:23.000Z</time>
      </trkpt>
      <trkpt lat="42.88639" lon="2.19501">
        <ele>295</ele>
        <time>2025-10-18T09:31:24.000Z</time>
      </trkpt>
      <trkpt lat="42.88662" lon="2.195">
        <ele>295.60000610352</ele>
        <time>2025-10-18T09:31:29.000Z</time>
      </trkpt>
      <trkpt lat="42.88678" lon="2.19499">
        <ele>295.79998779297</ele>
        <time>2025-10-18T09:31:34.000Z</time>
      </trkpt>
      <trkpt lat="42.88693" lon="2.19492">
        <ele>295.60000610352</ele>
        <time>2025-10-18T09:31:40.000Z</time>
      </trkpt>
      <trkpt lat="42.88709" lon="2.19485">
        <ele>294.79998779297</ele>
        <time>2025-10-18T09:31:45.000Z</time>
      </trkpt>
      <trkpt lat="42.88736" lon="2.19485">
        <ele>297.20001220703</ele>
        <time>2025-10-18T09:31:53.000Z</time>
      </trkpt>
      <trkpt lat="42.88746" lon="2.19493">
        <ele>300.20001220703</ele>
        <time>2025-10-18T09:31:57.000Z</time>
      </trkpt>
      <trkpt lat="42.88755" lon="2.1951">
        <ele>302.60000610352</ele>
        <time>2025-10-18T09:32:03.000Z</time>
      </trkpt>
      <trkpt lat="42.88766" lon="2.19536">
        <ele>303.20001220703</ele>
        <time>2025-10-18T09:32:08.000Z</time>
      </trkpt>
      <trkpt lat="42.88774" lon="2.19559">
        <ele>301.79998779297</ele>
        <time>2025-10-18T09:32:11.000Z</time>
      </trkpt>
      <trkpt lat="42.88775" lon="2.19568">
        <ele>301.20001220703</ele>
        <time>2025-10-18T09:32:12.000Z</time>
      </trkpt>
      <trkpt lat="42.88776" lon="2.19577">
        <ele>300.79998779297</ele>
        <time>2025-10-18T09:32:13.000Z</time>
      </trkpt>
      <trkpt lat="42.88779" lon="2.19603">
        <ele>300.39999389648</ele>
        <time>2025-10-18T09:32:16.000Z</time>
      </trkpt>
      <trkpt lat="42.88785" lon="2.19655">
        <ele>301.20001220703</ele>
        <time>2025-10-18T09:32:22.000Z</time>
      </trkpt>
      <trkpt lat="42.88788" lon="2.19691">
        <ele>303.20001220703</ele>
        <time>2025-10-18T09:32:27.000Z</time>
      </trkpt>
      <trkpt lat="42.88789" lon="2.19697">
        <ele>303.39999389648</ele>
        <time>2025-10-18T09:32:28.000Z</time>
      </trkpt>
      <trkpt lat="42.88795" lon="2.19725">
        <ele>303.79998779297</ele>
        <time>2025-10-18T09:32:32.000Z</time>
      </trkpt>
      <trkpt lat="42.88798" lon="2.1974">
        <ele>304</ele>
        <time>2025-10-18T09:32:34.000Z</time>
      </trkpt>
      <trkpt lat="42.88803" lon="2.19771">
        <ele>304.79998779297</ele>
        <time>2025-10-18T09:32:38.000Z</time>
      </trkpt>
      <trkpt lat="42.88809" lon="2.19815">
        <ele>304.20001220703</ele>
        <time>2025-10-18T09:32:44.000Z</time>
      </trkpt>
      <trkpt lat="42.88813" lon="2.19873">
        <ele>307.39999389648</ele>
        <time>2025-10-18T09:32:52.000Z</time>
      </trkpt>
      <trkpt lat="42.88814" lon="2.19914">
        <ele>308.20001220703</ele>
        <time>2025-10-18T09:32:58.000Z</time>
      </trkpt>
      <trkpt lat="42.88815" lon="2.19936">
        <ele>306.39999389648</ele>
        <time>2025-10-18T09:33:01.000Z</time>
      </trkpt>
      <trkpt lat="42.88817" lon="2.19951">
        <ele>305.20001220703</ele>
        <time>2025-10-18T09:33:03.000Z</time>
      </trkpt>
      <trkpt lat="42.88823" lon="2.19985">
        <ele>301.39999389648</ele>
        <time>2025-10-18T09:33:08.000Z</time>
      </trkpt>
      <trkpt lat="42.88824" lon="2.19992">
        <ele>300.60000610352</ele>
        <time>2025-10-18T09:33:09.000Z</time>
      </trkpt>
      <trkpt lat="42.88825" lon="2.19998">
        <ele>299.79998779297</ele>
        <time>2025-10-18T09:33:10.000Z</time>
      </trkpt>
      <trkpt lat="42.88827" lon="2.20011">
        <ele>298.79998779297</ele>
        <time>2025-10-18T09:33:12.000Z</time>
      </trkpt>
      <trkpt lat="42.88825" lon="2.20018">
        <ele>298.79998779297</ele>
        <time>2025-10-18T09:33:13.000Z</time>
      </trkpt>
      <trkpt lat="42.88819" lon="2.20038">
        <ele>300.39999389648</ele>
        <time>2025-10-18T09:33:16.000Z</time>
      </trkpt>
      <trkpt lat="42.88814" lon="2.20053">
        <ele>301</ele>
        <time>2025-10-18T09:33:18.000Z</time>
      </trkpt>
      <trkpt lat="42.88803" lon="2.20102">
        <ele>299</ele>
        <time>2025-10-18T09:33:24.000Z</time>
      </trkpt>
      <trkpt lat="42.88794" lon="2.20169">
        <ele>300.20001220703</ele>
        <time>2025-10-18T09:33:31.000Z</time>
      </trkpt>
      <trkpt lat="42.88775" lon="2.20228">
        <ele>298.20001220703</ele>
        <time>2025-10-18T09:33:37.000Z</time>
      </trkpt>
      <trkpt lat="42.88749" lon="2.20262">
        <ele>293.79998779297</ele>
        <time>2025-10-18T09:33:42.000Z</time>
      </trkpt>
      <trkpt lat="42.88746" lon="2.20269">
        <ele>292.39999389648</ele>
        <time>2025-10-18T09:33:43.000Z</time>
      </trkpt>
      <trkpt lat="42.88745" lon="2.20277">
        <ele>291.79998779297</ele>
        <time>2025-10-18T09:33:44.000Z</time>
      </trkpt>
      <trkpt lat="42.88746" lon="2.20285">
        <ele>290.79998779297</ele>
        <time>2025-10-18T09:33:45.000Z</time>
      </trkpt>
      <trkpt lat="42.88752" lon="2.20299">
        <ele>288.60000610352</ele>
        <time>2025-10-18T09:33:47.000Z</time>
      </trkpt>
      <trkpt lat="42.88774" lon="2.20333">
        <ele>286.60000610352</ele>
        <time>2025-10-18T09:33:52.000Z</time>
      </trkpt>
      <trkpt lat="42.88785" lon="2.20354">
        <ele>286.20001220703</ele>
        <time>2025-10-18T09:33:55.000Z</time>
      </trkpt>
      <trkpt lat="42.88789" lon="2.20368">
        <ele>286.60000610352</ele>
        <time>2025-10-18T09:33:57.000Z</time>
      </trkpt>
      <trkpt lat="42.88786" lon="2.20397">
        <ele>287.60000610352</ele>
        <time>2025-10-18T09:34:01.000Z</time>
      </trkpt>
      <trkpt lat="42.88775" lon="2.20433">
        <ele>289.20001220703</ele>
        <time>2025-10-18T09:34:07.000Z</time>
      </trkpt>
      <trkpt lat="42.88758" lon="2.20455">
        <ele>291</ele>
        <time>2025-10-18T09:34:12.000Z</time>
      </trkpt>
      <trkpt lat="42.88743" lon="2.20473">
        <ele>291.60000610352</ele>
        <time>2025-10-18T09:34:16.000Z</time>
      </trkpt>
      <trkpt lat="42.88736" lon="2.20483">
        <ele>291.60000610352</ele>
        <time>2025-10-18T09:34:18.000Z</time>
      </trkpt>
      <trkpt lat="42.88733" lon="2.20488">
        <ele>291.79998779297</ele>
        <time>2025-10-18T09:34:19.000Z</time>
      </trkpt>
      <trkpt lat="42.88729" lon="2.20501">
        <ele>292.39999389648</ele>
        <time>2025-10-18T09:34:21.000Z</time>
      </trkpt>
      <trkpt lat="42.88728" lon="2.20508">
        <ele>292.79998779297</ele>
        <time>2025-10-18T09:34:22.000Z</time>
      </trkpt>
      <trkpt lat="42.88729" lon="2.20535">
        <ele>294</ele>
        <time>2025-10-18T09:34:26.000Z</time>
      </trkpt>
      <trkpt lat="42.8873" lon="2.20541">
        <ele>294.39999389648</ele>
        <time>2025-10-18T09:34:27.000Z</time>
      </trkpt>
      <trkpt lat="42.88734" lon="2.20554">
        <ele>295.39999389648</ele>
        <time>2025-10-18T09:34:29.000Z</time>
      </trkpt>
      <trkpt lat="42.88744" lon="2.20576">
        <ele>296.79998779297</ele>
        <time>2025-10-18T09:34:33.000Z</time>
      </trkpt>
      <trkpt lat="42.88757" lon="2.20612">
        <ele>297.79998779297</ele>
        <time>2025-10-18T09:34:39.000Z</time>
      </trkpt>
      <trkpt lat="42.88759" lon="2.20619">
        <ele>298</ele>
        <time>2025-10-18T09:34:40.000Z</time>
      </trkpt>
      <trkpt lat="42.88764" lon="2.20652">
        <ele>298.20001220703</ele>
        <time>2025-10-18T09:34:45.000Z</time>
      </trkpt>
      <trkpt lat="42.8877" lon="2.20706">
        <ele>300</ele>
        <time>2025-10-18T09:34:54.000Z</time>
      </trkpt>
      <trkpt lat="42.88779" lon="2.20743">
        <ele>303</ele>
        <time>2025-10-18T09:35:00.000Z</time>
      </trkpt>
      <trkpt lat="42.88791" lon="2.20784">
        <ele>305.79998779297</ele>
        <time>2025-10-18T09:35:07.000Z</time>
      </trkpt>
      <trkpt lat="42.888" lon="2.20825">
        <ele>309.20001220703</ele>
        <time>2025-10-18T09:35:14.000Z</time>
      </trkpt>
      <trkpt lat="42.88802" lon="2.20836">
        <ele>310.20001220703</ele>
        <time>2025-10-18T09:35:16.000Z</time>
      </trkpt>
      <trkpt lat="42.88802" lon="2.2086">
        <ele>311.20001220703</ele>
        <time>2025-10-18T09:35:20.000Z</time>
      </trkpt>
      <trkpt lat="42.88802" lon="2.20878">
        <ele>311.79998779297</ele>
        <time>2025-10-18T09:35:23.000Z</time>
      </trkpt>
      <trkpt lat="42.88801" lon="2.20899">
        <ele>313.60000610352</ele>
        <time>2025-10-18T09:35:27.000Z</time>
      </trkpt>
      <trkpt lat="42.88795" lon="2.20952">
        <ele>315.79998779297</ele>
        <time>2025-10-18T09:35:37.000Z</time>
      </trkpt>
      <trkpt lat="42.88789" lon="2.20996">
        <ele>317.39999389648</ele>
        <time>2025-10-18T09:35:46.000Z</time>
      </trkpt>
      <trkpt lat="42.88787" lon="2.21017">
        <ele>319.39999389648</ele>
        <time>2025-10-18T09:35:53.000Z</time>
      </trkpt>
      <trkpt lat="42.88784" lon="2.21047">
        <ele>321.39999389648</ele>
        <time>2025-10-18T09:36:01.000Z</time>
      </trkpt>
      <trkpt lat="42.88781" lon="2.21073">
        <ele>321.79998779297</ele>
        <time>2025-10-18T09:36:08.000Z</time>
      </trkpt>
      <trkpt lat="42.88779" lon="2.21088">
        <ele>321.60000610352</ele>
        <time>2025-10-18T09:36:14.000Z</time>
      </trkpt>
      <trkpt lat="42.88776" lon="2.21101">
        <ele>321.60000610352</ele>
        <time>2025-10-18T09:36:20.000Z</time>
      </trkpt>
      <trkpt lat="42.88776" lon="2.21101">
        <ele>321.60000610352</ele>
        <time>2025-10-18T09:36:21.000Z</time>
      </trkpt>
      <trkpt lat="42.88775" lon="2.21107">
        <ele>321.60000610352</ele>
        <time>2025-10-18T09:38:50.000Z</time>
      </trkpt>
      <trkpt lat="42.88775" lon="2.21109">
        <ele>321.79998779297</ele>
        <time>2025-10-18T09:38:51.000Z</time>
      </trkpt>
      <trkpt lat="42.88775" lon="2.21112">
        <ele>322</ele>
        <time>2025-10-18T09:38:52.000Z</time>
      </trkpt>
      <trkpt lat="42.88775" lon="2.21124">
        <ele>322</ele>
        <time>2025-10-18T09:38:56.000Z</time>
      </trkpt>
      <trkpt lat="42.88773" lon="2.21134">
        <ele>321.39999389648</ele>
        <time>2025-10-18T09:38:58.000Z</time>
      </trkpt>
      <trkpt lat="42.88771" lon="2.21146">
        <ele>321</ele>
        <time>2025-10-18T09:39:00.000Z</time>
      </trkpt>
      <trkpt lat="42.88771" lon="2.21164">
        <ele>321.20001220703</ele>
        <time>2025-10-18T09:39:02.000Z</time>
      </trkpt>
      <trkpt lat="42.88773" lon="2.21184">
        <ele>322.39999389648</ele>
        <time>2025-10-18T09:39:04.000Z</time>
      </trkpt>
      <trkpt lat="42.88769" lon="2.21224">
        <ele>322.39999389648</ele>
        <time>2025-10-18T09:39:08.000Z</time>
      </trkpt>
      <trkpt lat="42.88767" lon="2.21254">
        <ele>323.39999389648</ele>
        <time>2025-10-18T09:39:11.000Z</time>
      </trkpt>
      <trkpt lat="42.88763" lon="2.21263">
        <ele>322.60000610352</ele>
        <time>2025-10-18T09:39:12.000Z</time>
      </trkpt>
      <trkpt lat="42.8874" lon="2.21316">
        <ele>315.39999389648</ele>
        <time>2025-10-18T09:39:18.000Z</time>
      </trkpt>
      <trkpt lat="42.88738" lon="2.21325">
        <ele>314.79998779297</ele>
        <time>2025-10-18T09:39:19.000Z</time>
      </trkpt>
      <trkpt lat="42.88736" lon="2.21356">
        <ele>313.79998779297</ele>
        <time>2025-10-18T09:39:22.000Z</time>
      </trkpt>
      <trkpt lat="42.88734" lon="2.21404">
        <ele>315.20001220703</ele>
        <time>2025-10-18T09:39:26.000Z</time>
      </trkpt>
      <trkpt lat="42.88729" lon="2.21482">
        <ele>312</ele>
        <time>2025-10-18T09:39:32.000Z</time>
      </trkpt>
      <trkpt lat="42.88723" lon="2.21536">
        <ele>313.20001220703</ele>
        <time>2025-10-18T09:39:37.000Z</time>
      </trkpt>
      <trkpt lat="42.88718" lon="2.21577">
        <ele>314.39999389648</ele>
        <time>2025-10-18T09:39:42.000Z</time>
      </trkpt>
      <trkpt lat="42.88715" lon="2.21607">
        <ele>315</ele>
        <time>2025-10-18T09:39:47.000Z</time>
      </trkpt>
      <trkpt lat="42.88713" lon="2.21631">
        <ele>316.20001220703</ele>
        <time>2025-10-18T09:39:53.000Z</time>
      </trkpt>
      <trkpt lat="42.8871" lon="2.21661">
        <ele>317</ele>
        <time>2025-10-18T09:40:00.000Z</time>
      </trkpt>
      <trkpt lat="42.88707" lon="2.21689">
        <ele>317</ele>
        <time>2025-10-18T09:40:06.000Z</time>
      </trkpt>
      <trkpt lat="42.88706" lon="2.21719">
        <ele>318</ele>
        <time>2025-10-18T09:40:13.000Z</time>
      </trkpt>
      <trkpt lat="42.88708" lon="2.21739">
        <ele>318</ele>
        <time>2025-10-18T09:40:18.000Z</time>
      </trkpt>
      <trkpt lat="42.88711" lon="2.2177">
        <ele>320.20001220703</ele>
        <time>2025-10-18T09:40:25.000Z</time>
      </trkpt>
      <trkpt lat="42.88715" lon="2.218">
        <ele>322.79998779297</ele>
        <time>2025-10-18T09:40:33.000Z</time>
      </trkpt>
      <trkpt lat="42.88718" lon="2.21827">
        <ele>325</ele>
        <time>2025-10-18T09:40:40.000Z</time>
      </trkpt>
      <trkpt lat="42.88721" lon="2.2185">
        <ele>325.20001220703</ele>
        <time>2025-10-18T09:40:46.000Z</time>
      </trkpt>
      <trkpt lat="42.88717" lon="2.21874">
        <ele>324.60000610352</ele>
        <time>2025-10-18T09:40:52.000Z</time>
      </trkpt>
      <trkpt lat="42.88712" lon="2.21917">
        <ele>324</ele>
        <time>2025-10-18T09:41:02.000Z</time>
      </trkpt>
      <trkpt lat="42.88707" lon="2.2196">
        <ele>324.20001220703</ele>
        <time>2025-10-18T09:41:11.000Z</time>
      </trkpt>
      <trkpt lat="42.88703" lon="2.21999">
        <ele>324.60000610352</ele>
        <time>2025-10-18T09:41:19.000Z</time>
      </trkpt>
      <trkpt lat="42.88699" lon="2.22025">
        <ele>324</ele>
        <time>2025-10-18T09:41:25.000Z</time>
      </trkpt>
      <trkpt lat="42.88693" lon="2.22059">
        <ele>322.79998779297</ele>
        <time>2025-10-18T09:41:33.000Z</time>
      </trkpt>
      <trkpt lat="42.88689" lon="2.22084">
        <ele>322</ele>
        <time>2025-10-18T09:41:38.000Z</time>
      </trkpt>
      <trkpt lat="42.88682" lon="2.22106">
        <ele>321</ele>
        <time>2025-10-18T09:41:42.000Z</time>
      </trkpt>
      <trkpt lat="42.88676" lon="2.22125">
        <ele>320.60000610352</ele>
        <time>2025-10-18T09:41:45.000Z</time>
      </trkpt>
      <trkpt lat="42.88674" lon="2.22161">
        <ele>322.20001220703</ele>
        <time>2025-10-18T09:41:51.000Z</time>
      </trkpt>
      <trkpt lat="42.8867" lon="2.22185">
        <ele>323.39999389648</ele>
        <time>2025-10-18T09:41:56.000Z</time>
      </trkpt>
      <trkpt lat="42.88666" lon="2.22212">
        <ele>324.39999389648</ele>
        <time>2025-10-18T09:42:02.000Z</time>
      </trkpt>
      <trkpt lat="42.88658" lon="2.22251">
        <ele>324.79998779297</ele>
        <time>2025-10-18T09:42:11.000Z</time>
      </trkpt>
      <trkpt lat="42.88653" lon="2.22281">
        <ele>326</ele>
        <time>2025-10-18T09:42:18.000Z</time>
      </trkpt>
      <trkpt lat="42.88654" lon="2.22306">
        <ele>327.20001220703</ele>
        <time>2025-10-18T09:42:23.000Z</time>
      </trkpt>
      <trkpt lat="42.88649" lon="2.22317">
        <ele>327.20001220703</ele>
        <time>2025-10-18T09:42:25.000Z</time>
      </trkpt>
      <trkpt lat="42.88646" lon="2.22323">
        <ele>327.20001220703</ele>
        <time>2025-10-18T09:42:27.000Z</time>
      </trkpt>
      <trkpt lat="42.88644" lon="2.22342">
        <ele>328.79998779297</ele>
        <time>2025-10-18T09:42:32.000Z</time>
      </trkpt>
      <trkpt lat="42.88646" lon="2.22351">
        <ele>330.20001220703</ele>
        <time>2025-10-18T09:42:36.000Z</time>
      </trkpt>
      <trkpt lat="42.88647" lon="2.22366">
        <ele>331.39999389648</ele>
        <time>2025-10-18T09:42:40.000Z</time>
      </trkpt>
      <trkpt lat="42.88647" lon="2.22387">
        <ele>332.60000610352</ele>
        <time>2025-10-18T09:42:46.000Z</time>
      </trkpt>
      <trkpt lat="42.88643" lon="2.2241">
        <ele>332.79998779297</ele>
        <time>2025-10-18T09:42:52.000Z</time>
      </trkpt>
      <trkpt lat="42.88637" lon="2.22433">
        <ele>332.39999389648</ele>
        <time>2025-10-18T09:42:58.000Z</time>
      </trkpt>
      <trkpt lat="42.88631" lon="2.22464">
        <ele>332.20001220703</ele>
        <time>2025-10-18T09:43:06.000Z</time>
      </trkpt>
      <trkpt lat="42.88624" lon="2.22484">
        <ele>332.20001220703</ele>
        <time>2025-10-18T09:43:11.000Z</time>
      </trkpt>
      <trkpt lat="42.88616" lon="2.22506">
        <ele>334.39999389648</ele>
        <time>2025-10-18T09:43:17.000Z</time>
      </trkpt>
      <trkpt lat="42.88606" lon="2.2253">
        <ele>336.39999389648</ele>
        <time>2025-10-18T09:43:23.000Z</time>
      </trkpt>
      <trkpt lat="42.88596" lon="2.22562">
        <ele>337.39999389648</ele>
        <time>2025-10-18T09:43:30.000Z</time>
      </trkpt>
      <trkpt lat="42.88585" lon="2.22605">
        <ele>339.60000610352</ele>
        <time>2025-10-18T09:43:39.000Z</time>
      </trkpt>
      <trkpt lat="42.88577" lon="2.22633">
        <ele>340.20001220703</ele>
        <time>2025-10-18T09:43:45.000Z</time>
      </trkpt>
      <trkpt lat="42.88571" lon="2.22657">
        <ele>339.79998779297</ele>
        <time>2025-10-18T09:43:50.000Z</time>
      </trkpt>
      <trkpt lat="42.88565" lon="2.22683">
        <ele>340.39999389648</ele>
        <time>2025-10-18T09:43:57.000Z</time>
      </trkpt>
      <trkpt lat="42.88559" lon="2.22712">
        <ele>341.60000610352</ele>
        <time>2025-10-18T09:44:05.000Z</time>
      </trkpt>
      <trkpt lat="42.88554" lon="2.22732">
        <ele>342.39999389648</ele>
        <time>2025-10-18T09:44:11.000Z</time>
      </trkpt>
      <trkpt lat="42.88551" lon="2.22757">
        <ele>344.60000610352</ele>
        <time>2025-10-18T09:44:18.000Z</time>
      </trkpt>
      <trkpt lat="42.88547" lon="2.22778">
        <ele>346.60000610352</ele>
        <time>2025-10-18T09:44:24.000Z</time>
      </trkpt>
      <trkpt lat="42.8854" lon="2.22801">
        <ele>347.60000610352</ele>
        <time>2025-10-18T09:44:31.000Z</time>
      </trkpt>
      <trkpt lat="42.88533" lon="2.22824">
        <ele>348.60000610352</ele>
        <time>2025-10-18T09:44:38.000Z</time>
      </trkpt>
      <trkpt lat="42.88523" lon="2.22831">
        <ele>347.79998779297</ele>
        <time>2025-10-18T09:44:43.000Z</time>
      </trkpt>
      <trkpt lat="42.88513" lon="2.22838">
        <ele>346.20001220703</ele>
        <time>2025-10-18T09:44:50.000Z</time>
      </trkpt>
      <trkpt lat="42.88505" lon="2.22849">
        <ele>346.20001220703</ele>
        <time>2025-10-18T09:44:56.000Z</time>
      </trkpt>
      <trkpt lat="42.88504" lon="2.22871">
        <ele>349.79998779297</ele>
        <time>2025-10-18T09:45:04.000Z</time>
      </trkpt>
      <trkpt lat="42.885" lon="2.2289">
        <ele>353.60000610352</ele>
        <time>2025-10-18T09:45:11.000Z</time>
      </trkpt>
      <trkpt lat="42.8849" lon="2.22905">
        <ele>355.39999389648</ele>
        <time>2025-10-18T09:45:19.000Z</time>
      </trkpt>
      <trkpt lat="42.88479" lon="2.22917">
        <ele>356</ele>
        <time>2025-10-18T09:45:27.000Z</time>
      </trkpt>
      <trkpt lat="42.88478" lon="2.22918">
        <ele>356</ele>
        <time>2025-10-18T09:45:29.000Z</time>
      </trkpt>
      <trkpt lat="42.88474" lon="2.22932">
        <ele>358.20001220703</ele>
        <time>2025-10-18T09:46:29.000Z</time>
      </trkpt>
      <trkpt lat="42.88486" lon="2.22931">
        <ele>361.20001220703</ele>
        <time>2025-10-18T09:46:36.000Z</time>
      </trkpt>
      <trkpt lat="42.88494" lon="2.22931">
        <ele>363</ele>
        <time>2025-10-18T09:46:42.000Z</time>
      </trkpt>
      <trkpt lat="42.88507" lon="2.22929">
        <ele>365.20001220703</ele>
        <time>2025-10-18T09:46:50.000Z</time>
      </trkpt>
      <trkpt lat="42.88517" lon="2.22933">
        <ele>368.39999389648</ele>
        <time>2025-10-18T09:46:56.000Z</time>
      </trkpt>
      <trkpt lat="42.88529" lon="2.22934">
        <ele>372</ele>
        <time>2025-10-18T09:47:03.000Z</time>
      </trkpt>
      <trkpt lat="42.8854" lon="2.22933">
        <ele>374.60000610352</ele>
        <time>2025-10-18T09:47:09.000Z</time>
      </trkpt>
      <trkpt lat="42.88558" lon="2.22926">
        <ele>377.79998779297</ele>
        <time>2025-10-18T09:47:18.000Z</time>
      </trkpt>
      <trkpt lat="42.88571" lon="2.22915">
        <ele>378.79998779297</ele>
        <time>2025-10-18T09:47:25.000Z</time>
      </trkpt>
      <trkpt lat="42.88583" lon="2.22903">
        <ele>379.79998779297</ele>
        <time>2025-10-18T09:47:32.000Z</time>
      </trkpt>
      <trkpt lat="42.88599" lon="2.22892">
        <ele>381.39999389648</ele>
        <time>2025-10-18T09:47:39.000Z</time>
      </trkpt>
      <trkpt lat="42.88617" lon="2.2289">
        <ele>385.39999389648</ele>
        <time>2025-10-18T09:47:45.000Z</time>
      </trkpt>
      <trkpt lat="42.88625" lon="2.22883">
        <ele>385.60000610352</ele>
        <time>2025-10-18T09:47:48.000Z</time>
      </trkpt>
      <trkpt lat="42.88625" lon="2.22872">
        <ele>382.39999389648</ele>
        <time>2025-10-18T09:47:51.000Z</time>
      </trkpt>
      <trkpt lat="42.88624" lon="2.22852">
        <ele>376.79998779297</ele>
        <time>2025-10-18T09:47:57.000Z</time>
      </trkpt>
      <trkpt lat="42.8863" lon="2.22825">
        <ele>376.79998779297</ele>
        <time>2025-10-18T09:48:06.000Z</time>
      </trkpt>
      <trkpt lat="42.88636" lon="2.22806">
        <ele>378.20001220703</ele>
        <time>2025-10-18T09:48:13.000Z</time>
      </trkpt>
      <trkpt lat="42.88644" lon="2.22784">
        <ele>380</ele>
        <time>2025-10-18T09:48:22.000Z</time>
      </trkpt>
      <trkpt lat="42.88655" lon="2.22771">
        <ele>383</ele>
        <time>2025-10-18T09:48:29.000Z</time>
      </trkpt>
      <trkpt lat="42.88665" lon="2.22759">
        <ele>386</ele>
        <time>2025-10-18T09:48:36.000Z</time>
      </trkpt>
      <trkpt lat="42.8868" lon="2.2275">
        <ele>390.20001220703</ele>
        <time>2025-10-18T09:48:44.000Z</time>
      </trkpt>
      <trkpt lat="42.8869" lon="2.22744">
        <ele>391.79998779297</ele>
        <time>2025-10-18T09:48:50.000Z</time>
      </trkpt>
      <trkpt lat="42.88704" lon="2.22734">
        <ele>393.60000610352</ele>
        <time>2025-10-18T09:48:58.000Z</time>
      </trkpt>
      <trkpt lat="42.8872" lon="2.22728">
        <ele>395.39999389648</ele>
        <time>2025-10-18T09:49:06.000Z</time>
      </trkpt>
      <trkpt lat="42.88736" lon="2.22725">
        <ele>396.60000610352</ele>
        <time>2025-10-18T09:49:14.000Z</time>
      </trkpt>
      <trkpt lat="42.88752" lon="2.22722">
        <ele>399</ele>
        <time>2025-10-18T09:49:22.000Z</time>
      </trkpt>
      <trkpt lat="42.8877" lon="2.22721">
        <ele>402.39999389648</ele>
        <time>2025-10-18T09:49:31.000Z</time>
      </trkpt>
      <trkpt lat="42.8878" lon="2.22721">
        <ele>404.60000610352</ele>
        <time>2025-10-18T09:49:36.000Z</time>
      </trkpt>
      <trkpt lat="42.88782" lon="2.2272">
        <ele>404.60000610352</ele>
        <time>2025-10-18T09:49:37.000Z</time>
      </trkpt>
      <trkpt lat="42.88789" lon="2.22708">
        <ele>404.39999389648</ele>
        <time>2025-10-18T09:49:43.000Z</time>
      </trkpt>
      <trkpt lat="42.88794" lon="2.22689">
        <ele>403.39999389648</ele>
        <time>2025-10-18T09:49:50.000Z</time>
      </trkpt>
      <trkpt lat="42.88804" lon="2.22663">
        <ele>403.20001220703</ele>
        <time>2025-10-18T09:50:00.000Z</time>
      </trkpt>
      <trkpt lat="42.88814" lon="2.22648">
        <ele>403.79998779297</ele>
        <time>2025-10-18T09:50:07.000Z</time>
      </trkpt>
      <trkpt lat="42.88827" lon="2.22635">
        <ele>405.20001220703</ele>
        <time>2025-10-18T09:50:15.000Z</time>
      </trkpt>
      <trkpt lat="42.88839" lon="2.22627">
        <ele>407</ele>
        <time>2025-10-18T09:50:22.000Z</time>
      </trkpt>
      <trkpt lat="42.88855" lon="2.22619">
        <ele>409.20001220703</ele>
        <time>2025-10-18T09:50:30.000Z</time>
      </trkpt>
      <trkpt lat="42.8887" lon="2.22611">
        <ele>411.79998779297</ele>
        <time>2025-10-18T09:50:38.000Z</time>
      </trkpt>
      <trkpt lat="42.88885" lon="2.22609">
        <ele>413.39999389648</ele>
        <time>2025-10-18T09:50:45.000Z</time>
      </trkpt>
      <trkpt lat="42.88899" lon="2.22612">
        <ele>415.39999389648</ele>
        <time>2025-10-18T09:50:52.000Z</time>
      </trkpt>
      <trkpt lat="42.88912" lon="2.22617">
        <ele>416.79998779297</ele>
        <time>2025-10-18T09:50:59.000Z</time>
      </trkpt>
      <trkpt lat="42.88925" lon="2.22625">
        <ele>419</ele>
        <time>2025-10-18T09:51:05.000Z</time>
      </trkpt>
      <trkpt lat="42.88936" lon="2.2264">
        <ele>422.79998779297</ele>
        <time>2025-10-18T09:51:11.000Z</time>
      </trkpt>
      <trkpt lat="42.88946" lon="2.22643">
        <ele>424.20001220703</ele>
        <time>2025-10-18T09:51:15.000Z</time>
      </trkpt>
      <trkpt lat="42.88966" lon="2.22637">
        <ele>424</ele>
        <time>2025-10-18T09:51:23.000Z</time>
      </trkpt>
      <trkpt lat="42.88984" lon="2.22635">
        <ele>425</ele>
        <time>2025-10-18T09:51:30.000Z</time>
      </trkpt>
      <trkpt lat="42.89" lon="2.22635">
        <ele>427.39999389648</ele>
        <time>2025-10-18T09:51:36.000Z</time>
      </trkpt>
      <trkpt lat="42.89017" lon="2.22633">
        <ele>429.20001220703</ele>
        <time>2025-10-18T09:51:43.000Z</time>
      </trkpt>
      <trkpt lat="42.89036" lon="2.22628">
        <ele>431</ele>
        <time>2025-10-18T09:51:51.000Z</time>
      </trkpt>
      <trkpt lat="42.89054" lon="2.22627">
        <ele>433.39999389648</ele>
        <time>2025-10-18T09:51:58.000Z</time>
      </trkpt>
      <trkpt lat="42.89071" lon="2.22634">
        <ele>436.79998779297</ele>
        <time>2025-10-18T09:52:05.000Z</time>
      </trkpt>
      <trkpt lat="42.89091" lon="2.22635">
        <ele>438.60000610352</ele>
        <time>2025-10-18T09:52:13.000Z</time>
      </trkpt>
      <trkpt lat="42.89107" lon="2.22627">
        <ele>437.79998779297</ele>
        <time>2025-10-18T09:52:20.000Z</time>
      </trkpt>
      <trkpt lat="42.89121" lon="2.22608">
        <ele>436.39999389648</ele>
        <time>2025-10-18T09:52:27.000Z</time>
      </trkpt>
      <trkpt lat="42.89138" lon="2.22581">
        <ele>437.60000610352</ele>
        <time>2025-10-18T09:52:35.000Z</time>
      </trkpt>
      <trkpt lat="42.89153" lon="2.22556">
        <ele>437.60000610352</ele>
        <time>2025-10-18T09:52:42.000Z</time>
      </trkpt>
      <trkpt lat="42.89166" lon="2.22533">
        <ele>437.39999389648</ele>
        <time>2025-10-18T09:52:49.000Z</time>
      </trkpt>
      <trkpt lat="42.89178" lon="2.22532">
        <ele>438.60000610352</ele>
        <time>2025-10-18T09:52:53.000Z</time>
      </trkpt>
      <trkpt lat="42.89187" lon="2.2252">
        <ele>438.60000610352</ele>
        <time>2025-10-18T09:52:57.000Z</time>
      </trkpt>
      <trkpt lat="42.89198" lon="2.22494">
        <ele>440.20001220703</ele>
        <time>2025-10-18T09:53:04.000Z</time>
      </trkpt>
      <trkpt lat="42.89206" lon="2.2247">
        <ele>441.79998779297</ele>
        <time>2025-10-18T09:53:11.000Z</time>
      </trkpt>
      <trkpt lat="42.89202" lon="2.22443">
        <ele>443</ele>
        <time>2025-10-18T09:53:18.000Z</time>
      </trkpt>
      <trkpt lat="42.89199" lon="2.22433">
        <ele>443.20001220703</ele>
        <time>2025-10-18T09:53:21.000Z</time>
      </trkpt>
      <trkpt lat="42.89198" lon="2.22433">
        <ele>442.79998779297</ele>
        <time>2025-10-18T09:53:22.000Z</time>
      </trkpt>
      <trkpt lat="42.89187" lon="2.22433">
        <ele>441.39999389648</ele>
        <time>2025-10-18T09:53:27.000Z</time>
      </trkpt>
      <trkpt lat="42.89181" lon="2.22431">
        <ele>440.60000610352</ele>
        <time>2025-10-18T09:53:31.000Z</time>
      </trkpt>
      <trkpt lat="42.8918" lon="2.22434">
        <ele>440.39999389648</ele>
        <time>2025-10-18T09:53:33.000Z</time>
      </trkpt>
      <trkpt lat="42.89181" lon="2.22435">
        <ele>440.39999389648</ele>
        <time>2025-10-18T09:53:34.000Z</time>
      </trkpt>
      <trkpt lat="42.89183" lon="2.22437">
        <ele>440.79998779297</ele>
        <time>2025-10-18T09:53:36.000Z</time>
      </trkpt>
      <trkpt lat="42.89185" lon="2.22437">
        <ele>441</ele>
        <time>2025-10-18T09:53:37.000Z</time>
      </trkpt>
      <trkpt lat="42.89191" lon="2.22437">
        <ele>442</ele>
        <time>2025-10-18T09:53:41.000Z</time>
      </trkpt>
      <trkpt lat="42.89192" lon="2.22436">
        <ele>442</ele>
        <time>2025-10-18T09:53:42.000Z</time>
      </trkpt>
      <trkpt lat="42.89189" lon="2.22433">
        <ele>441.60000610352</ele>
        <time>2025-10-18T09:53:45.000Z</time>
      </trkpt>
      <trkpt lat="42.89181" lon="2.22432">
        <ele>440.39999389648</ele>
        <time>2025-10-18T09:53:51.000Z</time>
      </trkpt>
      <trkpt lat="42.8918" lon="2.22437">
        <ele>440.39999389648</ele>
        <time>2025-10-18T09:53:54.000Z</time>
      </trkpt>
      <trkpt lat="42.89189" lon="2.22436">
        <ele>441.79998779297</ele>
        <time>2025-10-18T09:53:58.000Z</time>
      </trkpt>
      <trkpt lat="42.89195" lon="2.22433">
        <ele>442.60000610352</ele>
        <time>2025-10-18T09:54:00.000Z</time>
      </trkpt>
      <trkpt lat="42.89197" lon="2.22429">
        <ele>442.79998779297</ele>
        <time>2025-10-18T09:54:01.000Z</time>
      </trkpt>
      <trkpt lat="42.892" lon="2.22418">
        <ele>443.20001220703</ele>
        <time>2025-10-18T09:54:04.000Z</time>
      </trkpt>
      <trkpt lat="42.8921" lon="2.22403">
        <ele>443.20001220703</ele>
        <time>2025-10-18T09:54:09.000Z</time>
      </trkpt>
      <trkpt lat="42.89212" lon="2.22401">
        <ele>443</ele>
        <time>2025-10-18T09:54:10.000Z</time>
      </trkpt>
      <trkpt lat="42.89218" lon="2.22396">
        <ele>442.20001220703</ele>
        <time>2025-10-18T09:54:12.000Z</time>
      </trkpt>
      <trkpt lat="42.8923" lon="2.22389">
        <ele>440.20001220703</ele>
        <time>2025-10-18T09:54:16.000Z</time>
      </trkpt>
      <trkpt lat="42.8925" lon="2.22385">
        <ele>436.20001220703</ele>
        <time>2025-10-18T09:54:22.000Z</time>
      </trkpt>
      <trkpt lat="42.89262" lon="2.22384">
        <ele>434</ele>
        <time>2025-10-18T09:54:25.000Z</time>
      </trkpt>
      <trkpt lat="42.89271" lon="2.22387">
        <ele>432.79998779297</ele>
        <time>2025-10-18T09:54:27.000Z</time>
      </trkpt>
      <trkpt lat="42.89277" lon="2.22389">
        <ele>432.39999389648</ele>
        <time>2025-10-18T09:54:28.000Z</time>
      </trkpt>
      <trkpt lat="42.89286" lon="2.22387">
        <ele>431.20001220703</ele>
        <time>2025-10-18T09:54:30.000Z</time>
      </trkpt>
      <trkpt lat="42.89291" lon="2.22385">
        <ele>430.79998779297</ele>
        <time>2025-10-18T09:54:31.000Z</time>
      </trkpt>
      <trkpt lat="42.89308" lon="2.22375">
        <ele>429.20001220703</ele>
        <time>2025-10-18T09:54:35.000Z</time>
      </trkpt>
      <trkpt lat="42.89319" lon="2.22361">
        <ele>428</ele>
        <time>2025-10-18T09:54:39.000Z</time>
      </trkpt>
      <trkpt lat="42.89332" lon="2.22346">
        <ele>426.79998779297</ele>
        <time>2025-10-18T09:54:45.000Z</time>
      </trkpt>
      <trkpt lat="42.89347" lon="2.22327">
        <ele>426</ele>
        <time>2025-10-18T09:54:51.000Z</time>
      </trkpt>
      <trkpt lat="42.89366" lon="2.22308">
        <ele>426.39999389648</ele>
        <time>2025-10-18T09:54:58.000Z</time>
      </trkpt>
      <trkpt lat="42.89385" lon="2.22292">
        <ele>427.79998779297</ele>
        <time>2025-10-18T09:55:05.000Z</time>
      </trkpt>
      <trkpt lat="42.89406" lon="2.2228">
        <ele>429.39999389648</ele>
        <time>2025-10-18T09:55:12.000Z</time>
      </trkpt>
      <trkpt lat="42.89422" lon="2.22275">
        <ele>431</ele>
        <time>2025-10-18T09:55:18.000Z</time>
      </trkpt>
      <trkpt lat="42.89436" lon="2.22274">
        <ele>431.60000610352</ele>
        <time>2025-10-18T09:55:24.000Z</time>
      </trkpt>
      <trkpt lat="42.89449" lon="2.22276">
        <ele>431.39999389648</ele>
        <time>2025-10-18T09:55:28.000Z</time>
      </trkpt>
      <trkpt lat="42.89454" lon="2.22276">
        <ele>431.39999389648</ele>
        <time>2025-10-18T09:55:29.000Z</time>
      </trkpt>
      <trkpt lat="42.89473" lon="2.22276">
        <ele>430</ele>
        <time>2025-10-18T09:55:32.000Z</time>
      </trkpt>
      <trkpt lat="42.89513" lon="2.22268">
        <ele>429</ele>
        <time>2025-10-18T09:55:39.000Z</time>
      </trkpt>
      <trkpt lat="42.89534" lon="2.22264">
        <ele>428</ele>
        <time>2025-10-18T09:55:45.000Z</time>
      </trkpt>
      <trkpt lat="42.89549" lon="2.22258">
        <ele>428.60000610352</ele>
        <time>2025-10-18T09:55:51.000Z</time>
      </trkpt>
      <trkpt lat="42.89571" lon="2.22255">
        <ele>429.79998779297</ele>
        <time>2025-10-18T09:55:57.000Z</time>
      </trkpt>
      <trkpt lat="42.89592" lon="2.22254">
        <ele>430.20001220703</ele>
        <time>2025-10-18T09:56:03.000Z</time>
      </trkpt>
      <trkpt lat="42.89612" lon="2.22244">
        <ele>430.79998779297</ele>
        <time>2025-10-18T09:56:09.000Z</time>
      </trkpt>
      <trkpt lat="42.89635" lon="2.22228">
        <ele>432.60000610352</ele>
        <time>2025-10-18T09:56:16.000Z</time>
      </trkpt>
      <trkpt lat="42.89667" lon="2.22214">
        <ele>433</ele>
        <time>2025-10-18T09:56:25.000Z</time>
      </trkpt>
      <trkpt lat="42.89695" lon="2.22203">
        <ele>434.79998779297</ele>
        <time>2025-10-18T09:56:33.000Z</time>
      </trkpt>
      <trkpt lat="42.89715" lon="2.22203">
        <ele>435.20001220703</ele>
        <time>2025-10-18T09:56:38.000Z</time>
      </trkpt>
      <trkpt lat="42.89719" lon="2.22204">
        <ele>435.20001220703</ele>
        <time>2025-10-18T09:56:39.000Z</time>
      </trkpt>
      <trkpt lat="42.89746" lon="2.2221">
        <ele>435.20001220703</ele>
        <time>2025-10-18T09:56:46.000Z</time>
      </trkpt>
      <trkpt lat="42.89766" lon="2.22211">
        <ele>435</ele>
        <time>2025-10-18T09:56:51.000Z</time>
      </trkpt>
      <trkpt lat="42.89775" lon="2.22211">
        <ele>434.79998779297</ele>
        <time>2025-10-18T09:56:53.000Z</time>
      </trkpt>
      <trkpt lat="42.89803" lon="2.22214">
        <ele>434</ele>
        <time>2025-10-18T09:56:59.000Z</time>
      </trkpt>
      <trkpt lat="42.89838" lon="2.22213">
        <ele>434.20001220703</ele>
        <time>2025-10-18T09:57:06.000Z</time>
      </trkpt>
      <trkpt lat="42.89871" lon="2.22206">
        <ele>434</ele>
        <time>2025-10-18T09:57:13.000Z</time>
      </trkpt>
      <trkpt lat="42.89904" lon="2.222">
        <ele>433.79998779297</ele>
        <time>2025-10-18T09:57:21.000Z</time>
      </trkpt>
      <trkpt lat="42.89918" lon="2.22195">
        <ele>434</ele>
        <time>2025-10-18T09:57:24.000Z</time>
      </trkpt>
      <trkpt lat="42.89928" lon="2.22189">
        <ele>434.79998779297</ele>
        <time>2025-10-18T09:57:26.000Z</time>
      </trkpt>
      <trkpt lat="42.89952" lon="2.22172">
        <ele>433.39999389648</ele>
        <time>2025-10-18T09:57:30.000Z</time>
      </trkpt>
      <trkpt lat="42.89958" lon="2.22166">
        <ele>433</ele>
        <time>2025-10-18T09:57:31.000Z</time>
      </trkpt>
      <trkpt lat="42.89989" lon="2.22126">
        <ele>431.39999389648</ele>
        <time>2025-10-18T09:57:37.000Z</time>
      </trkpt>
      <trkpt lat="42.90008" lon="2.221">
        <ele>429.60000610352</ele>
        <time>2025-10-18T09:57:42.000Z</time>
      </trkpt>
      <trkpt lat="42.90021" lon="2.22082">
        <ele>430.60000610352</ele>
        <time>2025-10-18T09:57:46.000Z</time>
      </trkpt>
      <trkpt lat="42.90029" lon="2.22075">
        <ele>430</ele>
        <time>2025-10-18T09:57:48.000Z</time>
      </trkpt>
      <trkpt lat="42.90042" lon="2.22066">
        <ele>429.79998779297</ele>
        <time>2025-10-18T09:57:51.000Z</time>
      </trkpt>
      <trkpt lat="42.90053" lon="2.22064">
        <ele>429.79998779297</ele>
        <time>2025-10-18T09:57:53.000Z</time>
      </trkpt>
      <trkpt lat="42.90062" lon="2.22069">
        <ele>429.39999389648</ele>
        <time>2025-10-18T09:57:55.000Z</time>
      </trkpt>
      <trkpt lat="42.90067" lon="2.22073">
        <ele>429</ele>
        <time>2025-10-18T09:57:56.000Z</time>
      </trkpt>
      <trkpt lat="42.90083" lon="2.22089">
        <ele>428.60000610352</ele>
        <time>2025-10-18T09:58:00.000Z</time>
      </trkpt>
      <trkpt lat="42.90092" lon="2.22095">
        <ele>428.60000610352</ele>
        <time>2025-10-18T09:58:02.000Z</time>
      </trkpt>
      <trkpt lat="42.90132" lon="2.22113">
        <ele>430.60000610352</ele>
        <time>2025-10-18T09:58:11.000Z</time>
      </trkpt>
      <trkpt lat="42.90163" lon="2.22123">
        <ele>431</ele>
        <time>2025-10-18T09:58:18.000Z</time>
      </trkpt>
      <trkpt lat="42.90194" lon="2.22121">
        <ele>433.20001220703</ele>
        <time>2025-10-18T09:58:25.000Z</time>
      </trkpt>
      <trkpt lat="42.90221" lon="2.22116">
        <ele>435.60000610352</ele>
        <time>2025-10-18T09:58:31.000Z</time>
      </trkpt>
      <trkpt lat="42.90226" lon="2.22114">
        <ele>436</ele>
        <time>2025-10-18T09:58:32.000Z</time>
      </trkpt>
      <trkpt lat="42.90248" lon="2.22103">
        <ele>438</ele>
        <time>2025-10-18T09:58:38.000Z</time>
      </trkpt>
      <trkpt lat="42.9026" lon="2.2211">
        <ele>438.20001220703</ele>
        <time>2025-10-18T09:58:42.000Z</time>
      </trkpt>
      <trkpt lat="42.90278" lon="2.22117">
        <ele>437</ele>
        <time>2025-10-18T09:58:47.000Z</time>
      </trkpt>
      <trkpt lat="42.90288" lon="2.22118">
        <ele>436.39999389648</ele>
        <time>2025-10-18T09:58:50.000Z</time>
      </trkpt>
      <trkpt lat="42.90291" lon="2.2212">
        <ele>436.20001220703</ele>
        <time>2025-10-18T09:58:51.000Z</time>
      </trkpt>
      <trkpt lat="42.90305" lon="2.22129">
        <ele>434.60000610352</ele>
        <time>2025-10-18T09:58:55.000Z</time>
      </trkpt>
      <trkpt lat="42.9031" lon="2.2213">
        <ele>434.39999389648</ele>
        <time>2025-10-18T09:58:56.000Z</time>
      </trkpt>
      <trkpt lat="42.90315" lon="2.2213">
        <ele>434.20001220703</ele>
        <time>2025-10-18T09:58:57.000Z</time>
      </trkpt>
      <trkpt lat="42.90336" lon="2.22125">
        <ele>433.20001220703</ele>
        <time>2025-10-18T09:59:01.000Z</time>
      </trkpt>
      <trkpt lat="42.90384" lon="2.22109">
        <ele>429.60000610352</ele>
        <time>2025-10-18T09:59:10.000Z</time>
      </trkpt>
      <trkpt lat="42.90416" lon="2.22102">
        <ele>429</ele>
        <time>2025-10-18T09:59:17.000Z</time>
      </trkpt>
      <trkpt lat="42.90443" lon="2.22097">
        <ele>428.60000610352</ele>
        <time>2025-10-18T09:59:22.000Z</time>
      </trkpt>
      <trkpt lat="42.90478" lon="2.22091">
        <ele>426.60000610352</ele>
        <time>2025-10-18T09:59:28.000Z</time>
      </trkpt>
      <trkpt lat="42.90511" lon="2.22081">
        <ele>422</ele>
        <time>2025-10-18T09:59:35.000Z</time>
      </trkpt>
      <trkpt lat="42.90539" lon="2.22071">
        <ele>419.20001220703</ele>
        <time>2025-10-18T09:59:40.000Z</time>
      </trkpt>
      <trkpt lat="42.90542" lon="2.22066">
        <ele>419.20001220703</ele>
        <time>2025-10-18T09:59:41.000Z</time>
      </trkpt>
      <trkpt lat="42.90546" lon="2.22061">
        <ele>419.20001220703</ele>
        <time>2025-10-18T09:59:42.000Z</time>
      </trkpt>
      <trkpt lat="42.90549" lon="2.2205">
        <ele>419.60000610352</ele>
        <time>2025-10-18T09:59:44.000Z</time>
      </trkpt>
      <trkpt lat="42.90552" lon="2.22043">
        <ele>419.79998779297</ele>
        <time>2025-10-18T09:59:46.000Z</time>
      </trkpt>
      <trkpt lat="42.90555" lon="2.22041">
        <ele>420</ele>
        <time>2025-10-18T09:59:47.000Z</time>
      </trkpt>
      <trkpt lat="42.90558" lon="2.22039">
        <ele>420</ele>
        <time>2025-10-18T09:59:48.000Z</time>
      </trkpt>
      <trkpt lat="42.90572" lon="2.22037">
        <ele>419.79998779297</ele>
        <time>2025-10-18T09:59:51.000Z</time>
      </trkpt>
      <trkpt lat="42.90611" lon="2.22025">
        <ele>419.20001220703</ele>
        <time>2025-10-18T09:59:59.000Z</time>
      </trkpt>
      <trkpt lat="42.90615" lon="2.22024">
        <ele>419.20001220703</ele>
        <time>2025-10-18T10:00:00.000Z</time>
      </trkpt>
      <trkpt lat="42.90626" lon="2.22026">
        <ele>419</ele>
        <time>2025-10-18T10:00:03.000Z</time>
      </trkpt>
      <trkpt lat="42.90637" lon="2.22034">
        <ele>419</ele>
        <time>2025-10-18T10:00:08.000Z</time>
      </trkpt>
      <trkpt lat="42.9065" lon="2.22042">
        <ele>419.20001220703</ele>
        <time>2025-10-18T10:00:13.000Z</time>
      </trkpt>
      <trkpt lat="42.90675" lon="2.2206">
        <ele>421.79998779297</ele>
        <time>2025-10-18T10:00:22.000Z</time>
      </trkpt>
      <trkpt lat="42.9069" lon="2.22071">
        <ele>422.79998779297</ele>
        <time>2025-10-18T10:00:28.000Z</time>
      </trkpt>
      <trkpt lat="42.90707" lon="2.22082">
        <ele>423.79998779297</ele>
        <time>2025-10-18T10:00:35.000Z</time>
      </trkpt>
      <trkpt lat="42.90718" lon="2.22086">
        <ele>423.60000610352</ele>
        <time>2025-10-18T10:00:38.000Z</time>
      </trkpt>
      <trkpt lat="42.90727" lon="2.22088">
        <ele>423.60000610352</ele>
        <time>2025-10-18T10:00:40.000Z</time>
      </trkpt>
      <trkpt lat="42.90732" lon="2.2209">
        <ele>423.39999389648</ele>
        <time>2025-10-18T10:00:41.000Z</time>
      </trkpt>
      <trkpt lat="42.9075" lon="2.22103">
        <ele>423</ele>
        <time>2025-10-18T10:00:45.000Z</time>
      </trkpt>
      <trkpt lat="42.90762" lon="2.22112">
        <ele>422.60000610352</ele>
        <time>2025-10-18T10:00:49.000Z</time>
      </trkpt>
      <trkpt lat="42.90784" lon="2.22113">
        <ele>423.39999389648</ele>
        <time>2025-10-18T10:00:55.000Z</time>
      </trkpt>
      <trkpt lat="42.90803" lon="2.22111">
        <ele>423.79998779297</ele>
        <time>2025-10-18T10:01:01.000Z</time>
      </trkpt>
      <trkpt lat="42.9082" lon="2.2211">
        <ele>423.79998779297</ele>
        <time>2025-10-18T10:01:07.000Z</time>
      </trkpt>
      <trkpt lat="42.9084" lon="2.22118">
        <ele>424</ele>
        <time>2025-10-18T10:01:13.000Z</time>
      </trkpt>
      <trkpt lat="42.90856" lon="2.22124">
        <ele>424.79998779297</ele>
        <time>2025-10-18T10:01:18.000Z</time>
      </trkpt>
      <trkpt lat="42.90872" lon="2.22135">
        <ele>426</ele>
        <time>2025-10-18T10:01:24.000Z</time>
      </trkpt>
      <trkpt lat="42.90894" lon="2.22146">
        <ele>426.79998779297</ele>
        <time>2025-10-18T10:01:31.000Z</time>
      </trkpt>
      <trkpt lat="42.90912" lon="2.2215">
        <ele>428.20001220703</ele>
        <time>2025-10-18T10:01:37.000Z</time>
      </trkpt>
      <trkpt lat="42.90929" lon="2.22163">
        <ele>430</ele>
        <time>2025-10-18T10:01:43.000Z</time>
      </trkpt>
      <trkpt lat="42.90956" lon="2.22183">
        <ele>432</ele>
        <time>2025-10-18T10:01:53.000Z</time>
      </trkpt>
      <trkpt lat="42.90969" lon="2.22186">
        <ele>430.60000610352</ele>
        <time>2025-10-18T10:01:58.000Z</time>
      </trkpt>
      <trkpt lat="42.90977" lon="2.22181">
        <ele>429.60000610352</ele>
        <time>2025-10-18T10:02:03.000Z</time>
      </trkpt>
      <trkpt lat="42.90985" lon="2.22167">
        <ele>429.39999389648</ele>
        <time>2025-10-18T10:02:09.000Z</time>
      </trkpt>
      <trkpt lat="42.90989" lon="2.22146">
        <ele>429</ele>
        <time>2025-10-18T10:02:15.000Z</time>
      </trkpt>
      <trkpt lat="42.90995" lon="2.22116">
        <ele>431</ele>
        <time>2025-10-18T10:02:24.000Z</time>
      </trkpt>
      <trkpt lat="42.90998" lon="2.22095">
        <ele>433.79998779297</ele>
        <time>2025-10-18T10:02:31.000Z</time>
      </trkpt>
      <trkpt lat="42.90999" lon="2.22086">
        <ele>435</ele>
        <time>2025-10-18T10:02:34.000Z</time>
      </trkpt>
      <trkpt lat="42.91001" lon="2.22081">
        <ele>435.60000610352</ele>
        <time>2025-10-18T10:02:36.000Z</time>
      </trkpt>
      <trkpt lat="42.91006" lon="2.22056">
        <ele>436.79998779297</ele>
        <time>2025-10-18T10:02:44.000Z</time>
      </trkpt>
      <trkpt lat="42.91008" lon="2.22036">
        <ele>437.20001220703</ele>
        <time>2025-10-18T10:02:50.000Z</time>
      </trkpt>
      <trkpt lat="42.91013" lon="2.22019">
        <ele>437.79998779297</ele>
        <time>2025-10-18T10:02:56.000Z</time>
      </trkpt>
      <trkpt lat="42.91019" lon="2.21998">
        <ele>436.79998779297</ele>
        <time>2025-10-18T10:03:03.000Z</time>
      </trkpt>
      <trkpt lat="42.91027" lon="2.21978">
        <ele>437</ele>
        <time>2025-10-18T10:03:10.000Z</time>
      </trkpt>
      <trkpt lat="42.91038" lon="2.21957">
        <ele>439</ele>
        <time>2025-10-18T10:03:18.000Z</time>
      </trkpt>
      <trkpt lat="42.91051" lon="2.21932">
        <ele>440.20001220703</ele>
        <time>2025-10-18T10:03:27.000Z</time>
      </trkpt>
      <trkpt lat="42.91066" lon="2.21906">
        <ele>442.39999389648</ele>
        <time>2025-10-18T10:03:36.000Z</time>
      </trkpt>
      <trkpt lat="42.91081" lon="2.21881">
        <ele>443.39999389648</ele>
        <time>2025-10-18T10:03:43.000Z</time>
      </trkpt>
      <trkpt lat="42.91104" lon="2.21852">
        <ele>443</ele>
        <time>2025-10-18T10:03:52.000Z</time>
      </trkpt>
      <trkpt lat="42.91122" lon="2.21839">
        <ele>441.60000610352</ele>
        <time>2025-10-18T10:03:58.000Z</time>
      </trkpt>
      <trkpt lat="42.9114" lon="2.21823">
        <ele>440.79998779297</ele>
        <time>2025-10-18T10:04:04.000Z</time>
      </trkpt>
      <trkpt lat="42.91161" lon="2.21802">
        <ele>441.39999389648</ele>
        <time>2025-10-18T10:04:12.000Z</time>
      </trkpt>
      <trkpt lat="42.91181" lon="2.21784">
        <ele>441.60000610352</ele>
        <time>2025-10-18T10:04:19.000Z</time>
      </trkpt>
      <trkpt lat="42.91196" lon="2.21778">
        <ele>439.79998779297</ele>
        <time>2025-10-18T10:04:24.000Z</time>
      </trkpt>
      <trkpt lat="42.91213" lon="2.21774">
        <ele>437.20001220703</ele>
        <time>2025-10-18T10:04:30.000Z</time>
      </trkpt>
      <trkpt lat="42.91231" lon="2.21767">
        <ele>434.20001220703</ele>
        <time>2025-10-18T10:04:37.000Z</time>
      </trkpt>
      <trkpt lat="42.91236" lon="2.21766">
        <ele>433.60000610352</ele>
        <time>2025-10-18T10:04:41.000Z</time>
      </trkpt>
      <trkpt lat="42.91234" lon="2.21766">
        <ele>434</ele>
        <time>2025-10-18T10:07:38.000Z</time>
      </trkpt>
      <trkpt lat="42.9122" lon="2.21769">
        <ele>436.39999389648</ele>
        <time>2025-10-18T10:07:45.000Z</time>
      </trkpt>
      <trkpt lat="42.91216" lon="2.21771">
        <ele>437.20001220703</ele>
        <time>2025-10-18T10:07:48.000Z</time>
      </trkpt>
      <trkpt lat="42.91215" lon="2.21771">
        <ele>437.20001220703</ele>
        <time>2025-10-18T10:07:49.000Z</time>
      </trkpt>
      <trkpt lat="42.91213" lon="2.21771">
        <ele>437.60000610352</ele>
        <time>2025-10-18T10:08:11.000Z</time>
      </trkpt>
      <trkpt lat="42.91199" lon="2.2177">
        <ele>439.79998779297</ele>
        <time>2025-10-18T10:08:16.000Z</time>
      </trkpt>
      <trkpt lat="42.91179" lon="2.21766">
        <ele>442</ele>
        <time>2025-10-18T10:08:22.000Z</time>
      </trkpt>
      <trkpt lat="42.91163" lon="2.21762">
        <ele>443</ele>
        <time>2025-10-18T10:08:26.000Z</time>
      </trkpt>
      <trkpt lat="42.91155" lon="2.21757">
        <ele>443</ele>
        <time>2025-10-18T10:08:28.000Z</time>
      </trkpt>
      <trkpt lat="42.91123" lon="2.21733">
        <ele>440.39999389648</ele>
        <time>2025-10-18T10:08:36.000Z</time>
      </trkpt>
      <trkpt lat="42.91112" lon="2.21723">
        <ele>440.79998779297</ele>
        <time>2025-10-18T10:08:39.000Z</time>
      </trkpt>
      <trkpt lat="42.91101" lon="2.21716">
        <ele>442</ele>
        <time>2025-10-18T10:08:42.000Z</time>
      </trkpt>
      <trkpt lat="42.91074" lon="2.21707">
        <ele>443.79998779297</ele>
        <time>2025-10-18T10:08:49.000Z</time>
      </trkpt>
      <trkpt lat="42.91044" lon="2.2169">
        <ele>443.20001220703</ele>
        <time>2025-10-18T10:08:57.000Z</time>
      </trkpt>
      <trkpt lat="42.91018" lon="2.21678">
        <ele>442</ele>
        <time>2025-10-18T10:09:05.000Z</time>
      </trkpt>
      <trkpt lat="42.90994" lon="2.21665">
        <ele>442</ele>
        <time>2025-10-18T10:09:12.000Z</time>
      </trkpt>
      <trkpt lat="42.90977" lon="2.21657">
        <ele>442.20001220703</ele>
        <time>2025-10-18T10:09:18.000Z</time>
      </trkpt>
      <trkpt lat="42.90955" lon="2.21648">
        <ele>442.60000610352</ele>
        <time>2025-10-18T10:09:24.000Z</time>
      </trkpt>
      <trkpt lat="42.90939" lon="2.21641">
        <ele>441.79998779297</ele>
        <time>2025-10-18T10:09:27.000Z</time>
      </trkpt>
      <trkpt lat="42.90934" lon="2.21637">
        <ele>441.39999389648</ele>
        <time>2025-10-18T10:09:28.000Z</time>
      </trkpt>
      <trkpt lat="42.90913" lon="2.21622">
        <ele>441.20001220703</ele>
        <time>2025-10-18T10:09:33.000Z</time>
      </trkpt>
      <trkpt lat="42.9089" lon="2.21605">
        <ele>441.79998779297</ele>
        <time>2025-10-18T10:09:40.000Z</time>
      </trkpt>
      <trkpt lat="42.90877" lon="2.21579">
        <ele>441.79998779297</ele>
        <time>2025-10-18T10:09:47.000Z</time>
      </trkpt>
      <trkpt lat="42.9087" lon="2.21567">
        <ele>441.60000610352</ele>
        <time>2025-10-18T10:09:50.000Z</time>
      </trkpt>
      <trkpt lat="42.90862" lon="2.21561">
        <ele>441.20001220703</ele>
        <time>2025-10-18T10:09:52.000Z</time>
      </trkpt>
      <trkpt lat="42.90855" lon="2.21556">
        <ele>440.60000610352</ele>
        <time>2025-10-18T10:09:54.000Z</time>
      </trkpt>
      <trkpt lat="42.90846" lon="2.21553">
        <ele>440.39999389648</ele>
        <time>2025-10-18T10:09:56.000Z</time>
      </trkpt>
      <trkpt lat="42.90842" lon="2.21553">
        <ele>440.39999389648</ele>
        <time>2025-10-18T10:09:57.000Z</time>
      </trkpt>
      <trkpt lat="42.90834" lon="2.21558">
        <ele>440.39999389648</ele>
        <time>2025-10-18T10:09:59.000Z</time>
      </trkpt>
      <trkpt lat="42.90829" lon="2.21561">
        <ele>440.39999389648</ele>
        <time>2025-10-18T10:10:00.000Z</time>
      </trkpt>
      <trkpt lat="42.90821" lon="2.21569">
        <ele>440.60000610352</ele>
        <time>2025-10-18T10:10:02.000Z</time>
      </trkpt>
      <trkpt lat="42.90816" lon="2.21571">
        <ele>440.79998779297</ele>
        <time>2025-10-18T10:10:03.000Z</time>
      </trkpt>
      <trkpt lat="42.90794" lon="2.21583">
        <ele>440.39999389648</ele>
        <time>2025-10-18T10:10:09.000Z</time>
      </trkpt>
      <trkpt lat="42.90766" lon="2.21594">
        <ele>439.60000610352</ele>
        <time>2025-10-18T10:10:16.000Z</time>
      </trkpt>
      <trkpt lat="42.90762" lon="2.21595">
        <ele>439.39999389648</ele>
        <time>2025-10-18T10:10:17.000Z</time>
      </trkpt>
      <trkpt lat="42.90745" lon="2.21598">
        <ele>438.60000610352</ele>
        <time>2025-10-18T10:10:21.000Z</time>
      </trkpt>
      <trkpt lat="42.9074" lon="2.21599">
        <ele>438.39999389648</ele>
        <time>2025-10-18T10:10:22.000Z</time>
      </trkpt>
      <trkpt lat="42.90731" lon="2.21603">
        <ele>437.79998779297</ele>
        <time>2025-10-18T10:10:24.000Z</time>
      </trkpt>
      <trkpt lat="42.90726" lon="2.21603">
        <ele>437.39999389648</ele>
        <time>2025-10-18T10:10:25.000Z</time>
      </trkpt>
      <trkpt lat="42.90721" lon="2.21604">
        <ele>437</ele>
        <time>2025-10-18T10:10:26.000Z</time>
      </trkpt>
      <trkpt lat="42.90699" lon="2.21601">
        <ele>435.60000610352</ele>
        <time>2025-10-18T10:10:30.000Z</time>
      </trkpt>
      <trkpt lat="42.90679" lon="2.21599">
        <ele>434.39999389648</ele>
        <time>2025-10-18T10:10:35.000Z</time>
      </trkpt>
      <trkpt lat="42.90656" lon="2.21593">
        <ele>434.20001220703</ele>
        <time>2025-10-18T10:10:42.000Z</time>
      </trkpt>
      <trkpt lat="42.90638" lon="2.21585">
        <ele>435.39999389648</ele>
        <time>2025-10-18T10:10:48.000Z</time>
      </trkpt>
      <trkpt lat="42.9063" lon="2.21583">
        <ele>435.79998779297</ele>
        <time>2025-10-18T10:10:50.000Z</time>
      </trkpt>
      <trkpt lat="42.90621" lon="2.21587">
        <ele>435.39999389648</ele>
        <time>2025-10-18T10:10:52.000Z</time>
      </trkpt>
      <trkpt lat="42.90587" lon="2.21602">
        <ele>434.39999389648</ele>
        <time>2025-10-18T10:10:58.000Z</time>
      </trkpt>
      <trkpt lat="42.90567" lon="2.21613">
        <ele>434.60000610352</ele>
        <time>2025-10-18T10:11:02.000Z</time>
      </trkpt>
      <trkpt lat="42.90564" lon="2.21617">
        <ele>434.79998779297</ele>
        <time>2025-10-18T10:11:03.000Z</time>
      </trkpt>
      <trkpt lat="42.90561" lon="2.21621">
        <ele>435</ele>
        <time>2025-10-18T10:11:04.000Z</time>
      </trkpt>
      <trkpt lat="42.9055" lon="2.2164">
        <ele>435.39999389648</ele>
        <time>2025-10-18T10:11:08.000Z</time>
      </trkpt>
      <trkpt lat="42.90529" lon="2.21673">
        <ele>435</ele>
        <time>2025-10-18T10:11:15.000Z</time>
      </trkpt>
      <trkpt lat="42.90516" lon="2.21688">
        <ele>435.39999389648</ele>
        <time>2025-10-18T10:11:20.000Z</time>
      </trkpt>
      <trkpt lat="42.90511" lon="2.21691">
        <ele>435.60000610352</ele>
        <time>2025-10-18T10:11:22.000Z</time>
      </trkpt>
      <trkpt lat="42.90507" lon="2.21689">
        <ele>436.20001220703</ele>
        <time>2025-10-18T10:11:24.000Z</time>
      </trkpt>
      <trkpt lat="42.90507" lon="2.21679">
        <ele>437</ele>
        <time>2025-10-18T10:11:27.000Z</time>
      </trkpt>
      <trkpt lat="42.90507" lon="2.21639">
        <ele>439.39999389648</ele>
        <time>2025-10-18T10:11:35.000Z</time>
      </trkpt>
      <trkpt lat="42.90507" lon="2.21612">
        <ele>440.39999389648</ele>
        <time>2025-10-18T10:11:41.000Z</time>
      </trkpt>
      <trkpt lat="42.90505" lon="2.21572">
        <ele>442</ele>
        <time>2025-10-18T10:11:49.000Z</time>
      </trkpt>
      <trkpt lat="42.90502" lon="2.21541">
        <ele>442.60000610352</ele>
        <time>2025-10-18T10:11:55.000Z</time>
      </trkpt>
      <trkpt lat="42.905" lon="2.21505">
        <ele>444.20001220703</ele>
        <time>2025-10-18T10:12:02.000Z</time>
      </trkpt>
      <trkpt lat="42.90505" lon="2.21465">
        <ele>445.60000610352</ele>
        <time>2025-10-18T10:12:10.000Z</time>
      </trkpt>
      <trkpt lat="42.90515" lon="2.21422">
        <ele>448.39999389648</ele>
        <time>2025-10-18T10:12:19.000Z</time>
      </trkpt>
      <trkpt lat="42.90526" lon="2.21385">
        <ele>452.60000610352</ele>
        <time>2025-10-18T10:12:27.000Z</time>
      </trkpt>
      <trkpt lat="42.90535" lon="2.21364">
        <ele>454.20001220703</ele>
        <time>2025-10-18T10:12:32.000Z</time>
      </trkpt>
      <trkpt lat="42.90547" lon="2.2134">
        <ele>455</ele>
        <time>2025-10-18T10:12:39.000Z</time>
      </trkpt>
      <trkpt lat="42.90559" lon="2.21308">
        <ele>454.79998779297</ele>
        <time>2025-10-18T10:12:47.000Z</time>
      </trkpt>
      <trkpt lat="42.90566" lon="2.21268">
        <ele>456.20001220703</ele>
        <time>2025-10-18T10:12:55.000Z</time>
      </trkpt>
      <trkpt lat="42.90571" lon="2.21226">
        <ele>459</ele>
        <time>2025-10-18T10:13:03.000Z</time>
      </trkpt>
      <trkpt lat="42.9057" lon="2.21193">
        <ele>460.39999389648</ele>
        <time>2025-10-18T10:13:10.000Z</time>
      </trkpt>
      <trkpt lat="42.90559" lon="2.21163">
        <ele>461.20001220703</ele>
        <time>2025-10-18T10:13:17.000Z</time>
      </trkpt>
      <trkpt lat="42.9055" lon="2.2115">
        <ele>462.20001220703</ele>
        <time>2025-10-18T10:13:22.000Z</time>
      </trkpt>
      <trkpt lat="42.90533" lon="2.2115">
        <ele>464.39999389648</ele>
        <time>2025-10-18T10:13:28.000Z</time>
      </trkpt>
      <trkpt lat="42.90521" lon="2.21153">
        <ele>465.79998779297</ele>
        <time>2025-10-18T10:13:33.000Z</time>
      </trkpt>
      <trkpt lat="42.90507" lon="2.21155">
        <ele>467.20001220703</ele>
        <time>2025-10-18T10:13:39.000Z</time>
      </trkpt>
      <trkpt lat="42.90487" lon="2.21152">
        <ele>468.60000610352</ele>
        <time>2025-10-18T10:13:47.000Z</time>
      </trkpt>
      <trkpt lat="42.90465" lon="2.21149">
        <ele>469</ele>
        <time>2025-10-18T10:13:55.000Z</time>
      </trkpt>
      <trkpt lat="42.90444" lon="2.21146">
        <ele>470.39999389648</ele>
        <time>2025-10-18T10:14:03.000Z</time>
      </trkpt>
      <trkpt lat="42.90426" lon="2.21144">
        <ele>471.79998779297</ele>
        <time>2025-10-18T10:14:10.000Z</time>
      </trkpt>
      <trkpt lat="42.9041" lon="2.21144">
        <ele>474.79998779297</ele>
        <time>2025-10-18T10:14:16.000Z</time>
      </trkpt>
      <trkpt lat="42.9039" lon="2.21151">
        <ele>478.39999389648</ele>
        <time>2025-10-18T10:14:24.000Z</time>
      </trkpt>
      <trkpt lat="42.90378" lon="2.21158">
        <ele>479.39999389648</ele>
        <time>2025-10-18T10:14:30.000Z</time>
      </trkpt>
      <trkpt lat="42.90362" lon="2.21156">
        <ele>480.79998779297</ele>
        <time>2025-10-18T10:14:37.000Z</time>
      </trkpt>
      <trkpt lat="42.90345" lon="2.21149">
        <ele>482.20001220703</ele>
        <time>2025-10-18T10:14:44.000Z</time>
      </trkpt>
      <trkpt lat="42.9033" lon="2.21146">
        <ele>485.39999389648</ele>
        <time>2025-10-18T10:14:50.000Z</time>
      </trkpt>
      <trkpt lat="42.90327" lon="2.21141">
        <ele>486.39999389648</ele>
        <time>2025-10-18T10:14:52.000Z</time>
      </trkpt>
      <trkpt lat="42.90329" lon="2.21134">
        <ele>486.20001220703</ele>
        <time>2025-10-18T10:14:54.000Z</time>
      </trkpt>
      <trkpt lat="42.90338" lon="2.2113">
        <ele>484.39999389648</ele>
        <time>2025-10-18T10:14:58.000Z</time>
      </trkpt>
      <trkpt lat="42.90354" lon="2.21126">
        <ele>482.60000610352</ele>
        <time>2025-10-18T10:15:04.000Z</time>
      </trkpt>
      <trkpt lat="42.90362" lon="2.21112">
        <ele>482.39999389648</ele>
        <time>2025-10-18T10:15:09.000Z</time>
      </trkpt>
      <trkpt lat="42.90361" lon="2.21093">
        <ele>483.39999389648</ele>
        <time>2025-10-18T10:15:14.000Z</time>
      </trkpt>
      <trkpt lat="42.90352" lon="2.21075">
        <ele>486</ele>
        <time>2025-10-18T10:15:20.000Z</time>
      </trkpt>
      <trkpt lat="42.90343" lon="2.21066">
        <ele>488</ele>
        <time>2025-10-18T10:15:25.000Z</time>
      </trkpt>
      <trkpt lat="42.90328" lon="2.21059">
        <ele>490.60000610352</ele>
        <time>2025-10-18T10:15:32.000Z</time>
      </trkpt>
      <trkpt lat="42.90312" lon="2.21048">
        <ele>493.79998779297</ele>
        <time>2025-10-18T10:15:40.000Z</time>
      </trkpt>
      <trkpt lat="42.90306" lon="2.21034">
        <ele>495</ele>
        <time>2025-10-18T10:15:45.000Z</time>
      </trkpt>
      <trkpt lat="42.9031" lon="2.21018">
        <ele>495.20001220703</ele>
        <time>2025-10-18T10:15:50.000Z</time>
      </trkpt>
      <trkpt lat="42.90319" lon="2.21009">
        <ele>494.39999389648</ele>
        <time>2025-10-18T10:15:55.000Z</time>
      </trkpt>
      <trkpt lat="42.90333" lon="2.21005">
        <ele>493.20001220703</ele>
        <time>2025-10-18T10:16:01.000Z</time>
      </trkpt>
      <trkpt lat="42.90345" lon="2.20997">
        <ele>491.79998779297</ele>
        <time>2025-10-18T10:16:07.000Z</time>
      </trkpt>
      <trkpt lat="42.90342" lon="2.20987">
        <ele>492.79998779297</ele>
        <time>2025-10-18T10:16:10.000Z</time>
      </trkpt>
      <trkpt lat="42.90335" lon="2.20975">
        <ele>494.39999389648</ele>
        <time>2025-10-18T10:16:15.000Z</time>
      </trkpt>
      <trkpt lat="42.90326" lon="2.20955">
        <ele>496.39999389648</ele>
        <time>2025-10-18T10:16:22.000Z</time>
      </trkpt>
      <trkpt lat="42.90323" lon="2.2093">
        <ele>496.20001220703</ele>
        <time>2025-10-18T10:16:29.000Z</time>
      </trkpt>
      <trkpt lat="42.90314" lon="2.20918">
        <ele>496.79998779297</ele>
        <time>2025-10-18T10:16:34.000Z</time>
      </trkpt>
      <trkpt lat="42.90298" lon="2.20919">
        <ele>498.20001220703</ele>
        <time>2025-10-18T10:16:40.000Z</time>
      </trkpt>
      <trkpt lat="42.90285" lon="2.20931">
        <ele>502.39999389648</ele>
        <time>2025-10-18T10:16:46.000Z</time>
      </trkpt>
      <trkpt lat="42.90271" lon="2.20938">
        <ele>504.20001220703</ele>
        <time>2025-10-18T10:16:52.000Z</time>
      </trkpt>
      <trkpt lat="42.90257" lon="2.2093">
        <ele>505.20001220703</ele>
        <time>2025-10-18T10:16:58.000Z</time>
      </trkpt>
      <trkpt lat="42.90243" lon="2.20912">
        <ele>507</ele>
        <time>2025-10-18T10:17:06.000Z</time>
      </trkpt>
      <trkpt lat="42.90234" lon="2.20895">
        <ele>507</ele>
        <time>2025-10-18T10:17:13.000Z</time>
      </trkpt>
      <trkpt lat="42.90218" lon="2.20876">
        <ele>508.20001220703</ele>
        <time>2025-10-18T10:17:21.000Z</time>
      </trkpt>
      <trkpt lat="42.90205" lon="2.20868">
        <ele>510.20001220703</ele>
        <time>2025-10-18T10:17:27.000Z</time>
      </trkpt>
      <trkpt lat="42.90198" lon="2.20853">
        <ele>509.60000610352</ele>
        <time>2025-10-18T10:17:32.000Z</time>
      </trkpt>
      <trkpt lat="42.902" lon="2.20836">
        <ele>506.79998779297</ele>
        <time>2025-10-18T10:17:37.000Z</time>
      </trkpt>
      <trkpt lat="42.90199" lon="2.2082">
        <ele>505.20001220703</ele>
        <time>2025-10-18T10:17:42.000Z</time>
      </trkpt>
      <trkpt lat="42.90188" lon="2.20808">
        <ele>506</ele>
        <time>2025-10-18T10:17:47.000Z</time>
      </trkpt>
      <trkpt lat="42.90174" lon="2.208">
        <ele>508.39999389648</ele>
        <time>2025-10-18T10:17:53.000Z</time>
      </trkpt>
      <trkpt lat="42.90161" lon="2.2079">
        <ele>509.39999389648</ele>
        <time>2025-10-18T10:17:59.000Z</time>
      </trkpt>
      <trkpt lat="42.90146" lon="2.20782">
        <ele>511.39999389648</ele>
        <time>2025-10-18T10:18:05.000Z</time>
      </trkpt>
      <trkpt lat="42.90135" lon="2.20784">
        <ele>514.79998779297</ele>
        <time>2025-10-18T10:18:10.000Z</time>
      </trkpt>
      <trkpt lat="42.90124" lon="2.20778">
        <ele>516.79998779297</ele>
        <time>2025-10-18T10:18:15.000Z</time>
      </trkpt>
      <trkpt lat="42.90106" lon="2.20765">
        <ele>518.59997558594</ele>
        <time>2025-10-18T10:18:23.000Z</time>
      </trkpt>
      <trkpt lat="42.90096" lon="2.20751">
        <ele>518.20001220703</ele>
        <time>2025-10-18T10:18:29.000Z</time>
      </trkpt>
      <trkpt lat="42.90089" lon="2.20742">
        <ele>518</ele>
        <time>2025-10-18T10:18:34.000Z</time>
      </trkpt>
      <trkpt lat="42.90082" lon="2.20731">
        <ele>517.59997558594</ele>
        <time>2025-10-18T10:18:40.000Z</time>
      </trkpt>
      <trkpt lat="42.90072" lon="2.2072">
        <ele>518</ele>
        <time>2025-10-18T10:18:46.000Z</time>
      </trkpt>
      <trkpt lat="42.90061" lon="2.20715">
        <ele>519.59997558594</ele>
        <time>2025-10-18T10:18:52.000Z</time>
      </trkpt>
      <trkpt lat="42.9005" lon="2.20701">
        <ele>519.20001220703</ele>
        <time>2025-10-18T10:18:58.000Z</time>
      </trkpt>
      <trkpt lat="42.90037" lon="2.20681">
        <ele>518</ele>
        <time>2025-10-18T10:19:06.000Z</time>
      </trkpt>
      <trkpt lat="42.90025" lon="2.20668">
        <ele>517.40002441406</ele>
        <time>2025-10-18T10:19:12.000Z</time>
      </trkpt>
      <trkpt lat="42.90012" lon="2.20662">
        <ele>518.79998779297</ele>
        <time>2025-10-18T10:19:18.000Z</time>
      </trkpt>
      <trkpt lat="42.90002" lon="2.20659">
        <ele>519.79998779297</ele>
        <time>2025-10-18T10:19:22.000Z</time>
      </trkpt>
      <trkpt lat="42.89992" lon="2.20652">
        <ele>520.40002441406</ele>
        <time>2025-10-18T10:19:27.000Z</time>
      </trkpt>
      <trkpt lat="42.89975" lon="2.20646">
        <ele>522.20001220703</ele>
        <time>2025-10-18T10:19:34.000Z</time>
      </trkpt>
      <trkpt lat="42.89959" lon="2.20646">
        <ele>526</ele>
        <time>2025-10-18T10:19:41.000Z</time>
      </trkpt>
      <trkpt lat="42.89942" lon="2.20644">
        <ele>530.79998779297</ele>
        <time>2025-10-18T10:19:49.000Z</time>
      </trkpt>
      <trkpt lat="42.89931" lon="2.20645">
        <ele>534.20001220703</ele>
        <time>2025-10-18T10:19:54.000Z</time>
      </trkpt>
      <trkpt lat="42.8993" lon="2.20647">
        <ele>535.20001220703</ele>
        <time>2025-10-18T10:19:55.000Z</time>
      </trkpt>
      <trkpt lat="42.89931" lon="2.20656">
        <ele>537.40002441406</ele>
        <time>2025-10-18T10:19:58.000Z</time>
      </trkpt>
      <trkpt lat="42.89934" lon="2.20659">
        <ele>537.40002441406</ele>
        <time>2025-10-18T10:20:00.000Z</time>
      </trkpt>
      <trkpt lat="42.89946" lon="2.2066">
        <ele>534</ele>
        <time>2025-10-18T10:20:05.000Z</time>
      </trkpt>
      <trkpt lat="42.89966" lon="2.2066">
        <ele>528.79998779297</ele>
        <time>2025-10-18T10:20:12.000Z</time>
      </trkpt>
      <trkpt lat="42.89981" lon="2.20666">
        <ele>526.79998779297</ele>
        <time>2025-10-18T10:20:18.000Z</time>
      </trkpt>
      <trkpt lat="42.89992" lon="2.20679">
        <ele>528.20001220703</ele>
        <time>2025-10-18T10:20:24.000Z</time>
      </trkpt>
      <trkpt lat="42.90003" lon="2.20695">
        <ele>530.79998779297</ele>
        <time>2025-10-18T10:20:31.000Z</time>
      </trkpt>
      <trkpt lat="42.90013" lon="2.20712">
        <ele>533.59997558594</ele>
        <time>2025-10-18T10:20:38.000Z</time>
      </trkpt>
      <trkpt lat="42.90023" lon="2.20735">
        <ele>535.79998779297</ele>
        <time>2025-10-18T10:20:46.000Z</time>
      </trkpt>
      <trkpt lat="42.90024" lon="2.2074">
        <ele>536.40002441406</ele>
        <time>2025-10-18T10:20:48.000Z</time>
      </trkpt>
      <trkpt lat="42.90026" lon="2.20747">
        <ele>537.20001220703</ele>
        <time>2025-10-18T10:20:51.000Z</time>
      </trkpt>
      <trkpt lat="42.90034" lon="2.20766">
        <ele>537.79998779297</ele>
        <time>2025-10-18T10:20:58.000Z</time>
      </trkpt>
      <trkpt lat="42.90042" lon="2.20781">
        <ele>537.40002441406</ele>
        <time>2025-10-18T10:21:03.000Z</time>
      </trkpt>
      <trkpt lat="42.90054" lon="2.20794">
        <ele>536</ele>
        <time>2025-10-18T10:21:09.000Z</time>
      </trkpt>
      <trkpt lat="42.90063" lon="2.20808">
        <ele>535.20001220703</ele>
        <time>2025-10-18T10:21:15.000Z</time>
      </trkpt>
      <trkpt lat="42.90069" lon="2.2083">
        <ele>536</ele>
        <time>2025-10-18T10:21:21.000Z</time>
      </trkpt>
      <trkpt lat="42.9008" lon="2.20848">
        <ele>536</ele>
        <time>2025-10-18T10:21:28.000Z</time>
      </trkpt>
      <trkpt lat="42.90093" lon="2.20858">
        <ele>534.40002441406</ele>
        <time>2025-10-18T10:21:34.000Z</time>
      </trkpt>
      <trkpt lat="42.90107" lon="2.20865">
        <ele>533</ele>
        <time>2025-10-18T10:21:40.000Z</time>
      </trkpt>
      <trkpt lat="42.90118" lon="2.20874">
        <ele>532.79998779297</ele>
        <time>2025-10-18T10:21:46.000Z</time>
      </trkpt>
      <trkpt lat="42.90126" lon="2.20887">
        <ele>533.20001220703</ele>
        <time>2025-10-18T10:21:51.000Z</time>
      </trkpt>
      <trkpt lat="42.90132" lon="2.20911">
        <ele>535.40002441406</ele>
        <time>2025-10-18T10:21:57.000Z</time>
      </trkpt>
      <trkpt lat="42.90143" lon="2.20934">
        <ele>535</ele>
        <time>2025-10-18T10:22:04.000Z</time>
      </trkpt>
      <trkpt lat="42.90143" lon="2.20948">
        <ele>537.79998779297</ele>
        <time>2025-10-18T10:22:08.000Z</time>
      </trkpt>
      <trkpt lat="42.90142" lon="2.20971">
        <ele>541.59997558594</ele>
        <time>2025-10-18T10:22:14.000Z</time>
      </trkpt>
      <trkpt lat="42.90143" lon="2.20993">
        <ele>542.59997558594</ele>
        <time>2025-10-18T10:22:21.000Z</time>
      </trkpt>
      <trkpt lat="42.90149" lon="2.21007">
        <ele>540.40002441406</ele>
        <time>2025-10-18T10:22:26.000Z</time>
      </trkpt>
      <trkpt lat="42.90155" lon="2.21016">
        <ele>538.79998779297</ele>
        <time>2025-10-18T10:22:30.000Z</time>
      </trkpt>
      <trkpt lat="42.90156" lon="2.21022">
        <ele>538.59997558594</ele>
        <time>2025-10-18T10:22:32.000Z</time>
      </trkpt>
      <trkpt lat="42.90152" lon="2.21036">
        <ele>540.20001220703</ele>
        <time>2025-10-18T10:22:37.000Z</time>
      </trkpt>
      <trkpt lat="42.90144" lon="2.21053">
        <ele>542</ele>
        <time>2025-10-18T10:22:42.000Z</time>
      </trkpt>
      <trkpt lat="42.90139" lon="2.21068">
        <ele>542.59997558594</ele>
        <time>2025-10-18T10:22:47.000Z</time>
      </trkpt>
      <trkpt lat="42.90139" lon="2.21094">
        <ele>541.59997558594</ele>
        <time>2025-10-18T10:22:54.000Z</time>
      </trkpt>
      <trkpt lat="42.90143" lon="2.21111">
        <ele>540.20001220703</ele>
        <time>2025-10-18T10:22:59.000Z</time>
      </trkpt>
      <trkpt lat="42.90152" lon="2.21132">
        <ele>538.40002441406</ele>
        <time>2025-10-18T10:23:05.000Z</time>
      </trkpt>
      <trkpt lat="42.90156" lon="2.21147">
        <ele>537.20001220703</ele>
        <time>2025-10-18T10:23:10.000Z</time>
      </trkpt>
      <trkpt lat="42.90154" lon="2.21171">
        <ele>536.20001220703</ele>
        <time>2025-10-18T10:23:16.000Z</time>
      </trkpt>
      <trkpt lat="42.9015" lon="2.21192">
        <ele>535.79998779297</ele>
        <time>2025-10-18T10:23:21.000Z</time>
      </trkpt>
      <trkpt lat="42.90145" lon="2.2122">
        <ele>536</ele>
        <time>2025-10-18T10:23:28.000Z</time>
      </trkpt>
      <trkpt lat="42.90138" lon="2.21235">
        <ele>538.59997558594</ele>
        <time>2025-10-18T10:23:32.000Z</time>
      </trkpt>
      <trkpt lat="42.90126" lon="2.2125">
        <ele>540.59997558594</ele>
        <time>2025-10-18T10:23:37.000Z</time>
      </trkpt>
      <trkpt lat="42.90117" lon="2.21271">
        <ele>541.79998779297</ele>
        <time>2025-10-18T10:23:43.000Z</time>
      </trkpt>
      <trkpt lat="42.90113" lon="2.21292">
        <ele>542.40002441406</ele>
        <time>2025-10-18T10:23:49.000Z</time>
      </trkpt>
      <trkpt lat="42.90112" lon="2.2132">
        <ele>539.20001220703</ele>
        <time>2025-10-18T10:23:57.000Z</time>
      </trkpt>
      <trkpt lat="42.90107" lon="2.21333">
        <ele>539.20001220703</ele>
        <time>2025-10-18T10:24:02.000Z</time>
      </trkpt>
      <trkpt lat="42.90096" lon="2.21341">
        <ele>542.20001220703</ele>
        <time>2025-10-18T10:24:08.000Z</time>
      </trkpt>
      <trkpt lat="42.90085" lon="2.21348">
        <ele>543.59997558594</ele>
        <time>2025-10-18T10:24:13.000Z</time>
      </trkpt>
      <trkpt lat="42.90079" lon="2.21354">
        <ele>543.79998779297</ele>
        <time>2025-10-18T10:24:17.000Z</time>
      </trkpt>
      <trkpt lat="42.90077" lon="2.21354">
        <ele>544</ele>
        <time>2025-10-18T10:24:18.000Z</time>
      </trkpt>
      <trkpt lat="42.9006" lon="2.21362">
        <ele>546</ele>
        <time>2025-10-18T10:24:25.000Z</time>
      </trkpt>
      <trkpt lat="42.90049" lon="2.21363">
        <ele>547.40002441406</ele>
        <time>2025-10-18T10:24:30.000Z</time>
      </trkpt>
      <trkpt lat="42.90034" lon="2.21362">
        <ele>549.20001220703</ele>
        <time>2025-10-18T10:24:37.000Z</time>
      </trkpt>
      <trkpt lat="42.90024" lon="2.21366">
        <ele>550.20001220703</ele>
        <time>2025-10-18T10:24:42.000Z</time>
      </trkpt>
      <trkpt lat="42.90013" lon="2.21371">
        <ele>550.79998779297</ele>
        <time>2025-10-18T10:24:48.000Z</time>
      </trkpt>
      <trkpt lat="42.90003" lon="2.21364">
        <ele>553.79998779297</ele>
        <time>2025-10-18T10:24:53.000Z</time>
      </trkpt>
      <trkpt lat="42.89991" lon="2.21352">
        <ele>558</ele>
        <time>2025-10-18T10:25:00.000Z</time>
      </trkpt>
      <trkpt lat="42.89976" lon="2.21338">
        <ele>562.20001220703</ele>
        <time>2025-10-18T10:25:08.000Z</time>
      </trkpt>
      <trkpt lat="42.89962" lon="2.21331">
        <ele>565.40002441406</ele>
        <time>2025-10-18T10:25:15.000Z</time>
      </trkpt>
      <trkpt lat="42.89946" lon="2.21333">
        <ele>565</ele>
        <time>2025-10-18T10:25:23.000Z</time>
      </trkpt>
      <trkpt lat="42.89931" lon="2.21335">
        <ele>564.79998779297</ele>
        <time>2025-10-18T10:25:30.000Z</time>
      </trkpt>
      <trkpt lat="42.8991" lon="2.21329">
        <ele>564.40002441406</ele>
        <time>2025-10-18T10:25:40.000Z</time>
      </trkpt>
      <trkpt lat="42.89899" lon="2.21316">
        <ele>566.20001220703</ele>
        <time>2025-10-18T10:25:47.000Z</time>
      </trkpt>
      <trkpt lat="42.89895" lon="2.21297">
        <ele>570.40002441406</ele>
        <time>2025-10-18T10:25:54.000Z</time>
      </trkpt>
      <trkpt lat="42.89885" lon="2.21288">
        <ele>571.59997558594</ele>
        <time>2025-10-18T10:26:00.000Z</time>
      </trkpt>
      <trkpt lat="42.8987" lon="2.21281">
        <ele>571.59997558594</ele>
        <time>2025-10-18T10:26:07.000Z</time>
      </trkpt>
      <trkpt lat="42.89857" lon="2.21272">
        <ele>574.79998779297</ele>
        <time>2025-10-18T10:26:14.000Z</time>
      </trkpt>
      <trkpt lat="42.89843" lon="2.21267">
        <ele>576.79998779297</ele>
        <time>2025-10-18T10:26:21.000Z</time>
      </trkpt>
      <trkpt lat="42.89826" lon="2.21271">
        <ele>577.59997558594</ele>
        <time>2025-10-18T10:26:29.000Z</time>
      </trkpt>
      <trkpt lat="42.89812" lon="2.21275">
        <ele>578</ele>
        <time>2025-10-18T10:26:36.000Z</time>
      </trkpt>
      <trkpt lat="42.89796" lon="2.2128">
        <ele>578.59997558594</ele>
        <time>2025-10-18T10:26:43.000Z</time>
      </trkpt>
      <trkpt lat="42.89781" lon="2.21283">
        <ele>579.79998779297</ele>
        <time>2025-10-18T10:26:50.000Z</time>
      </trkpt>
      <trkpt lat="42.89767" lon="2.21283">
        <ele>581.59997558594</ele>
        <time>2025-10-18T10:26:57.000Z</time>
      </trkpt>
      <trkpt lat="42.89759" lon="2.21274">
        <ele>583</ele>
        <time>2025-10-18T10:27:02.000Z</time>
      </trkpt>
      <trkpt lat="42.8976" lon="2.21258">
        <ele>583.79998779297</ele>
        <time>2025-10-18T10:27:08.000Z</time>
      </trkpt>
      <trkpt lat="42.89764" lon="2.21243">
        <ele>584.79998779297</ele>
        <time>2025-10-18T10:27:14.000Z</time>
      </trkpt>
      <trkpt lat="42.89769" lon="2.21228">
        <ele>586</ele>
        <time>2025-10-18T10:27:20.000Z</time>
      </trkpt>
      <trkpt lat="42.89771" lon="2.21208">
        <ele>587.79998779297</ele>
        <time>2025-10-18T10:27:27.000Z</time>
      </trkpt>
      <trkpt lat="42.89772" lon="2.21189">
        <ele>589.59997558594</ele>
        <time>2025-10-18T10:27:34.000Z</time>
      </trkpt>
      <trkpt lat="42.89774" lon="2.21175">
        <ele>591.20001220703</ele>
        <time>2025-10-18T10:27:39.000Z</time>
      </trkpt>
      <trkpt lat="42.89774" lon="2.21172">
        <ele>591.40002441406</ele>
        <time>2025-10-18T10:27:40.000Z</time>
      </trkpt>
      <trkpt lat="42.89774" lon="2.21161">
        <ele>592.59997558594</ele>
        <time>2025-10-18T10:27:44.000Z</time>
      </trkpt>
      <trkpt lat="42.89773" lon="2.21146">
        <ele>593.79998779297</ele>
        <time>2025-10-18T10:27:50.000Z</time>
      </trkpt>
      <trkpt lat="42.89773" lon="2.21145">
        <ele>593.79998779297</ele>
        <time>2025-10-18T10:27:51.000Z</time>
      </trkpt>
      <trkpt lat="42.89772" lon="2.21134">
        <ele>594.59997558594</ele>
        <time>2025-10-18T10:27:55.000Z</time>
      </trkpt>
      <trkpt lat="42.8977" lon="2.21129">
        <ele>594.59997558594</ele>
        <time>2025-10-18T10:27:57.000Z</time>
      </trkpt>
      <trkpt lat="42.8977" lon="2.21126">
        <ele>594.40002441406</ele>
        <time>2025-10-18T10:27:59.000Z</time>
      </trkpt>
      <trkpt lat="42.89769" lon="2.21122">
        <ele>594.20001220703</ele>
        <time>2025-10-18T10:29:53.000Z</time>
      </trkpt>
      <trkpt lat="42.89767" lon="2.21106">
        <ele>593.59997558594</ele>
        <time>2025-10-18T10:29:57.000Z</time>
      </trkpt>
      <trkpt lat="42.89765" lon="2.21095">
        <ele>592.79998779297</ele>
        <time>2025-10-18T10:30:01.000Z</time>
      </trkpt>
      <trkpt lat="42.89765" lon="2.21095">
        <ele>592.79998779297</ele>
        <time>2025-10-18T10:30:02.000Z</time>
      </trkpt>
      <trkpt lat="42.89764" lon="2.2109">
        <ele>592.40002441406</ele>
        <time>2025-10-18T10:30:18.000Z</time>
      </trkpt>
      <trkpt lat="42.89764" lon="2.21083">
        <ele>591.79998779297</ele>
        <time>2025-10-18T10:30:20.000Z</time>
      </trkpt>
      <trkpt lat="42.89763" lon="2.21068">
        <ele>590.20001220703</ele>
        <time>2025-10-18T10:30:26.000Z</time>
      </trkpt>
      <trkpt lat="42.89767" lon="2.21052">
        <ele>588.20001220703</ele>
        <time>2025-10-18T10:30:31.000Z</time>
      </trkpt>
      <trkpt lat="42.89773" lon="2.21032">
        <ele>586</ele>
        <time>2025-10-18T10:30:36.000Z</time>
      </trkpt>
      <trkpt lat="42.89773" lon="2.21013">
        <ele>583.20001220703</ele>
        <time>2025-10-18T10:30:42.000Z</time>
      </trkpt>
      <trkpt lat="42.89764" lon="2.21">
        <ele>579.20001220703</ele>
        <time>2025-10-18T10:30:49.000Z</time>
      </trkpt>
      <trkpt lat="42.89764" lon="2.21">
        <ele>579.20001220703</ele>
        <time>2025-10-18T10:30:50.000Z</time>
      </trkpt>
      <trkpt lat="42.89763" lon="2.20997">
        <ele>578.40002441406</ele>
        <time>2025-10-18T10:31:01.000Z</time>
      </trkpt>
      <trkpt lat="42.89763" lon="2.20992">
        <ele>577.40002441406</ele>
        <time>2025-10-18T10:31:03.000Z</time>
      </trkpt>
      <trkpt lat="42.89763" lon="2.20983">
        <ele>576.20001220703</ele>
        <time>2025-10-18T10:31:07.000Z</time>
      </trkpt>
      <trkpt lat="42.89766" lon="2.2097">
        <ele>574.79998779297</ele>
        <time>2025-10-18T10:31:12.000Z</time>
      </trkpt>
      <trkpt lat="42.89767" lon="2.20963">
        <ele>574.59997558594</ele>
        <time>2025-10-18T10:31:15.000Z</time>
      </trkpt>
      <trkpt lat="42.89767" lon="2.20958">
        <ele>574</ele>
        <time>2025-10-18T10:31:17.000Z</time>
      </trkpt>
      <trkpt lat="42.89765" lon="2.20941">
        <ele>570.79998779297</ele>
        <time>2025-10-18T10:31:22.000Z</time>
      </trkpt>
      <trkpt lat="42.89765" lon="2.20921">
        <ele>568.40002441406</ele>
        <time>2025-10-18T10:31:27.000Z</time>
      </trkpt>
      <trkpt lat="42.89765" lon="2.20908">
        <ele>566.40002441406</ele>
        <time>2025-10-18T10:31:31.000Z</time>
      </trkpt>
      <trkpt lat="42.89764" lon="2.209">
        <ele>564.79998779297</ele>
        <time>2025-10-18T10:31:35.000Z</time>
      </trkpt>
      <trkpt lat="42.89764" lon="2.20894">
        <ele>564</ele>
        <time>2025-10-18T10:32:26.000Z</time>
      </trkpt>
      <trkpt lat="42.89763" lon="2.20887">
        <ele>562.40002441406</ele>
        <time>2025-10-18T10:32:28.000Z</time>
      </trkpt>
      <trkpt lat="42.89756" lon="2.20872">
        <ele>558.20001220703</ele>
        <time>2025-10-18T10:32:33.000Z</time>
      </trkpt>
      <trkpt lat="42.89755" lon="2.20855">
        <ele>556.59997558594</ele>
        <time>2025-10-18T10:32:38.000Z</time>
      </trkpt>
      <trkpt lat="42.89755" lon="2.20841">
        <ele>556.20001220703</ele>
        <time>2025-10-18T10:32:42.000Z</time>
      </trkpt>
      <trkpt lat="42.89751" lon="2.20825">
        <ele>553.79998779297</ele>
        <time>2025-10-18T10:32:47.000Z</time>
      </trkpt>
      <trkpt lat="42.8975" lon="2.20814">
        <ele>552.40002441406</ele>
        <time>2025-10-18T10:32:51.000Z</time>
      </trkpt>
      <trkpt lat="42.89749" lon="2.20812">
        <ele>551.79998779297</ele>
        <time>2025-10-18T10:32:53.000Z</time>
      </trkpt>
      <trkpt lat="42.89734" lon="2.20794">
        <ele>544.40002441406</ele>
        <time>2025-10-18T10:33:19.000Z</time>
      </trkpt>
      <trkpt lat="42.89733" lon="2.20791">
        <ele>543.59997558594</ele>
        <time>2025-10-18T10:33:20.000Z</time>
      </trkpt>
      <trkpt lat="42.89726" lon="2.20781">
        <ele>540.40002441406</ele>
        <time>2025-10-18T10:33:24.000Z</time>
      </trkpt>
      <trkpt lat="42.89715" lon="2.20769">
        <ele>535.59997558594</ele>
        <time>2025-10-18T10:33:30.000Z</time>
      </trkpt>
      <trkpt lat="42.89714" lon="2.20767">
        <ele>535.40002441406</ele>
        <time>2025-10-18T10:33:31.000Z</time>
      </trkpt>
      <trkpt lat="42.89714" lon="2.20766">
        <ele>535.20001220703</ele>
        <time>2025-10-18T10:33:32.000Z</time>
      </trkpt>
      <trkpt lat="42.89712" lon="2.20769">
        <ele>534.40002441406</ele>
        <time>2025-10-18T10:33:58.000Z</time>
      </trkpt>
      <trkpt lat="42.89711" lon="2.20772">
        <ele>534.40002441406</ele>
        <time>2025-10-18T10:33:59.000Z</time>
      </trkpt>
      <trkpt lat="42.89709" lon="2.20799">
        <ele>536.20001220703</ele>
        <time>2025-10-18T10:34:08.000Z</time>
      </trkpt>
      <trkpt lat="42.89705" lon="2.20825">
        <ele>537.59997558594</ele>
        <time>2025-10-18T10:34:16.000Z</time>
      </trkpt>
      <trkpt lat="42.89704" lon="2.20845">
        <ele>538.20001220703</ele>
        <time>2025-10-18T10:34:22.000Z</time>
      </trkpt>
      <trkpt lat="42.89701" lon="2.20877">
        <ele>538.59997558594</ele>
        <time>2025-10-18T10:34:29.000Z</time>
      </trkpt>
      <trkpt lat="42.89698" lon="2.20895">
        <ele>539.79998779297</ele>
        <time>2025-10-18T10:34:34.000Z</time>
      </trkpt>
      <trkpt lat="42.89686" lon="2.20916">
        <ele>540.79998779297</ele>
        <time>2025-10-18T10:34:42.000Z</time>
      </trkpt>
      <trkpt lat="42.89674" lon="2.20932">
        <ele>541.20001220703</ele>
        <time>2025-10-18T10:34:48.000Z</time>
      </trkpt>
      <trkpt lat="42.89671" lon="2.20936">
        <ele>541.59997558594</ele>
        <time>2025-10-18T10:34:49.000Z</time>
      </trkpt>
      <trkpt lat="42.8966" lon="2.20949">
        <ele>540</ele>
        <time>2025-10-18T10:34:52.000Z</time>
      </trkpt>
      <trkpt lat="42.8964" lon="2.20974">
        <ele>536</ele>
        <time>2025-10-18T10:34:57.000Z</time>
      </trkpt>
      <trkpt lat="42.89626" lon="2.20987">
        <ele>529.59997558594</ele>
        <time>2025-10-18T10:35:01.000Z</time>
      </trkpt>
      <trkpt lat="42.89619" lon="2.20999">
        <ele>526.79998779297</ele>
        <time>2025-10-18T10:35:06.000Z</time>
      </trkpt>
      <trkpt lat="42.89617" lon="2.2102">
        <ele>526.59997558594</ele>
        <time>2025-10-18T10:35:12.000Z</time>
      </trkpt>
      <trkpt lat="42.89614" lon="2.21036">
        <ele>523.40002441406</ele>
        <time>2025-10-18T10:35:17.000Z</time>
      </trkpt>
      <trkpt lat="42.89613" lon="2.21042">
        <ele>522.40002441406</ele>
        <time>2025-10-18T10:35:19.000Z</time>
      </trkpt>
      <trkpt lat="42.89612" lon="2.21047">
        <ele>521.40002441406</ele>
        <time>2025-10-18T10:35:20.000Z</time>
      </trkpt>
      <trkpt lat="42.89605" lon="2.2106">
        <ele>518.20001220703</ele>
        <time>2025-10-18T10:35:24.000Z</time>
      </trkpt>
      <trkpt lat="42.89595" lon="2.21076">
        <ele>512.59997558594</ele>
        <time>2025-10-18T10:35:30.000Z</time>
      </trkpt>
      <trkpt lat="42.89589" lon="2.21096">
        <ele>511.20001220703</ele>
        <time>2025-10-18T10:35:35.000Z</time>
      </trkpt>
      <trkpt lat="42.89584" lon="2.21118">
        <ele>507.79998779297</ele>
        <time>2025-10-18T10:35:39.000Z</time>
      </trkpt>
      <trkpt lat="42.89581" lon="2.21131">
        <ele>505.79998779297</ele>
        <time>2025-10-18T10:35:43.000Z</time>
      </trkpt>
      <trkpt lat="42.89577" lon="2.21148">
        <ele>503.79998779297</ele>
        <time>2025-10-18T10:35:48.000Z</time>
      </trkpt>
      <trkpt lat="42.89572" lon="2.21172">
        <ele>502.20001220703</ele>
        <time>2025-10-18T10:35:53.000Z</time>
      </trkpt>
      <trkpt lat="42.89569" lon="2.21198">
        <ele>500.20001220703</ele>
        <time>2025-10-18T10:35:58.000Z</time>
      </trkpt>
      <trkpt lat="42.89566" lon="2.21212">
        <ele>499</ele>
        <time>2025-10-18T10:36:01.000Z</time>
      </trkpt>
      <trkpt lat="42.8956" lon="2.21236">
        <ele>498.39999389648</ele>
        <time>2025-10-18T10:36:05.000Z</time>
      </trkpt>
      <trkpt lat="42.89554" lon="2.21252">
        <ele>497.60000610352</ele>
        <time>2025-10-18T10:36:08.000Z</time>
      </trkpt>
      <trkpt lat="42.89549" lon="2.21262">
        <ele>497.39999389648</ele>
        <time>2025-10-18T10:36:11.000Z</time>
      </trkpt>
      <trkpt lat="42.89539" lon="2.21276">
        <ele>494.20001220703</ele>
        <time>2025-10-18T10:36:16.000Z</time>
      </trkpt>
      <trkpt lat="42.89529" lon="2.21295">
        <ele>490.60000610352</ele>
        <time>2025-10-18T10:36:21.000Z</time>
      </trkpt>
      <trkpt lat="42.89524" lon="2.21313">
        <ele>488</ele>
        <time>2025-10-18T10:36:26.000Z</time>
      </trkpt>
      <trkpt lat="42.89521" lon="2.21331">
        <ele>486.20001220703</ele>
        <time>2025-10-18T10:36:31.000Z</time>
      </trkpt>
      <trkpt lat="42.89519" lon="2.21351">
        <ele>484.79998779297</ele>
        <time>2025-10-18T10:36:35.000Z</time>
      </trkpt>
      <trkpt lat="42.89517" lon="2.21373">
        <ele>484</ele>
        <time>2025-10-18T10:36:40.000Z</time>
      </trkpt>
      <trkpt lat="42.89517" lon="2.21382">
        <ele>483.39999389648</ele>
        <time>2025-10-18T10:36:42.000Z</time>
      </trkpt>
      <trkpt lat="42.89514" lon="2.2139">
        <ele>482</ele>
        <time>2025-10-18T10:36:44.000Z</time>
      </trkpt>
      <trkpt lat="42.89506" lon="2.21405">
        <ele>478.79998779297</ele>
        <time>2025-10-18T10:36:48.000Z</time>
      </trkpt>
      <trkpt lat="42.8949" lon="2.21437">
        <ele>471.79998779297</ele>
        <time>2025-10-18T10:36:55.000Z</time>
      </trkpt>
      <trkpt lat="42.89481" lon="2.21462">
        <ele>470</ele>
        <time>2025-10-18T10:37:00.000Z</time>
      </trkpt>
      <trkpt lat="42.8948" lon="2.21467">
        <ele>470.20001220703</ele>
        <time>2025-10-18T10:37:01.000Z</time>
      </trkpt>
      <trkpt lat="42.89471" lon="2.21491">
        <ele>471.39999389648</ele>
        <time>2025-10-18T10:37:06.000Z</time>
      </trkpt>
      <trkpt lat="42.89462" lon="2.21505">
        <ele>472.60000610352</ele>
        <time>2025-10-18T10:37:10.000Z</time>
      </trkpt>
      <trkpt lat="42.89458" lon="2.21508">
        <ele>472.60000610352</ele>
        <time>2025-10-18T10:37:11.000Z</time>
      </trkpt>
      <trkpt lat="42.8945" lon="2.21509">
        <ele>471.79998779297</ele>
        <time>2025-10-18T10:37:13.000Z</time>
      </trkpt>
      <trkpt lat="42.8943" lon="2.215">
        <ele>466.39999389648</ele>
        <time>2025-10-18T10:37:18.000Z</time>
      </trkpt>
      <trkpt lat="42.89412" lon="2.21492">
        <ele>459.39999389648</ele>
        <time>2025-10-18T10:37:23.000Z</time>
      </trkpt>
      <trkpt lat="42.89393" lon="2.2149">
        <ele>453</ele>
        <time>2025-10-18T10:37:28.000Z</time>
      </trkpt>
      <trkpt lat="42.89382" lon="2.21498">
        <ele>451.20001220703</ele>
        <time>2025-10-18T10:37:32.000Z</time>
      </trkpt>
      <trkpt lat="42.89373" lon="2.21513">
        <ele>451.39999389648</ele>
        <time>2025-10-18T10:37:37.000Z</time>
      </trkpt>
      <trkpt lat="42.89373" lon="2.21513">
        <ele>451.39999389648</ele>
        <time>2025-10-18T10:37:38.000Z</time>
      </trkpt>
      <trkpt lat="42.89371" lon="2.21517">
        <ele>451.79998779297</ele>
        <time>2025-10-18T10:38:06.000Z</time>
      </trkpt>
      <trkpt lat="42.89369" lon="2.21521">
        <ele>452</ele>
        <time>2025-10-18T10:38:07.000Z</time>
      </trkpt>
      <trkpt lat="42.89358" lon="2.21552">
        <ele>451.60000610352</ele>
        <time>2025-10-18T10:38:14.000Z</time>
      </trkpt>
      <trkpt lat="42.89344" lon="2.21582">
        <ele>446.79998779297</ele>
        <time>2025-10-18T10:38:21.000Z</time>
      </trkpt>
      <trkpt lat="42.89331" lon="2.21607">
        <ele>441.60000610352</ele>
        <time>2025-10-18T10:38:27.000Z</time>
      </trkpt>
      <trkpt lat="42.89322" lon="2.21633">
        <ele>437.60000610352</ele>
        <time>2025-10-18T10:38:33.000Z</time>
      </trkpt>
      <trkpt lat="42.89312" lon="2.21658">
        <ele>434.39999389648</ele>
        <time>2025-10-18T10:38:39.000Z</time>
      </trkpt>
      <trkpt lat="42.89298" lon="2.21686">
        <ele>430</ele>
        <time>2025-10-18T10:38:45.000Z</time>
      </trkpt>
      <trkpt lat="42.89283" lon="2.21711">
        <ele>424.79998779297</ele>
        <time>2025-10-18T10:38:51.000Z</time>
      </trkpt>
      <trkpt lat="42.8928" lon="2.21715">
        <ele>424.20001220703</ele>
        <time>2025-10-18T10:38:52.000Z</time>
      </trkpt>
      <trkpt lat="42.89273" lon="2.21733">
        <ele>422</ele>
        <time>2025-10-18T10:38:56.000Z</time>
      </trkpt>
      <trkpt lat="42.89266" lon="2.21753">
        <ele>419</ele>
        <time>2025-10-18T10:39:01.000Z</time>
      </trkpt>
      <trkpt lat="42.89261" lon="2.21768">
        <ele>416.20001220703</ele>
        <time>2025-10-18T10:39:06.000Z</time>
      </trkpt>
      <trkpt lat="42.89247" lon="2.21783">
        <ele>411.39999389648</ele>
        <time>2025-10-18T10:39:12.000Z</time>
      </trkpt>
      <trkpt lat="42.89237" lon="2.21797">
        <ele>407.79998779297</ele>
        <time>2025-10-18T10:39:17.000Z</time>
      </trkpt>
      <trkpt lat="42.89234" lon="2.21815">
        <ele>405.20001220703</ele>
        <time>2025-10-18T10:39:22.000Z</time>
      </trkpt>
      <trkpt lat="42.89236" lon="2.21836">
        <ele>402.20001220703</ele>
        <time>2025-10-18T10:39:27.000Z</time>
      </trkpt>
      <trkpt lat="42.89243" lon="2.21849">
        <ele>400</ele>
        <time>2025-10-18T10:39:31.000Z</time>
      </trkpt>
      <trkpt lat="42.89262" lon="2.21875">
        <ele>397.39999389648</ele>
        <time>2025-10-18T10:39:38.000Z</time>
      </trkpt>
      <trkpt lat="42.89264" lon="2.21886">
        <ele>396.60000610352</ele>
        <time>2025-10-18T10:39:41.000Z</time>
      </trkpt>
      <trkpt lat="42.89263" lon="2.21893">
        <ele>395.79998779297</ele>
        <time>2025-10-18T10:39:44.000Z</time>
      </trkpt>
      <trkpt lat="42.89263" lon="2.21896">
        <ele>395.60000610352</ele>
        <time>2025-10-18T10:39:45.000Z</time>
      </trkpt>
      <trkpt lat="42.89265" lon="2.21897">
        <ele>396</ele>
        <time>2025-10-18T10:39:46.000Z</time>
      </trkpt>
      <trkpt lat="42.89272" lon="2.21903">
        <ele>397.60000610352</ele>
        <time>2025-10-18T10:39:50.000Z</time>
      </trkpt>
      <trkpt lat="42.89288" lon="2.21923">
        <ele>400.79998779297</ele>
        <time>2025-10-18T10:39:57.000Z</time>
      </trkpt>
      <trkpt lat="42.89298" lon="2.21943">
        <ele>402.79998779297</ele>
        <time>2025-10-18T10:40:02.000Z</time>
      </trkpt>
      <trkpt lat="42.89301" lon="2.21953">
        <ele>403</ele>
        <time>2025-10-18T10:40:04.000Z</time>
      </trkpt>
      <trkpt lat="42.89302" lon="2.21976">
        <ele>403.60000610352</ele>
        <time>2025-10-18T10:40:08.000Z</time>
      </trkpt>
      <trkpt lat="42.89293" lon="2.22005">
        <ele>402.79998779297</ele>
        <time>2025-10-18T10:40:14.000Z</time>
      </trkpt>
      <trkpt lat="42.89283" lon="2.22046">
        <ele>406.20001220703</ele>
        <time>2025-10-18T10:40:22.000Z</time>
      </trkpt>
      <trkpt lat="42.89272" lon="2.22092">
        <ele>407.79998779297</ele>
        <time>2025-10-18T10:40:31.000Z</time>
      </trkpt>
      <trkpt lat="42.89264" lon="2.2214">
        <ele>410.39999389648</ele>
        <time>2025-10-18T10:40:40.000Z</time>
      </trkpt>
      <trkpt lat="42.89264" lon="2.22163">
        <ele>411.79998779297</ele>
        <time>2025-10-18T10:40:44.000Z</time>
      </trkpt>
      <trkpt lat="42.89268" lon="2.22184">
        <ele>414.60000610352</ele>
        <time>2025-10-18T10:40:48.000Z</time>
      </trkpt>
      <trkpt lat="42.89278" lon="2.22224">
        <ele>418.60000610352</ele>
        <time>2025-10-18T10:40:56.000Z</time>
      </trkpt>
      <trkpt lat="42.89291" lon="2.22265">
        <ele>422</ele>
        <time>2025-10-18T10:41:04.000Z</time>
      </trkpt>
      <trkpt lat="42.89298" lon="2.22293">
        <ele>423.20001220703</ele>
        <time>2025-10-18T10:41:10.000Z</time>
      </trkpt>
      <trkpt lat="42.89305" lon="2.22322">
        <ele>425.60000610352</ele>
        <time>2025-10-18T10:41:16.000Z</time>
      </trkpt>
      <trkpt lat="42.89306" lon="2.22341">
        <ele>427</ele>
        <time>2025-10-18T10:41:20.000Z</time>
      </trkpt>
      <trkpt lat="42.89301" lon="2.22358">
        <ele>428.60000610352</ele>
        <time>2025-10-18T10:41:25.000Z</time>
      </trkpt>
      <trkpt lat="42.89295" lon="2.22371">
        <ele>429.79998779297</ele>
        <time>2025-10-18T10:41:30.000Z</time>
      </trkpt>
      <trkpt lat="42.89277" lon="2.22389">
        <ele>432.20001220703</ele>
        <time>2025-10-18T10:41:38.000Z</time>
      </trkpt>
      <trkpt lat="42.89272" lon="2.22389">
        <ele>432.79998779297</ele>
        <time>2025-10-18T10:41:40.000Z</time>
      </trkpt>
      <trkpt lat="42.89266" lon="2.22385">
        <ele>433.39999389648</ele>
        <time>2025-10-18T10:41:42.000Z</time>
      </trkpt>
      <trkpt lat="42.89249" lon="2.22373">
        <ele>435</ele>
        <time>2025-10-18T10:41:48.000Z</time>
      </trkpt>
      <trkpt lat="42.89235" lon="2.22364">
        <ele>436.20001220703</ele>
        <time>2025-10-18T10:41:53.000Z</time>
      </trkpt>
      <trkpt lat="42.89222" lon="2.2236">
        <ele>436.79998779297</ele>
        <time>2025-10-18T10:41:58.000Z</time>
      </trkpt>
      <trkpt lat="42.89204" lon="2.22358">
        <ele>437.79998779297</ele>
        <time>2025-10-18T10:42:04.000Z</time>
      </trkpt>
      <trkpt lat="42.89189" lon="2.22356">
        <ele>435.79998779297</ele>
        <time>2025-10-18T10:42:09.000Z</time>
      </trkpt>
      <trkpt lat="42.89176" lon="2.22363">
        <ele>435.20001220703</ele>
        <time>2025-10-18T10:42:14.000Z</time>
      </trkpt>
      <trkpt lat="42.89167" lon="2.22378">
        <ele>436.20001220703</ele>
        <time>2025-10-18T10:42:19.000Z</time>
      </trkpt>
      <trkpt lat="42.89164" lon="2.22384">
        <ele>436.20001220703</ele>
        <time>2025-10-18T10:42:21.000Z</time>
      </trkpt>
      <trkpt lat="42.89163" lon="2.22386">
        <ele>436.60000610352</ele>
        <time>2025-10-18T10:42:22.000Z</time>
      </trkpt>
      <trkpt lat="42.89159" lon="2.22401">
        <ele>436.20001220703</ele>
        <time>2025-10-18T10:42:27.000Z</time>
      </trkpt>
      <trkpt lat="42.89159" lon="2.22405">
        <ele>436</ele>
        <time>2025-10-18T10:42:28.000Z</time>
      </trkpt>
      <trkpt lat="42.8916" lon="2.22426">
        <ele>436.20001220703</ele>
        <time>2025-10-18T10:42:34.000Z</time>
      </trkpt>
      <trkpt lat="42.89163" lon="2.22454">
        <ele>436.39999389648</ele>
        <time>2025-10-18T10:42:42.000Z</time>
      </trkpt>
      <trkpt lat="42.89161" lon="2.22477">
        <ele>436.20001220703</ele>
        <time>2025-10-18T10:42:48.000Z</time>
      </trkpt>
      <trkpt lat="42.89162" lon="2.225">
        <ele>436.79998779297</ele>
        <time>2025-10-18T10:42:54.000Z</time>
      </trkpt>
      <trkpt lat="42.89165" lon="2.22514">
        <ele>437.39999389648</ele>
        <time>2025-10-18T10:42:59.000Z</time>
      </trkpt>
      <trkpt lat="42.89165" lon="2.22514">
        <ele>437.39999389648</ele>
        <time>2025-10-18T10:43:00.000Z</time>
      </trkpt>
      <trkpt lat="42.89165" lon="2.22518">
        <ele>437.60000610352</ele>
        <time>2025-10-18T10:43:12.000Z</time>
      </trkpt>
      <trkpt lat="42.89165" lon="2.22521">
        <ele>437.60000610352</ele>
        <time>2025-10-18T10:43:13.000Z</time>
      </trkpt>
      <trkpt lat="42.89161" lon="2.22543">
        <ele>437.20001220703</ele>
        <time>2025-10-18T10:43:18.000Z</time>
      </trkpt>
      <trkpt lat="42.89146" lon="2.22574">
        <ele>438.20001220703</ele>
        <time>2025-10-18T10:43:25.000Z</time>
      </trkpt>
      <trkpt lat="42.89124" lon="2.22607">
        <ele>436.60000610352</ele>
        <time>2025-10-18T10:43:33.000Z</time>
      </trkpt>
      <trkpt lat="42.8911" lon="2.22628">
        <ele>438</ele>
        <time>2025-10-18T10:43:38.000Z</time>
      </trkpt>
      <trkpt lat="42.89104" lon="2.22633">
        <ele>438.60000610352</ele>
        <time>2025-10-18T10:43:40.000Z</time>
      </trkpt>
      <trkpt lat="42.89099" lon="2.22634">
        <ele>438.39999389648</ele>
        <time>2025-10-18T10:43:41.000Z</time>
      </trkpt>
      <trkpt lat="42.89084" lon="2.22636">
        <ele>438.20001220703</ele>
        <time>2025-10-18T10:43:44.000Z</time>
      </trkpt>
      <trkpt lat="42.89079" lon="2.22635">
        <ele>437.79998779297</ele>
        <time>2025-10-18T10:43:45.000Z</time>
      </trkpt>
      <trkpt lat="42.89054" lon="2.22627">
        <ele>433.20001220703</ele>
        <time>2025-10-18T10:43:49.000Z</time>
      </trkpt>
      <trkpt lat="42.89025" lon="2.22631">
        <ele>430</ele>
        <time>2025-10-18T10:43:53.000Z</time>
      </trkpt>
      <trkpt lat="42.89019" lon="2.22632">
        <ele>429.39999389648</ele>
        <time>2025-10-18T10:43:54.000Z</time>
      </trkpt>
      <trkpt lat="42.88998" lon="2.22635">
        <ele>427</ele>
        <time>2025-10-18T10:43:57.000Z</time>
      </trkpt>
      <trkpt lat="42.88964" lon="2.22637">
        <ele>423.79998779297</ele>
        <time>2025-10-18T10:44:02.000Z</time>
      </trkpt>
      <trkpt lat="42.88941" lon="2.22642">
        <ele>423.60000610352</ele>
        <time>2025-10-18T10:44:06.000Z</time>
      </trkpt>
      <trkpt lat="42.88933" lon="2.22635">
        <ele>421.39999389648</ele>
        <time>2025-10-18T10:44:08.000Z</time>
      </trkpt>
      <trkpt lat="42.88929" lon="2.2263">
        <ele>420</ele>
        <time>2025-10-18T10:44:09.000Z</time>
      </trkpt>
      <trkpt lat="42.88925" lon="2.22625">
        <ele>419</ele>
        <time>2025-10-18T10:44:10.000Z</time>
      </trkpt>
      <trkpt lat="42.88911" lon="2.22616">
        <ele>416.60000610352</ele>
        <time>2025-10-18T10:44:13.000Z</time>
      </trkpt>
      <trkpt lat="42.88907" lon="2.22614">
        <ele>416.20001220703</ele>
        <time>2025-10-18T10:44:14.000Z</time>
      </trkpt>
      <trkpt lat="42.88897" lon="2.22612">
        <ele>415.20001220703</ele>
        <time>2025-10-18T10:44:16.000Z</time>
      </trkpt>
      <trkpt lat="42.88892" lon="2.2261">
        <ele>414.20001220703</ele>
        <time>2025-10-18T10:44:17.000Z</time>
      </trkpt>
      <trkpt lat="42.88888" lon="2.22608">
        <ele>413.39999389648</ele>
        <time>2025-10-18T10:44:18.000Z</time>
      </trkpt>
      <trkpt lat="42.88877" lon="2.22608">
        <ele>412.39999389648</ele>
        <time>2025-10-18T10:44:21.000Z</time>
      </trkpt>
      <trkpt lat="42.8886" lon="2.22616">
        <ele>409.79998779297</ele>
        <time>2025-10-18T10:44:26.000Z</time>
      </trkpt>
      <trkpt lat="42.88841" lon="2.22626">
        <ele>407.20001220703</ele>
        <time>2025-10-18T10:44:30.000Z</time>
      </trkpt>
      <trkpt lat="42.88833" lon="2.22631">
        <ele>406</ele>
        <time>2025-10-18T10:44:32.000Z</time>
      </trkpt>
      <trkpt lat="42.88825" lon="2.22635">
        <ele>404.79998779297</ele>
        <time>2025-10-18T10:44:34.000Z</time>
      </trkpt>
      <trkpt lat="42.88822" lon="2.22639">
        <ele>404.39999389648</ele>
        <time>2025-10-18T10:44:35.000Z</time>
      </trkpt>
      <trkpt lat="42.88813" lon="2.2265">
        <ele>403.79998779297</ele>
        <time>2025-10-18T10:44:38.000Z</time>
      </trkpt>
      <trkpt lat="42.8881" lon="2.22654">
        <ele>403.60000610352</ele>
        <time>2025-10-18T10:44:39.000Z</time>
      </trkpt>
      <trkpt lat="42.88798" lon="2.2268">
        <ele>403.20001220703</ele>
        <time>2025-10-18T10:44:44.000Z</time>
      </trkpt>
      <trkpt lat="42.88791" lon="2.22705">
        <ele>404.60000610352</ele>
        <time>2025-10-18T10:44:48.000Z</time>
      </trkpt>
      <trkpt lat="42.88788" lon="2.22715">
        <ele>405</ele>
        <time>2025-10-18T10:44:49.000Z</time>
      </trkpt>
      <trkpt lat="42.88777" lon="2.22722">
        <ele>404</ele>
        <time>2025-10-18T10:44:53.000Z</time>
      </trkpt>
      <trkpt lat="42.88766" lon="2.2272">
        <ele>401.20001220703</ele>
        <time>2025-10-18T10:44:56.000Z</time>
      </trkpt>
      <trkpt lat="42.88756" lon="2.2272">
        <ele>399.39999389648</ele>
        <time>2025-10-18T10:44:58.000Z</time>
      </trkpt>
      <trkpt lat="42.88723" lon="2.22726">
        <ele>395.39999389648</ele>
        <time>2025-10-18T10:45:05.000Z</time>
      </trkpt>
      <trkpt lat="42.88711" lon="2.2273">
        <ele>394.20001220703</ele>
        <time>2025-10-18T10:45:08.000Z</time>
      </trkpt>
      <trkpt lat="42.88702" lon="2.22735">
        <ele>393.20001220703</ele>
        <time>2025-10-18T10:45:10.000Z</time>
      </trkpt>
      <trkpt lat="42.88682" lon="2.22747">
        <ele>390.39999389648</ele>
        <time>2025-10-18T10:45:15.000Z</time>
      </trkpt>
      <trkpt lat="42.88661" lon="2.22764">
        <ele>385</ele>
        <time>2025-10-18T10:45:20.000Z</time>
      </trkpt>
      <trkpt lat="42.8865" lon="2.22779">
        <ele>382</ele>
        <time>2025-10-18T10:45:24.000Z</time>
      </trkpt>
      <trkpt lat="42.88638" lon="2.22806">
        <ele>379.20001220703</ele>
        <time>2025-10-18T10:45:30.000Z</time>
      </trkpt>
      <trkpt lat="42.88634" lon="2.22818">
        <ele>378.20001220703</ele>
        <time>2025-10-18T10:45:32.000Z</time>
      </trkpt>
      <trkpt lat="42.88629" lon="2.22838">
        <ele>377.20001220703</ele>
        <time>2025-10-18T10:45:35.000Z</time>
      </trkpt>
      <trkpt lat="42.88628" lon="2.22845">
        <ele>377.60000610352</ele>
        <time>2025-10-18T10:45:36.000Z</time>
      </trkpt>
      <trkpt lat="42.88626" lon="2.22858">
        <ele>378.60000610352</ele>
        <time>2025-10-18T10:45:38.000Z</time>
      </trkpt>
      <trkpt lat="42.88626" lon="2.22872">
        <ele>382.79998779297</ele>
        <time>2025-10-18T10:45:40.000Z</time>
      </trkpt>
      <trkpt lat="42.88628" lon="2.22885">
        <ele>387</ele>
        <time>2025-10-18T10:45:42.000Z</time>
      </trkpt>
      <trkpt lat="42.88626" lon="2.2289">
        <ele>387.79998779297</ele>
        <time>2025-10-18T10:45:43.000Z</time>
      </trkpt>
      <trkpt lat="42.88623" lon="2.22892">
        <ele>387.79998779297</ele>
        <time>2025-10-18T10:45:44.000Z</time>
      </trkpt>
      <trkpt lat="42.88616" lon="2.22893">
        <ele>386.20001220703</ele>
        <time>2025-10-18T10:45:46.000Z</time>
      </trkpt>
      <trkpt lat="42.88604" lon="2.22893">
        <ele>383.39999389648</ele>
        <time>2025-10-18T10:45:50.000Z</time>
      </trkpt>
      <trkpt lat="42.8859" lon="2.22898">
        <ele>380.60000610352</ele>
        <time>2025-10-18T10:45:55.000Z</time>
      </trkpt>
      <trkpt lat="42.88576" lon="2.22913">
        <ele>380</ele>
        <time>2025-10-18T10:46:02.000Z</time>
      </trkpt>
      <trkpt lat="42.88565" lon="2.22923">
        <ele>379</ele>
        <time>2025-10-18T10:46:06.000Z</time>
      </trkpt>
      <trkpt lat="42.8856" lon="2.22925">
        <ele>378.39999389648</ele>
        <time>2025-10-18T10:46:07.000Z</time>
      </trkpt>
      <trkpt lat="42.88556" lon="2.22928">
        <ele>377.79998779297</ele>
        <time>2025-10-18T10:46:08.000Z</time>
      </trkpt>
      <trkpt lat="42.88543" lon="2.22933">
        <ele>375.20001220703</ele>
        <time>2025-10-18T10:46:11.000Z</time>
      </trkpt>
      <trkpt lat="42.88527" lon="2.22933">
        <ele>371</ele>
        <time>2025-10-18T10:46:15.000Z</time>
      </trkpt>
      <trkpt lat="42.88502" lon="2.2293">
        <ele>364.20001220703</ele>
        <time>2025-10-18T10:46:20.000Z</time>
      </trkpt>
      <trkpt lat="42.88482" lon="2.22931">
        <ele>360.20001220703</ele>
        <time>2025-10-18T10:46:25.000Z</time>
      </trkpt>
      <trkpt lat="42.88463" lon="2.22932">
        <ele>355.20001220703</ele>
        <time>2025-10-18T10:46:29.000Z</time>
      </trkpt>
      <trkpt lat="42.88455" lon="2.22935">
        <ele>353.60000610352</ele>
        <time>2025-10-18T10:46:31.000Z</time>
      </trkpt>
      <trkpt lat="42.88453" lon="2.22949">
        <ele>354.39999389648</ele>
        <time>2025-10-18T10:46:34.000Z</time>
      </trkpt>
      <trkpt lat="42.88458" lon="2.2298">
        <ele>358.20001220703</ele>
        <time>2025-10-18T10:46:40.000Z</time>
      </trkpt>
      <trkpt lat="42.88459" lon="2.23004">
        <ele>358.60000610352</ele>
        <time>2025-10-18T10:46:44.000Z</time>
      </trkpt>
      <trkpt lat="42.88458" lon="2.2301">
        <ele>358</ele>
        <time>2025-10-18T10:46:45.000Z</time>
      </trkpt>
      <trkpt lat="42.88456" lon="2.23023">
        <ele>356.20001220703</ele>
        <time>2025-10-18T10:46:47.000Z</time>
      </trkpt>
      <trkpt lat="42.88455" lon="2.23045">
        <ele>355.20001220703</ele>
        <time>2025-10-18T10:46:50.000Z</time>
      </trkpt>
      <trkpt lat="42.88455" lon="2.23052">
        <ele>355.60000610352</ele>
        <time>2025-10-18T10:46:51.000Z</time>
      </trkpt>
      <trkpt lat="42.88451" lon="2.23065">
        <ele>356.60000610352</ele>
        <time>2025-10-18T10:46:53.000Z</time>
      </trkpt>
      <trkpt lat="42.88437" lon="2.23082">
        <ele>354.60000610352</ele>
        <time>2025-10-18T10:46:57.000Z</time>
      </trkpt>
      <trkpt lat="42.8843" lon="2.23091">
        <ele>353.39999389648</ele>
        <time>2025-10-18T10:46:59.000Z</time>
      </trkpt>
      <trkpt lat="42.88425" lon="2.23102">
        <ele>353</ele>
        <time>2025-10-18T10:47:01.000Z</time>
      </trkpt>
      <trkpt lat="42.88423" lon="2.23108">
        <ele>353.39999389648</ele>
        <time>2025-10-18T10:47:02.000Z</time>
      </trkpt>
      <trkpt lat="42.88417" lon="2.23121">
        <ele>354.79998779297</ele>
        <time>2025-10-18T10:47:04.000Z</time>
      </trkpt>
      <trkpt lat="42.88407" lon="2.23141">
        <ele>352.60000610352</ele>
        <time>2025-10-18T10:47:07.000Z</time>
      </trkpt>
      <trkpt lat="42.88401" lon="2.23154">
        <ele>352.60000610352</ele>
        <time>2025-10-18T10:47:09.000Z</time>
      </trkpt>
      <trkpt lat="42.88396" lon="2.23165">
        <ele>352.60000610352</ele>
        <time>2025-10-18T10:47:11.000Z</time>
      </trkpt>
      <trkpt lat="42.88398" lon="2.23168">
        <ele>353.60000610352</ele>
        <time>2025-10-18T10:47:12.000Z</time>
      </trkpt>
      <trkpt lat="42.88398" lon="2.23174">
        <ele>354.39999389648</ele>
        <time>2025-10-18T10:47:14.000Z</time>
      </trkpt>
      <trkpt lat="42.88391" lon="2.23189">
        <ele>354.39999389648</ele>
        <time>2025-10-18T10:47:18.000Z</time>
      </trkpt>
      <trkpt lat="42.88382" lon="2.23211">
        <ele>354</ele>
        <time>2025-10-18T10:47:22.000Z</time>
      </trkpt>
      <trkpt lat="42.88376" lon="2.23222">
        <ele>353.79998779297</ele>
        <time>2025-10-18T10:47:24.000Z</time>
      </trkpt>
      <trkpt lat="42.88372" lon="2.23233">
        <ele>353.60000610352</ele>
        <time>2025-10-18T10:47:26.000Z</time>
      </trkpt>
      <trkpt lat="42.88369" lon="2.23238">
        <ele>353.79998779297</ele>
        <time>2025-10-18T10:47:27.000Z</time>
      </trkpt>
      <trkpt lat="42.88358" lon="2.23265">
        <ele>355.39999389648</ele>
        <time>2025-10-18T10:47:32.000Z</time>
      </trkpt>
      <trkpt lat="42.88347" lon="2.23291">
        <ele>355.39999389648</ele>
        <time>2025-10-18T10:47:37.000Z</time>
      </trkpt>
      <trkpt lat="42.88341" lon="2.23306">
        <ele>355.20001220703</ele>
        <time>2025-10-18T10:47:40.000Z</time>
      </trkpt>
      <trkpt lat="42.88335" lon="2.23316">
        <ele>355.20001220703</ele>
        <time>2025-10-18T10:47:42.000Z</time>
      </trkpt>
      <trkpt lat="42.88328" lon="2.23333">
        <ele>354.60000610352</ele>
        <time>2025-10-18T10:47:45.000Z</time>
      </trkpt>
      <trkpt lat="42.88324" lon="2.23345">
        <ele>354.39999389648</ele>
        <time>2025-10-18T10:47:47.000Z</time>
      </trkpt>
      <trkpt lat="42.8832" lon="2.23356">
        <ele>354.39999389648</ele>
        <time>2025-10-18T10:47:49.000Z</time>
      </trkpt>
      <trkpt lat="42.8831" lon="2.23378">
        <ele>354.20001220703</ele>
        <time>2025-10-18T10:47:53.000Z</time>
      </trkpt>
      <trkpt lat="42.88289" lon="2.2342">
        <ele>353.39999389648</ele>
        <time>2025-10-18T10:48:01.000Z</time>
      </trkpt>
      <trkpt lat="42.88279" lon="2.2344">
        <ele>353.39999389648</ele>
        <time>2025-10-18T10:48:05.000Z</time>
      </trkpt>
      <trkpt lat="42.88276" lon="2.23445">
        <ele>353.20001220703</ele>
        <time>2025-10-18T10:48:06.000Z</time>
      </trkpt>
      <trkpt lat="42.8827" lon="2.23462">
        <ele>354</ele>
        <time>2025-10-18T10:48:09.000Z</time>
      </trkpt>
      <trkpt lat="42.88267" lon="2.23473">
        <ele>354.60000610352</ele>
        <time>2025-10-18T10:48:11.000Z</time>
      </trkpt>
      <trkpt lat="42.88257" lon="2.23478">
        <ele>354.60000610352</ele>
        <time>2025-10-18T10:48:14.000Z</time>
      </trkpt>
      <trkpt lat="42.88243" lon="2.23475">
        <ele>353.20001220703</ele>
        <time>2025-10-18T10:48:19.000Z</time>
      </trkpt>
      <trkpt lat="42.88233" lon="2.23483">
        <ele>353</ele>
        <time>2025-10-18T10:48:22.000Z</time>
      </trkpt>
      <trkpt lat="42.88231" lon="2.23487">
        <ele>353.20001220703</ele>
        <time>2025-10-18T10:48:23.000Z</time>
      </trkpt>
      <trkpt lat="42.88217" lon="2.23517">
        <ele>354.79998779297</ele>
        <time>2025-10-18T10:48:29.000Z</time>
      </trkpt>
      <trkpt lat="42.88215" lon="2.23521">
        <ele>355.20001220703</ele>
        <time>2025-10-18T10:48:30.000Z</time>
      </trkpt>
      <trkpt lat="42.8821" lon="2.23532">
        <ele>356.20001220703</ele>
        <time>2025-10-18T10:48:32.000Z</time>
      </trkpt>
      <trkpt lat="42.88207" lon="2.23541">
        <ele>357.20001220703</ele>
        <time>2025-10-18T10:48:34.000Z</time>
      </trkpt>
      <trkpt lat="42.88196" lon="2.23566">
        <ele>358</ele>
        <time>2025-10-18T10:48:39.000Z</time>
      </trkpt>
      <trkpt lat="42.88194" lon="2.23577">
        <ele>358.60000610352</ele>
        <time>2025-10-18T10:48:41.000Z</time>
      </trkpt>
      <trkpt lat="42.88192" lon="2.23587">
        <ele>358.39999389648</ele>
        <time>2025-10-18T10:48:43.000Z</time>
      </trkpt>
      <trkpt lat="42.88189" lon="2.23619">
        <ele>359</ele>
        <time>2025-10-18T10:48:49.000Z</time>
      </trkpt>
      <trkpt lat="42.88187" lon="2.23631">
        <ele>358.39999389648</ele>
        <time>2025-10-18T10:48:51.000Z</time>
      </trkpt>
      <trkpt lat="42.88184" lon="2.23642">
        <ele>357.60000610352</ele>
        <time>2025-10-18T10:48:53.000Z</time>
      </trkpt>
      <trkpt lat="42.88184" lon="2.23648">
        <ele>357.39999389648</ele>
        <time>2025-10-18T10:48:54.000Z</time>
      </trkpt>
      <trkpt lat="42.88186" lon="2.23658">
        <ele>357.60000610352</ele>
        <time>2025-10-18T10:48:56.000Z</time>
      </trkpt>
      <trkpt lat="42.88186" lon="2.23663">
        <ele>357.79998779297</ele>
        <time>2025-10-18T10:48:57.000Z</time>
      </trkpt>
      <trkpt lat="42.88185" lon="2.2368">
        <ele>358.39999389648</ele>
        <time>2025-10-18T10:49:00.000Z</time>
      </trkpt>
      <trkpt lat="42.88179" lon="2.23706">
        <ele>360</ele>
        <time>2025-10-18T10:49:05.000Z</time>
      </trkpt>
      <trkpt lat="42.88175" lon="2.23724">
        <ele>361.39999389648</ele>
        <time>2025-10-18T10:49:08.000Z</time>
      </trkpt>
      <trkpt lat="42.8817" lon="2.23746">
        <ele>361.79998779297</ele>
        <time>2025-10-18T10:49:12.000Z</time>
      </trkpt>
      <trkpt lat="42.88162" lon="2.23767">
        <ele>360.60000610352</ele>
        <time>2025-10-18T10:49:16.000Z</time>
      </trkpt>
      <trkpt lat="42.88158" lon="2.23791">
        <ele>360.20001220703</ele>
        <time>2025-10-18T10:49:20.000Z</time>
      </trkpt>
      <trkpt lat="42.88157" lon="2.23811">
        <ele>360</ele>
        <time>2025-10-18T10:49:24.000Z</time>
      </trkpt>
      <trkpt lat="42.88155" lon="2.23828">
        <ele>359.79998779297</ele>
        <time>2025-10-18T10:49:27.000Z</time>
      </trkpt>
      <trkpt lat="42.88155" lon="2.23834">
        <ele>359.39999389648</ele>
        <time>2025-10-18T10:49:28.000Z</time>
      </trkpt>
      <trkpt lat="42.88155" lon="2.23857">
        <ele>360.39999389648</ele>
        <time>2025-10-18T10:49:32.000Z</time>
      </trkpt>
      <trkpt lat="42.88158" lon="2.23873">
        <ele>361.79998779297</ele>
        <time>2025-10-18T10:49:35.000Z</time>
      </trkpt>
      <trkpt lat="42.8816" lon="2.23877">
        <ele>362.60000610352</ele>
        <time>2025-10-18T10:49:36.000Z</time>
      </trkpt>
      <trkpt lat="42.88159" lon="2.23882">
        <ele>362.79998779297</ele>
        <time>2025-10-18T10:49:37.000Z</time>
      </trkpt>
      <trkpt lat="42.88158" lon="2.23886">
        <ele>362.79998779297</ele>
        <time>2025-10-18T10:49:38.000Z</time>
      </trkpt>
      <trkpt lat="42.88156" lon="2.23889">
        <ele>362.60000610352</ele>
        <time>2025-10-18T10:49:39.000Z</time>
      </trkpt>
      <trkpt lat="42.88151" lon="2.23892">
        <ele>362.39999389648</ele>
        <time>2025-10-18T10:49:41.000Z</time>
      </trkpt>
      <trkpt lat="42.88146" lon="2.23895">
        <ele>361.79998779297</ele>
        <time>2025-10-18T10:49:44.000Z</time>
      </trkpt>
      <trkpt lat="42.88145" lon="2.23898">
        <ele>361.79998779297</ele>
        <time>2025-10-18T10:49:45.000Z</time>
      </trkpt>
      <trkpt lat="42.8814" lon="2.23912">
        <ele>362</ele>
        <time>2025-10-18T10:49:49.000Z</time>
      </trkpt>
      <trkpt lat="42.88139" lon="2.23915">
        <ele>362</ele>
        <time>2025-10-18T10:49:50.000Z</time>
      </trkpt>
      <trkpt lat="42.88136" lon="2.23929">
        <ele>361.79998779297</ele>
        <time>2025-10-18T10:49:54.000Z</time>
      </trkpt>
      <trkpt lat="42.88135" lon="2.23945">
        <ele>362.39999389648</ele>
        <time>2025-10-18T10:49:58.000Z</time>
      </trkpt>
      <trkpt lat="42.88131" lon="2.23963">
        <ele>362.79998779297</ele>
        <time>2025-10-18T10:50:02.000Z</time>
      </trkpt>
      <trkpt lat="42.8813" lon="2.23974">
        <ele>363.20001220703</ele>
        <time>2025-10-18T10:50:04.000Z</time>
      </trkpt>
      <trkpt lat="42.8813" lon="2.23979">
        <ele>363.39999389648</ele>
        <time>2025-10-18T10:50:05.000Z</time>
      </trkpt>
      <trkpt lat="42.8813" lon="2.23987">
        <ele>364</ele>
        <time>2025-10-18T10:50:07.000Z</time>
      </trkpt>
      <trkpt lat="42.8813" lon="2.23991">
        <ele>364</ele>
        <time>2025-10-18T10:50:08.000Z</time>
      </trkpt>
      <trkpt lat="42.88131" lon="2.2401">
        <ele>365</ele>
        <time>2025-10-18T10:50:12.000Z</time>
      </trkpt>
      <trkpt lat="42.88132" lon="2.24031">
        <ele>366</ele>
        <time>2025-10-18T10:50:17.000Z</time>
      </trkpt>
      <trkpt lat="42.88133" lon="2.24055">
        <ele>367</ele>
        <time>2025-10-18T10:50:22.000Z</time>
      </trkpt>
      <trkpt lat="42.88133" lon="2.24064">
        <ele>367.60000610352</ele>
        <time>2025-10-18T10:50:24.000Z</time>
      </trkpt>
      <trkpt lat="42.88134" lon="2.24073">
        <ele>368.20001220703</ele>
        <time>2025-10-18T10:50:26.000Z</time>
      </trkpt>
      <trkpt lat="42.88137" lon="2.2409">
        <ele>369.39999389648</ele>
        <time>2025-10-18T10:50:30.000Z</time>
      </trkpt>
      <trkpt lat="42.88139" lon="2.24099">
        <ele>370.39999389648</ele>
        <time>2025-10-18T10:50:32.000Z</time>
      </trkpt>
      <trkpt lat="42.8814" lon="2.24104">
        <ele>370.79998779297</ele>
        <time>2025-10-18T10:50:33.000Z</time>
      </trkpt>
      <trkpt lat="42.88139" lon="2.24113">
        <ele>371.39999389648</ele>
        <time>2025-10-18T10:50:35.000Z</time>
      </trkpt>
      <trkpt lat="42.88139" lon="2.24122">
        <ele>372.20001220703</ele>
        <time>2025-10-18T10:50:37.000Z</time>
      </trkpt>
      <trkpt lat="42.88139" lon="2.24147">
        <ele>373.20001220703</ele>
        <time>2025-10-18T10:50:42.000Z</time>
      </trkpt>
      <trkpt lat="42.88139" lon="2.24162">
        <ele>374.39999389648</ele>
        <time>2025-10-18T10:50:46.000Z</time>
      </trkpt>
      <trkpt lat="42.88136" lon="2.24182">
        <ele>376.60000610352</ele>
        <time>2025-10-18T10:50:50.000Z</time>
      </trkpt>
      <trkpt lat="42.88135" lon="2.242">
        <ele>377.79998779297</ele>
        <time>2025-10-18T10:50:54.000Z</time>
      </trkpt>
      <trkpt lat="42.88129" lon="2.24224">
        <ele>379.39999389648</ele>
        <time>2025-10-18T10:50:58.000Z</time>
      </trkpt>
      <trkpt lat="42.88124" lon="2.24249">
        <ele>378.39999389648</ele>
        <time>2025-10-18T10:51:03.000Z</time>
      </trkpt>
      <trkpt lat="42.88114" lon="2.24277">
        <ele>376</ele>
        <time>2025-10-18T10:51:09.000Z</time>
      </trkpt>
      <trkpt lat="42.88107" lon="2.24288">
        <ele>374</ele>
        <time>2025-10-18T10:51:12.000Z</time>
      </trkpt>
      <trkpt lat="42.88097" lon="2.24304">
        <ele>372.60000610352</ele>
        <time>2025-10-18T10:51:15.000Z</time>
      </trkpt>
      <trkpt lat="42.88092" lon="2.2431">
        <ele>372</ele>
        <time>2025-10-18T10:51:16.000Z</time>
      </trkpt>
      <trkpt lat="42.88078" lon="2.24342">
        <ele>370.20001220703</ele>
        <time>2025-10-18T10:51:21.000Z</time>
      </trkpt>
      <trkpt lat="42.88077" lon="2.2436">
        <ele>370.39999389648</ele>
        <time>2025-10-18T10:51:24.000Z</time>
      </trkpt>
      <trkpt lat="42.88077" lon="2.24365">
        <ele>370.39999389648</ele>
        <time>2025-10-18T10:51:25.000Z</time>
      </trkpt>
      <trkpt lat="42.88077" lon="2.24378">
        <ele>371.20001220703</ele>
        <time>2025-10-18T10:51:27.000Z</time>
      </trkpt>
      <trkpt lat="42.88075" lon="2.24384">
        <ele>371.39999389648</ele>
        <time>2025-10-18T10:51:28.000Z</time>
      </trkpt>
      <trkpt lat="42.88073" lon="2.24391">
        <ele>371.20001220703</ele>
        <time>2025-10-18T10:51:29.000Z</time>
      </trkpt>
      <trkpt lat="42.88067" lon="2.24402">
        <ele>370.79998779297</ele>
        <time>2025-10-18T10:51:31.000Z</time>
      </trkpt>
      <trkpt lat="42.88063" lon="2.24407">
        <ele>370.60000610352</ele>
        <time>2025-10-18T10:51:32.000Z</time>
      </trkpt>
      <trkpt lat="42.88059" lon="2.24412">
        <ele>370.39999389648</ele>
        <time>2025-10-18T10:51:33.000Z</time>
      </trkpt>
      <trkpt lat="42.8805" lon="2.24415">
        <ele>369.39999389648</ele>
        <time>2025-10-18T10:51:35.000Z</time>
      </trkpt>
      <trkpt lat="42.88035" lon="2.24412">
        <ele>368.20001220703</ele>
        <time>2025-10-18T10:51:38.000Z</time>
      </trkpt>
      <trkpt lat="42.8803" lon="2.24412">
        <ele>368</ele>
        <time>2025-10-18T10:51:39.000Z</time>
      </trkpt>
      <trkpt lat="42.8802" lon="2.24418">
        <ele>368.20001220703</ele>
        <time>2025-10-18T10:51:42.000Z</time>
      </trkpt>
      <trkpt lat="42.88017" lon="2.24421">
        <ele>368.20001220703</ele>
        <time>2025-10-18T10:51:43.000Z</time>
      </trkpt>
      <trkpt lat="42.88007" lon="2.24431">
        <ele>368.60000610352</ele>
        <time>2025-10-18T10:51:46.000Z</time>
      </trkpt>
      <trkpt lat="42.88001" lon="2.24436">
        <ele>368.60000610352</ele>
        <time>2025-10-18T10:51:48.000Z</time>
      </trkpt>
      <trkpt lat="42.87987" lon="2.2445">
        <ele>370</ele>
        <time>2025-10-18T10:51:53.000Z</time>
      </trkpt>
      <trkpt lat="42.8797" lon="2.24475">
        <ele>374.60000610352</ele>
        <time>2025-10-18T10:51:59.000Z</time>
      </trkpt>
      <trkpt lat="42.87954" lon="2.24494">
        <ele>379</ele>
        <time>2025-10-18T10:52:04.000Z</time>
      </trkpt>
      <trkpt lat="42.87939" lon="2.24512">
        <ele>380.39999389648</ele>
        <time>2025-10-18T10:52:09.000Z</time>
      </trkpt>
      <trkpt lat="42.87935" lon="2.24515">
        <ele>380.60000610352</ele>
        <time>2025-10-18T10:52:10.000Z</time>
      </trkpt>
      <trkpt lat="42.87918" lon="2.24527">
        <ele>381.60000610352</ele>
        <time>2025-10-18T10:52:15.000Z</time>
      </trkpt>
      <trkpt lat="42.87898" lon="2.24537">
        <ele>382.39999389648</ele>
        <time>2025-10-18T10:52:21.000Z</time>
      </trkpt>
      <trkpt lat="42.87886" lon="2.24547">
        <ele>383.20001220703</ele>
        <time>2025-10-18T10:52:25.000Z</time>
      </trkpt>
      <trkpt lat="42.87876" lon="2.24556">
        <ele>385</ele>
        <time>2025-10-18T10:52:29.000Z</time>
      </trkpt>
      <trkpt lat="42.87863" lon="2.24564">
        <ele>385.60000610352</ele>
        <time>2025-10-18T10:52:33.000Z</time>
      </trkpt>
      <trkpt lat="42.8785" lon="2.24569">
        <ele>384.79998779297</ele>
        <time>2025-10-18T10:52:37.000Z</time>
      </trkpt>
      <trkpt lat="42.87835" lon="2.24578">
        <ele>384.79998779297</ele>
        <time>2025-10-18T10:52:42.000Z</time>
      </trkpt>
      <trkpt lat="42.87818" lon="2.24594">
        <ele>387</ele>
        <time>2025-10-18T10:52:48.000Z</time>
      </trkpt>
      <trkpt lat="42.87807" lon="2.2461">
        <ele>389.39999389648</ele>
        <time>2025-10-18T10:52:53.000Z</time>
      </trkpt>
      <trkpt lat="42.87794" lon="2.24633">
        <ele>391.60000610352</ele>
        <time>2025-10-18T10:52:59.000Z</time>
      </trkpt>
      <trkpt lat="42.87783" lon="2.24647">
        <ele>390.60000610352</ele>
        <time>2025-10-18T10:53:03.000Z</time>
      </trkpt>
      <trkpt lat="42.87767" lon="2.24662">
        <ele>388.60000610352</ele>
        <time>2025-10-18T10:53:08.000Z</time>
      </trkpt>
      <trkpt lat="42.87757" lon="2.24665">
        <ele>387.20001220703</ele>
        <time>2025-10-18T10:53:10.000Z</time>
      </trkpt>
      <trkpt lat="42.87752" lon="2.24664">
        <ele>386.39999389648</ele>
        <time>2025-10-18T10:53:11.000Z</time>
      </trkpt>
      <trkpt lat="42.87739" lon="2.24661">
        <ele>384</ele>
        <time>2025-10-18T10:53:15.000Z</time>
      </trkpt>
      <trkpt lat="42.87722" lon="2.24666">
        <ele>382.60000610352</ele>
        <time>2025-10-18T10:53:20.000Z</time>
      </trkpt>
      <trkpt lat="42.87716" lon="2.24673">
        <ele>382.60000610352</ele>
        <time>2025-10-18T10:53:22.000Z</time>
      </trkpt>
      <trkpt lat="42.87713" lon="2.24684">
        <ele>382.79998779297</ele>
        <time>2025-10-18T10:53:24.000Z</time>
      </trkpt>
      <trkpt lat="42.87707" lon="2.24708">
        <ele>384</ele>
        <time>2025-10-18T10:53:27.000Z</time>
      </trkpt>
      <trkpt lat="42.877" lon="2.24719">
        <ele>384.20001220703</ele>
        <time>2025-10-18T10:53:29.000Z</time>
      </trkpt>
      <trkpt lat="42.87695" lon="2.24723">
        <ele>384.39999389648</ele>
        <time>2025-10-18T10:53:30.000Z</time>
      </trkpt>
      <trkpt lat="42.87691" lon="2.24726">
        <ele>384.60000610352</ele>
        <time>2025-10-18T10:53:31.000Z</time>
      </trkpt>
      <trkpt lat="42.87682" lon="2.24737">
        <ele>385.39999389648</ele>
        <time>2025-10-18T10:53:34.000Z</time>
      </trkpt>
      <trkpt lat="42.87678" lon="2.24741">
        <ele>385.79998779297</ele>
        <time>2025-10-18T10:53:35.000Z</time>
      </trkpt>
      <trkpt lat="42.87664" lon="2.24752">
        <ele>386.60000610352</ele>
        <time>2025-10-18T10:53:39.000Z</time>
      </trkpt>
      <trkpt lat="42.87645" lon="2.24765">
        <ele>387</ele>
        <time>2025-10-18T10:53:45.000Z</time>
      </trkpt>
      <trkpt lat="42.87637" lon="2.24775">
        <ele>388.20001220703</ele>
        <time>2025-10-18T10:53:49.000Z</time>
      </trkpt>
      <trkpt lat="42.87635" lon="2.24777">
        <ele>388.39999389648</ele>
        <time>2025-10-18T10:53:50.000Z</time>
      </trkpt>
      <trkpt lat="42.87622" lon="2.24782">
        <ele>388.20001220703</ele>
        <time>2025-10-18T10:53:54.000Z</time>
      </trkpt>
      <trkpt lat="42.87604" lon="2.24783">
        <ele>387.60000610352</ele>
        <time>2025-10-18T10:53:58.000Z</time>
      </trkpt>
      <trkpt lat="42.87599" lon="2.24783">
        <ele>387.39999389648</ele>
        <time>2025-10-18T10:53:59.000Z</time>
      </trkpt>
      <trkpt lat="42.87568" lon="2.24782">
        <ele>387.20001220703</ele>
        <time>2025-10-18T10:54:05.000Z</time>
      </trkpt>
      <trkpt lat="42.8755" lon="2.24781">
        <ele>387.79998779297</ele>
        <time>2025-10-18T10:54:10.000Z</time>
      </trkpt>
      <trkpt lat="42.87534" lon="2.24791">
        <ele>388.39999389648</ele>
        <time>2025-10-18T10:54:15.000Z</time>
      </trkpt>
      <trkpt lat="42.87525" lon="2.24813">
        <ele>390</ele>
        <time>2025-10-18T10:54:20.000Z</time>
      </trkpt>
      <trkpt lat="42.87512" lon="2.24829">
        <ele>392.60000610352</ele>
        <time>2025-10-18T10:54:25.000Z</time>
      </trkpt>
      <trkpt lat="42.87495" lon="2.24834">
        <ele>392.20001220703</ele>
        <time>2025-10-18T10:54:30.000Z</time>
      </trkpt>
      <trkpt lat="42.8747" lon="2.24837">
        <ele>391.79998779297</ele>
        <time>2025-10-18T10:54:37.000Z</time>
      </trkpt>
      <trkpt lat="42.87456" lon="2.24844">
        <ele>391.39999389648</ele>
        <time>2025-10-18T10:54:42.000Z</time>
      </trkpt>
      <trkpt lat="42.87446" lon="2.24857">
        <ele>391.60000610352</ele>
        <time>2025-10-18T10:54:47.000Z</time>
      </trkpt>
      <trkpt lat="42.87432" lon="2.24877">
        <ele>391.60000610352</ele>
        <time>2025-10-18T10:54:53.000Z</time>
      </trkpt>
      <trkpt lat="42.87418" lon="2.2489">
        <ele>392.60000610352</ele>
        <time>2025-10-18T10:54:59.000Z</time>
      </trkpt>
      <trkpt lat="42.87403" lon="2.24889">
        <ele>392.60000610352</ele>
        <time>2025-10-18T10:55:03.000Z</time>
      </trkpt>
      <trkpt lat="42.87395" lon="2.24882">
        <ele>392.60000610352</ele>
        <time>2025-10-18T10:55:05.000Z</time>
      </trkpt>
      <trkpt lat="42.87388" lon="2.24875">
        <ele>394</ele>
        <time>2025-10-18T10:55:07.000Z</time>
      </trkpt>
      <trkpt lat="42.87378" lon="2.24859">
        <ele>396.60000610352</ele>
        <time>2025-10-18T10:55:12.000Z</time>
      </trkpt>
      <trkpt lat="42.87374" lon="2.24845">
        <ele>399.20001220703</ele>
        <time>2025-10-18T10:55:18.000Z</time>
      </trkpt>
      <trkpt lat="42.87363" lon="2.24836">
        <ele>403</ele>
        <time>2025-10-18T10:55:23.000Z</time>
      </trkpt>
      <trkpt lat="42.87351" lon="2.24839">
        <ele>404.79998779297</ele>
        <time>2025-10-18T10:55:28.000Z</time>
      </trkpt>
      <trkpt lat="42.87341" lon="2.24848">
        <ele>404.60000610352</ele>
        <time>2025-10-18T10:55:33.000Z</time>
      </trkpt>
      <trkpt lat="42.87329" lon="2.24854">
        <ele>404</ele>
        <time>2025-10-18T10:55:38.000Z</time>
      </trkpt>
      <trkpt lat="42.87313" lon="2.24853">
        <ele>405.39999389648</ele>
        <time>2025-10-18T10:55:44.000Z</time>
      </trkpt>
      <trkpt lat="42.87298" lon="2.24842">
        <ele>407</ele>
        <time>2025-10-18T10:55:50.000Z</time>
      </trkpt>
      <trkpt lat="42.87278" lon="2.24824">
        <ele>408.60000610352</ele>
        <time>2025-10-18T10:55:59.000Z</time>
      </trkpt>
      <trkpt lat="42.87259" lon="2.24805">
        <ele>410</ele>
        <time>2025-10-18T10:56:08.000Z</time>
      </trkpt>
      <trkpt lat="42.87239" lon="2.24784">
        <ele>412.39999389648</ele>
        <time>2025-10-18T10:56:17.000Z</time>
      </trkpt>
      <trkpt lat="42.87225" lon="2.24771">
        <ele>413.79998779297</ele>
        <time>2025-10-18T10:56:23.000Z</time>
      </trkpt>
      <trkpt lat="42.87209" lon="2.24758">
        <ele>414</ele>
        <time>2025-10-18T10:56:30.000Z</time>
      </trkpt>
      <trkpt lat="42.87198" lon="2.24746">
        <ele>415.20001220703</ele>
        <time>2025-10-18T10:56:35.000Z</time>
      </trkpt>
      <trkpt lat="42.87182" lon="2.24731">
        <ele>417.60000610352</ele>
        <time>2025-10-18T10:56:42.000Z</time>
      </trkpt>
      <trkpt lat="42.87166" lon="2.24716">
        <ele>419.39999389648</ele>
        <time>2025-10-18T10:56:49.000Z</time>
      </trkpt>
      <trkpt lat="42.87148" lon="2.24701">
        <ele>420.60000610352</ele>
        <time>2025-10-18T10:56:57.000Z</time>
      </trkpt>
      <trkpt lat="42.87132" lon="2.24689">
        <ele>421</ele>
        <time>2025-10-18T10:57:04.000Z</time>
      </trkpt>
      <trkpt lat="42.87117" lon="2.24676">
        <ele>422.39999389648</ele>
        <time>2025-10-18T10:57:11.000Z</time>
      </trkpt>
      <trkpt lat="42.87098" lon="2.2466">
        <ele>424.79998779297</ele>
        <time>2025-10-18T10:57:19.000Z</time>
      </trkpt>
      <trkpt lat="42.87079" lon="2.24648">
        <ele>426.79998779297</ele>
        <time>2025-10-18T10:57:27.000Z</time>
      </trkpt>
      <trkpt lat="42.87063" lon="2.24634">
        <ele>428.60000610352</ele>
        <time>2025-10-18T10:57:34.000Z</time>
      </trkpt>
      <trkpt lat="42.87053" lon="2.24625">
        <ele>428.79998779297</ele>
        <time>2025-10-18T10:57:39.000Z</time>
      </trkpt>
      <trkpt lat="42.87037" lon="2.24612">
        <ele>429.20001220703</ele>
        <time>2025-10-18T10:57:46.000Z</time>
      </trkpt>
      <trkpt lat="42.87022" lon="2.24604">
        <ele>430</ele>
        <time>2025-10-18T10:57:52.000Z</time>
      </trkpt>
      <trkpt lat="42.87006" lon="2.24606">
        <ele>430.60000610352</ele>
        <time>2025-10-18T10:57:58.000Z</time>
      </trkpt>
      <trkpt lat="42.86987" lon="2.24608">
        <ele>433.79998779297</ele>
        <time>2025-10-18T10:58:05.000Z</time>
      </trkpt>
      <trkpt lat="42.86965" lon="2.24605">
        <ele>438.60000610352</ele>
        <time>2025-10-18T10:58:13.000Z</time>
      </trkpt>
      <trkpt lat="42.86946" lon="2.24604">
        <ele>442.60000610352</ele>
        <time>2025-10-18T10:58:20.000Z</time>
      </trkpt>
      <trkpt lat="42.86929" lon="2.24606">
        <ele>445.60000610352</ele>
        <time>2025-10-18T10:58:26.000Z</time>
      </trkpt>
      <trkpt lat="42.86909" lon="2.24612">
        <ele>448</ele>
        <time>2025-10-18T10:58:33.000Z</time>
      </trkpt>
      <trkpt lat="42.86894" lon="2.24612">
        <ele>449.60000610352</ele>
        <time>2025-10-18T10:58:39.000Z</time>
      </trkpt>
      <trkpt lat="42.86877" lon="2.24603">
        <ele>451.39999389648</ele>
        <time>2025-10-18T10:58:46.000Z</time>
      </trkpt>
      <trkpt lat="42.86863" lon="2.24596">
        <ele>452.60000610352</ele>
        <time>2025-10-18T10:58:52.000Z</time>
      </trkpt>
      <trkpt lat="42.86856" lon="2.24596">
        <ele>453.20001220703</ele>
        <time>2025-10-18T10:58:56.000Z</time>
      </trkpt>
      <trkpt lat="42.86854" lon="2.24595">
        <ele>453.20001220703</ele>
        <time>2025-10-18T10:58:57.000Z</time>
      </trkpt>
      <trkpt lat="42.86854" lon="2.24582">
        <ele>453.20001220703</ele>
        <time>2025-10-18T10:59:02.000Z</time>
      </trkpt>
      <trkpt lat="42.86855" lon="2.24554">
        <ele>453</ele>
        <time>2025-10-18T10:59:12.000Z</time>
      </trkpt>
      <trkpt lat="42.86859" lon="2.24542">
        <ele>452.60000610352</ele>
        <time>2025-10-18T10:59:17.000Z</time>
      </trkpt>
      <trkpt lat="42.86859" lon="2.2454">
        <ele>452.60000610352</ele>
        <time>2025-10-18T10:59:18.000Z</time>
      </trkpt>
      <trkpt lat="42.86863" lon="2.24527">
        <ele>453.20001220703</ele>
        <time>2025-10-18T10:59:24.000Z</time>
      </trkpt>
      <trkpt lat="42.86863" lon="2.24525">
        <ele>453.39999389648</ele>
        <time>2025-10-18T10:59:25.000Z</time>
      </trkpt>
      <trkpt lat="42.86863" lon="2.24521">
        <ele>453.60000610352</ele>
        <time>2025-10-18T10:59:27.000Z</time>
      </trkpt>
      <trkpt lat="42.86863" lon="2.24519">
        <ele>453.79998779297</ele>
        <time>2025-10-18T10:59:28.000Z</time>
      </trkpt>
      <trkpt lat="42.86864" lon="2.24515">
        <ele>454</ele>
        <time>2025-10-18T10:59:31.000Z</time>
      </trkpt>
      <trkpt lat="42.86863" lon="2.24513">
        <ele>454</ele>
        <time>2025-10-18T10:59:33.000Z</time>
      </trkpt>
      <trkpt lat="42.86862" lon="2.24518">
        <ele>453.79998779297</ele>
        <time>2025-10-18T10:59:36.000Z</time>
      </trkpt>
      <trkpt lat="42.86862" lon="2.24523">
        <ele>453.39999389648</ele>
        <time>2025-10-18T10:59:38.000Z</time>
      </trkpt>
      <trkpt lat="42.8686" lon="2.2454">
        <ele>452.60000610352</ele>
        <time>2025-10-18T10:59:44.000Z</time>
      </trkpt>
      <trkpt lat="42.86857" lon="2.24562">
        <ele>452.60000610352</ele>
        <time>2025-10-18T10:59:50.000Z</time>
      </trkpt>
      <trkpt lat="42.86857" lon="2.24577">
        <ele>452.60000610352</ele>
        <time>2025-10-18T10:59:56.000Z</time>
      </trkpt>
      <trkpt lat="42.86854" lon="2.2459">
        <ele>453.20001220703</ele>
        <time>2025-10-18T11:00:01.000Z</time>
      </trkpt>
      <trkpt lat="42.86852" lon="2.24592">
        <ele>453.39999389648</ele>
        <time>2025-10-18T11:00:02.000Z</time>
      </trkpt>
      <trkpt lat="42.86846" lon="2.24592">
        <ele>453.79998779297</ele>
        <time>2025-10-18T11:00:04.000Z</time>
      </trkpt>
      <trkpt lat="42.86845" lon="2.24591">
        <ele>454</ele>
        <time>2025-10-18T11:00:05.000Z</time>
      </trkpt>
      <trkpt lat="42.86834" lon="2.2458">
        <ele>453.39999389648</ele>
        <time>2025-10-18T11:00:11.000Z</time>
      </trkpt>
      <trkpt lat="42.86824" lon="2.24568">
        <ele>452.20001220703</ele>
        <time>2025-10-18T11:00:17.000Z</time>
      </trkpt>
      <trkpt lat="42.86811" lon="2.2455">
        <ele>450.79998779297</ele>
        <time>2025-10-18T11:00:23.000Z</time>
      </trkpt>
      <trkpt lat="42.86803" lon="2.24528">
        <ele>448.79998779297</ele>
        <time>2025-10-18T11:00:28.000Z</time>
      </trkpt>
      <trkpt lat="42.86802" lon="2.24513">
        <ele>448.20001220703</ele>
        <time>2025-10-18T11:00:32.000Z</time>
      </trkpt>
      <trkpt lat="42.86798" lon="2.2451">
        <ele>447.79998779297</ele>
        <time>2025-10-18T11:00:35.000Z</time>
      </trkpt>
      <trkpt lat="42.86795" lon="2.24508">
        <ele>447.39999389648</ele>
        <time>2025-10-18T11:01:00.000Z</time>
      </trkpt>
      <trkpt lat="42.8679" lon="2.24504">
        <ele>446.60000610352</ele>
        <time>2025-10-18T11:01:02.000Z</time>
      </trkpt>
      <trkpt lat="42.86769" lon="2.24489">
        <ele>445.79998779297</ele>
        <time>2025-10-18T11:01:07.000Z</time>
      </trkpt>
      <trkpt lat="42.86751" lon="2.24486">
        <ele>446.39999389648</ele>
        <time>2025-10-18T11:01:10.000Z</time>
      </trkpt>
      <trkpt lat="42.8673" lon="2.24487">
        <ele>447.79998779297</ele>
        <time>2025-10-18T11:01:13.000Z</time>
      </trkpt>
      <trkpt lat="42.86723" lon="2.24484">
        <ele>447.79998779297</ele>
        <time>2025-10-18T11:01:14.000Z</time>
      </trkpt>
      <trkpt lat="42.86717" lon="2.2448">
        <ele>447.79998779297</ele>
        <time>2025-10-18T11:01:15.000Z</time>
      </trkpt>
      <trkpt lat="42.86706" lon="2.24471">
        <ele>447.60000610352</ele>
        <time>2025-10-18T11:01:17.000Z</time>
      </trkpt>
      <trkpt lat="42.86701" lon="2.24468">
        <ele>447.20001220703</ele>
        <time>2025-10-18T11:01:18.000Z</time>
      </trkpt>
      <trkpt lat="42.86696" lon="2.24465">
        <ele>447</ele>
        <time>2025-10-18T11:01:19.000Z</time>
      </trkpt>
      <trkpt lat="42.86687" lon="2.24461">
        <ele>446.39999389648</ele>
        <time>2025-10-18T11:01:21.000Z</time>
      </trkpt>
      <trkpt lat="42.86683" lon="2.2446">
        <ele>446.20001220703</ele>
        <time>2025-10-18T11:01:22.000Z</time>
      </trkpt>
      <trkpt lat="42.86655" lon="2.24446">
        <ele>446.39999389648</ele>
        <time>2025-10-18T11:01:30.000Z</time>
      </trkpt>
      <trkpt lat="42.86631" lon="2.24434">
        <ele>447.20001220703</ele>
        <time>2025-10-18T11:01:37.000Z</time>
      </trkpt>
      <trkpt lat="42.86613" lon="2.24426">
        <ele>447</ele>
        <time>2025-10-18T11:01:42.000Z</time>
      </trkpt>
      <trkpt lat="42.86591" lon="2.24421">
        <ele>446</ele>
        <time>2025-10-18T11:01:48.000Z</time>
      </trkpt>
      <trkpt lat="42.86573" lon="2.24425">
        <ele>445.79998779297</ele>
        <time>2025-10-18T11:01:53.000Z</time>
      </trkpt>
      <trkpt lat="42.86565" lon="2.24428">
        <ele>446.39999389648</ele>
        <time>2025-10-18T11:01:55.000Z</time>
      </trkpt>
      <trkpt lat="42.86557" lon="2.24429">
        <ele>446.39999389648</ele>
        <time>2025-10-18T11:01:57.000Z</time>
      </trkpt>
      <trkpt lat="42.86538" lon="2.24435">
        <ele>449.39999389648</ele>
        <time>2025-10-18T11:02:00.000Z</time>
      </trkpt>
      <trkpt lat="42.86532" lon="2.24435">
        <ele>450.79998779297</ele>
        <time>2025-10-18T11:02:01.000Z</time>
      </trkpt>
      <trkpt lat="42.86521" lon="2.24435">
        <ele>453</ele>
        <time>2025-10-18T11:02:03.000Z</time>
      </trkpt>
      <trkpt lat="42.86513" lon="2.24433">
        <ele>454.39999389648</ele>
        <time>2025-10-18T11:02:05.000Z</time>
      </trkpt>
      <trkpt lat="42.86499" lon="2.24425">
        <ele>455.60000610352</ele>
        <time>2025-10-18T11:02:10.000Z</time>
      </trkpt>
      <trkpt lat="42.86482" lon="2.24412">
        <ele>456.39999389648</ele>
        <time>2025-10-18T11:02:16.000Z</time>
      </trkpt>
      <trkpt lat="42.8646" lon="2.24402">
        <ele>453.20001220703</ele>
        <time>2025-10-18T11:02:23.000Z</time>
      </trkpt>
      <trkpt lat="42.8644" lon="2.24388">
        <ele>452.39999389648</ele>
        <time>2025-10-18T11:02:29.000Z</time>
      </trkpt>
      <trkpt lat="42.86433" lon="2.24381">
        <ele>452.20001220703</ele>
        <time>2025-10-18T11:02:31.000Z</time>
      </trkpt>
      <trkpt lat="42.86423" lon="2.24363">
        <ele>451.20001220703</ele>
        <time>2025-10-18T11:02:35.000Z</time>
      </trkpt>
      <trkpt lat="42.86421" lon="2.24353">
        <ele>450.20001220703</ele>
        <time>2025-10-18T11:02:37.000Z</time>
      </trkpt>
      <trkpt lat="42.86422" lon="2.24342">
        <ele>449.20001220703</ele>
        <time>2025-10-18T11:02:39.000Z</time>
      </trkpt>
      <trkpt lat="42.86423" lon="2.24336">
        <ele>448.39999389648</ele>
        <time>2025-10-18T11:02:40.000Z</time>
      </trkpt>
      <trkpt lat="42.86426" lon="2.24325">
        <ele>447</ele>
        <time>2025-10-18T11:02:42.000Z</time>
      </trkpt>
      <trkpt lat="42.86429" lon="2.24313">
        <ele>446</ele>
        <time>2025-10-18T11:02:44.000Z</time>
      </trkpt>
      <trkpt lat="42.86431" lon="2.24307">
        <ele>445.60000610352</ele>
        <time>2025-10-18T11:02:45.000Z</time>
      </trkpt>
      <trkpt lat="42.86434" lon="2.24293">
        <ele>443.79998779297</ele>
        <time>2025-10-18T11:02:47.000Z</time>
      </trkpt>
      <trkpt lat="42.86436" lon="2.24285">
        <ele>442.60000610352</ele>
        <time>2025-10-18T11:02:48.000Z</time>
      </trkpt>
      <trkpt lat="42.86437" lon="2.24279">
        <ele>442.20001220703</ele>
        <time>2025-10-18T11:02:49.000Z</time>
      </trkpt>
      <trkpt lat="42.86435" lon="2.24273">
        <ele>442.39999389648</ele>
        <time>2025-10-18T11:02:50.000Z</time>
      </trkpt>
      <trkpt lat="42.86431" lon="2.24265">
        <ele>443</ele>
        <time>2025-10-18T11:02:51.000Z</time>
      </trkpt>
      <trkpt lat="42.86422" lon="2.24253">
        <ele>443.20001220703</ele>
        <time>2025-10-18T11:02:53.000Z</time>
      </trkpt>
      <trkpt lat="42.86418" lon="2.24248">
        <ele>442.79998779297</ele>
        <time>2025-10-18T11:02:54.000Z</time>
      </trkpt>
      <trkpt lat="42.86409" lon="2.24243">
        <ele>442.39999389648</ele>
        <time>2025-10-18T11:02:56.000Z</time>
      </trkpt>
      <trkpt lat="42.86393" lon="2.2424">
        <ele>441</ele>
        <time>2025-10-18T11:03:00.000Z</time>
      </trkpt>
      <trkpt lat="42.8638" lon="2.24232">
        <ele>438.60000610352</ele>
        <time>2025-10-18T11:03:04.000Z</time>
      </trkpt>
      <trkpt lat="42.86364" lon="2.24219">
        <ele>436</ele>
        <time>2025-10-18T11:03:09.000Z</time>
      </trkpt>
      <trkpt lat="42.86344" lon="2.24209">
        <ele>433.60000610352</ele>
        <time>2025-10-18T11:03:14.000Z</time>
      </trkpt>
      <trkpt lat="42.86332" lon="2.24203">
        <ele>432.79998779297</ele>
        <time>2025-10-18T11:03:17.000Z</time>
      </trkpt>
      <trkpt lat="42.86328" lon="2.242">
        <ele>432.39999389648</ele>
        <time>2025-10-18T11:03:18.000Z</time>
      </trkpt>
      <trkpt lat="42.86314" lon="2.24189">
        <ele>431</ele>
        <time>2025-10-18T11:03:21.000Z</time>
      </trkpt>
      <trkpt lat="42.86308" lon="2.24179">
        <ele>431</ele>
        <time>2025-10-18T11:03:23.000Z</time>
      </trkpt>
      <trkpt lat="42.86304" lon="2.24169">
        <ele>430.79998779297</ele>
        <time>2025-10-18T11:03:25.000Z</time>
      </trkpt>
      <trkpt lat="42.863" lon="2.24152">
        <ele>430</ele>
        <time>2025-10-18T11:03:28.000Z</time>
      </trkpt>
      <trkpt lat="42.86297" lon="2.24119">
        <ele>426.20001220703</ele>
        <time>2025-10-18T11:03:33.000Z</time>
      </trkpt>
      <trkpt lat="42.86297" lon="2.24114">
        <ele>425.39999389648</ele>
        <time>2025-10-18T11:03:34.000Z</time>
      </trkpt>
      <trkpt lat="42.86293" lon="2.24095">
        <ele>423.60000610352</ele>
        <time>2025-10-18T11:03:37.000Z</time>
      </trkpt>
      <trkpt lat="42.8629" lon="2.24072">
        <ele>422.39999389648</ele>
        <time>2025-10-18T11:03:41.000Z</time>
      </trkpt>
      <trkpt lat="42.86289" lon="2.24065">
        <ele>422</ele>
        <time>2025-10-18T11:03:42.000Z</time>
      </trkpt>
      <trkpt lat="42.86283" lon="2.24035">
        <ele>420.39999389648</ele>
        <time>2025-10-18T11:03:47.000Z</time>
      </trkpt>
      <trkpt lat="42.86274" lon="2.24006">
        <ele>418.39999389648</ele>
        <time>2025-10-18T11:03:52.000Z</time>
      </trkpt>
      <trkpt lat="42.86263" lon="2.23973">
        <ele>415.60000610352</ele>
        <time>2025-10-18T11:03:58.000Z</time>
      </trkpt>
      <trkpt lat="42.86258" lon="2.23963">
        <ele>414.60000610352</ele>
        <time>2025-10-18T11:04:00.000Z</time>
      </trkpt>
      <trkpt lat="42.86252" lon="2.23955">
        <ele>412.79998779297</ele>
        <time>2025-10-18T11:04:02.000Z</time>
      </trkpt>
      <trkpt lat="42.86239" lon="2.23942">
        <ele>410</ele>
        <time>2025-10-18T11:04:06.000Z</time>
      </trkpt>
      <trkpt lat="42.86227" lon="2.2393">
        <ele>408.39999389648</ele>
        <time>2025-10-18T11:04:10.000Z</time>
      </trkpt>
      <trkpt lat="42.86224" lon="2.23927">
        <ele>408</ele>
        <time>2025-10-18T11:04:11.000Z</time>
      </trkpt>
      <trkpt lat="42.86211" lon="2.23905">
        <ele>405.60000610352</ele>
        <time>2025-10-18T11:04:16.000Z</time>
      </trkpt>
      <trkpt lat="42.86204" lon="2.23888">
        <ele>404</ele>
        <time>2025-10-18T11:04:19.000Z</time>
      </trkpt>
      <trkpt lat="42.86201" lon="2.23875">
        <ele>403.20001220703</ele>
        <time>2025-10-18T11:04:21.000Z</time>
      </trkpt>
      <trkpt lat="42.86199" lon="2.23869">
        <ele>403</ele>
        <time>2025-10-18T11:04:22.000Z</time>
      </trkpt>
      <trkpt lat="42.86193" lon="2.23849">
        <ele>402.39999389648</ele>
        <time>2025-10-18T11:04:26.000Z</time>
      </trkpt>
      <trkpt lat="42.86181" lon="2.23827">
        <ele>402.39999389648</ele>
        <time>2025-10-18T11:04:31.000Z</time>
      </trkpt>
      <trkpt lat="42.86177" lon="2.23822">
        <ele>402.20001220703</ele>
        <time>2025-10-18T11:04:32.000Z</time>
      </trkpt>
      <trkpt lat="42.86165" lon="2.23809">
        <ele>400.20001220703</ele>
        <time>2025-10-18T11:04:35.000Z</time>
      </trkpt>
      <trkpt lat="42.86161" lon="2.23805">
        <ele>399.79998779297</ele>
        <time>2025-10-18T11:04:36.000Z</time>
      </trkpt>
      <trkpt lat="42.86146" lon="2.23791">
        <ele>398</ele>
        <time>2025-10-18T11:04:40.000Z</time>
      </trkpt>
      <trkpt lat="42.86139" lon="2.23784">
        <ele>397</ele>
        <time>2025-10-18T11:04:42.000Z</time>
      </trkpt>
      <trkpt lat="42.86125" lon="2.23771">
        <ele>395.20001220703</ele>
        <time>2025-10-18T11:04:46.000Z</time>
      </trkpt>
      <trkpt lat="42.86118" lon="2.23765">
        <ele>394.20001220703</ele>
        <time>2025-10-18T11:04:48.000Z</time>
      </trkpt>
      <trkpt lat="42.86112" lon="2.23758">
        <ele>392.79998779297</ele>
        <time>2025-10-18T11:04:50.000Z</time>
      </trkpt>
      <trkpt lat="42.86107" lon="2.23744">
        <ele>391</ele>
        <time>2025-10-18T11:04:53.000Z</time>
      </trkpt>
      <trkpt lat="42.861" lon="2.23729">
        <ele>390</ele>
        <time>2025-10-18T11:04:56.000Z</time>
      </trkpt>
      <trkpt lat="42.86097" lon="2.23724">
        <ele>389.60000610352</ele>
        <time>2025-10-18T11:04:57.000Z</time>
      </trkpt>
      <trkpt lat="42.86095" lon="2.23718">
        <ele>389.20001220703</ele>
        <time>2025-10-18T11:04:58.000Z</time>
      </trkpt>
      <trkpt lat="42.8609" lon="2.23707">
        <ele>388</ele>
        <time>2025-10-18T11:05:00.000Z</time>
      </trkpt>
      <trkpt lat="42.86089" lon="2.23701">
        <ele>387.39999389648</ele>
        <time>2025-10-18T11:05:01.000Z</time>
      </trkpt>
      <trkpt lat="42.86083" lon="2.23685">
        <ele>385.60000610352</ele>
        <time>2025-10-18T11:05:04.000Z</time>
      </trkpt>
      <trkpt lat="42.8608" lon="2.23684">
        <ele>384.79998779297</ele>
        <time>2025-10-18T11:05:05.000Z</time>
      </trkpt>
      <trkpt lat="42.86075" lon="2.23687">
        <ele>383.20001220703</ele>
        <time>2025-10-18T11:05:07.000Z</time>
      </trkpt>
      <trkpt lat="42.86073" lon="2.23691">
        <ele>383</ele>
        <time>2025-10-18T11:05:08.000Z</time>
      </trkpt>
      <trkpt lat="42.86073" lon="2.23696">
        <ele>383</ele>
        <time>2025-10-18T11:05:09.000Z</time>
      </trkpt>
      <trkpt lat="42.86074" lon="2.23715">
        <ele>383.39999389648</ele>
        <time>2025-10-18T11:05:12.000Z</time>
      </trkpt>
      <trkpt lat="42.86072" lon="2.23748">
        <ele>383.79998779297</ele>
        <time>2025-10-18T11:05:17.000Z</time>
      </trkpt>
      <trkpt lat="42.86073" lon="2.2377">
        <ele>385.60000610352</ele>
        <time>2025-10-18T11:05:21.000Z</time>
      </trkpt>
      <trkpt lat="42.86073" lon="2.23776">
        <ele>385.79998779297</ele>
        <time>2025-10-18T11:05:22.000Z</time>
      </trkpt>
      <trkpt lat="42.86071" lon="2.23796">
        <ele>386</ele>
        <time>2025-10-18T11:05:26.000Z</time>
      </trkpt>
      <trkpt lat="42.8606" lon="2.23816">
        <ele>385.39999389648</ele>
        <time>2025-10-18T11:05:31.000Z</time>
      </trkpt>
      <trkpt lat="42.8605" lon="2.23832">
        <ele>385</ele>
        <time>2025-10-18T11:05:34.000Z</time>
      </trkpt>
      <trkpt lat="42.86046" lon="2.23836">
        <ele>384.60000610352</ele>
        <time>2025-10-18T11:05:35.000Z</time>
      </trkpt>
      <trkpt lat="42.86038" lon="2.23843">
        <ele>384.79998779297</ele>
        <time>2025-10-18T11:05:37.000Z</time>
      </trkpt>
      <trkpt lat="42.86029" lon="2.23843">
        <ele>383.60000610352</ele>
        <time>2025-10-18T11:05:39.000Z</time>
      </trkpt>
      <trkpt lat="42.86022" lon="2.23835">
        <ele>381.79998779297</ele>
        <time>2025-10-18T11:05:41.000Z</time>
      </trkpt>
      <trkpt lat="42.8602" lon="2.2383">
        <ele>380.79998779297</ele>
        <time>2025-10-18T11:05:42.000Z</time>
      </trkpt>
      <trkpt lat="42.86017" lon="2.23826">
        <ele>380</ele>
        <time>2025-10-18T11:05:43.000Z</time>
      </trkpt>
      <trkpt lat="42.86008" lon="2.23817">
        <ele>378.60000610352</ele>
        <time>2025-10-18T11:05:46.000Z</time>
      </trkpt>
      <trkpt lat="42.85995" lon="2.23818">
        <ele>378</ele>
        <time>2025-10-18T11:05:50.000Z</time>
      </trkpt>
      <trkpt lat="42.85976" lon="2.23832">
        <ele>377</ele>
        <time>2025-10-18T11:05:56.000Z</time>
      </trkpt>
      <trkpt lat="42.85963" lon="2.23845">
        <ele>376.60000610352</ele>
        <time>2025-10-18T11:06:01.000Z</time>
      </trkpt>
      <trkpt lat="42.85954" lon="2.23852">
        <ele>376</ele>
        <time>2025-10-18T11:06:04.000Z</time>
      </trkpt>
      <trkpt lat="42.8595" lon="2.23854">
        <ele>376.20001220703</ele>
        <time>2025-10-18T11:06:05.000Z</time>
      </trkpt>
      <trkpt lat="42.85941" lon="2.23858">
        <ele>376.39999389648</ele>
        <time>2025-10-18T11:06:07.000Z</time>
      </trkpt>
      <trkpt lat="42.85929" lon="2.23869">
        <ele>377.39999389648</ele>
        <time>2025-10-18T11:06:10.000Z</time>
      </trkpt>
      <trkpt lat="42.85926" lon="2.23873">
        <ele>377.60000610352</ele>
        <time>2025-10-18T11:06:11.000Z</time>
      </trkpt>
      <trkpt lat="42.85914" lon="2.23875">
        <ele>377.60000610352</ele>
        <time>2025-10-18T11:06:14.000Z</time>
      </trkpt>
      <trkpt lat="42.85903" lon="2.23874">
        <ele>377.39999389648</ele>
        <time>2025-10-18T11:06:18.000Z</time>
      </trkpt>
      <trkpt lat="42.85891" lon="2.23863">
        <ele>377.20001220703</ele>
        <time>2025-10-18T11:06:25.000Z</time>
      </trkpt>
      <trkpt lat="42.85881" lon="2.23846">
        <ele>377.60000610352</ele>
        <time>2025-10-18T11:06:32.000Z</time>
      </trkpt>
      <trkpt lat="42.85875" lon="2.23835">
        <ele>378.39999389648</ele>
        <time>2025-10-18T11:06:38.000Z</time>
      </trkpt>
      <trkpt lat="42.85871" lon="2.23828">
        <ele>379</ele>
        <time>2025-10-18T11:06:44.000Z</time>
      </trkpt>
      <trkpt lat="42.85863" lon="2.23813">
        <ele>380.79998779297</ele>
        <time>2025-10-18T11:07:28.000Z</time>
      </trkpt>
      <trkpt lat="42.8586" lon="2.23809">
        <ele>381.39999389648</ele>
        <time>2025-10-18T11:07:30.000Z</time>
      </trkpt>
      <trkpt lat="42.85849" lon="2.23798">
        <ele>383.39999389648</ele>
        <time>2025-10-18T11:07:36.000Z</time>
      </trkpt>
      <trkpt lat="42.85839" lon="2.23792">
        <ele>385.20001220703</ele>
        <time>2025-10-18T11:07:40.000Z</time>
      </trkpt>
      <trkpt lat="42.85837" lon="2.23792">
        <ele>385.60000610352</ele>
        <time>2025-10-18T11:07:41.000Z</time>
      </trkpt>
      <trkpt lat="42.85831" lon="2.23793">
        <ele>386</ele>
        <time>2025-10-18T11:07:44.000Z</time>
      </trkpt>
      <trkpt lat="42.85829" lon="2.23794">
        <ele>386</ele>
        <time>2025-10-18T11:07:45.000Z</time>
      </trkpt>
      <trkpt lat="42.85821" lon="2.238">
        <ele>386.20001220703</ele>
        <time>2025-10-18T11:07:49.000Z</time>
      </trkpt>
      <trkpt lat="42.85817" lon="2.23805">
        <ele>386.20001220703</ele>
        <time>2025-10-18T11:07:52.000Z</time>
      </trkpt>
      <trkpt lat="42.85808" lon="2.23815">
        <ele>386.60000610352</ele>
        <time>2025-10-18T11:07:57.000Z</time>
      </trkpt>
      <trkpt lat="42.85805" lon="2.2382">
        <ele>386.39999389648</ele>
        <time>2025-10-18T11:07:59.000Z</time>
      </trkpt>
      <trkpt lat="42.85801" lon="2.23825">
        <ele>386.20001220703</ele>
        <time>2025-10-18T11:08:02.000Z</time>
      </trkpt>
      <trkpt lat="42.85787" lon="2.23836">
        <ele>386</ele>
        <time>2025-10-18T11:08:09.000Z</time>
      </trkpt>
      <trkpt lat="42.85777" lon="2.23842">
        <ele>387</ele>
        <time>2025-10-18T11:08:14.000Z</time>
      </trkpt>
      <trkpt lat="42.85768" lon="2.23848">
        <ele>389.60000610352</ele>
        <time>2025-10-18T11:08:19.000Z</time>
      </trkpt>
      <trkpt lat="42.8576" lon="2.23854">
        <ele>391.79998779297</ele>
        <time>2025-10-18T11:08:24.000Z</time>
      </trkpt>
      <trkpt lat="42.85755" lon="2.23862">
        <ele>392.60000610352</ele>
        <time>2025-10-18T11:08:29.000Z</time>
      </trkpt>
      <trkpt lat="42.85754" lon="2.23863">
        <ele>392.79998779297</ele>
        <time>2025-10-18T11:08:30.000Z</time>
      </trkpt>
      <trkpt lat="42.85739" lon="2.23883">
        <ele>394</ele>
        <time>2025-10-18T11:08:43.000Z</time>
      </trkpt>
      <trkpt lat="42.85732" lon="2.23892">
        <ele>394</ele>
        <time>2025-10-18T11:08:46.000Z</time>
      </trkpt>
      <trkpt lat="42.85722" lon="2.23904">
        <ele>393.79998779297</ele>
        <time>2025-10-18T11:08:52.000Z</time>
      </trkpt>
      <trkpt lat="42.85718" lon="2.23907">
        <ele>393.60000610352</ele>
        <time>2025-10-18T11:08:55.000Z</time>
      </trkpt>
      <trkpt lat="42.85712" lon="2.23915">
        <ele>393.39999389648</ele>
        <time>2025-10-18T11:08:59.000Z</time>
      </trkpt>
      <trkpt lat="42.85711" lon="2.23917">
        <ele>393.60000610352</ele>
        <time>2025-10-18T11:09:00.000Z</time>
      </trkpt>
      <trkpt lat="42.85704" lon="2.23929">
        <ele>393.39999389648</ele>
        <time>2025-10-18T11:09:05.000Z</time>
      </trkpt>
      <trkpt lat="42.85702" lon="2.23931">
        <ele>393.60000610352</ele>
        <time>2025-10-18T11:09:06.000Z</time>
      </trkpt>
      <trkpt lat="42.85699" lon="2.23936">
        <ele>394</ele>
        <time>2025-10-18T11:09:09.000Z</time>
      </trkpt>
      <trkpt lat="42.85694" lon="2.23948">
        <ele>395.60000610352</ele>
        <time>2025-10-18T11:09:36.000Z</time>
      </trkpt>
      <trkpt lat="42.85693" lon="2.23951">
        <ele>396</ele>
        <time>2025-10-18T11:09:37.000Z</time>
      </trkpt>
      <trkpt lat="42.85682" lon="2.23966">
        <ele>399</ele>
        <time>2025-10-18T11:09:43.000Z</time>
      </trkpt>
      <trkpt lat="42.8567" lon="2.23972">
        <ele>402</ele>
        <time>2025-10-18T11:09:49.000Z</time>
      </trkpt>
      <trkpt lat="42.8566" lon="2.23977">
        <ele>404.60000610352</ele>
        <time>2025-10-18T11:09:54.000Z</time>
      </trkpt>
      <trkpt lat="42.85647" lon="2.23978">
        <ele>408.20001220703</ele>
        <time>2025-10-18T11:10:00.000Z</time>
      </trkpt>
      <trkpt lat="42.85646" lon="2.23976">
        <ele>408.79998779297</ele>
        <time>2025-10-18T11:10:01.000Z</time>
      </trkpt>
      <trkpt lat="42.85643" lon="2.23968">
        <ele>411</ele>
        <time>2025-10-18T11:10:05.000Z</time>
      </trkpt>
      <trkpt lat="42.85647" lon="2.23958">
        <ele>411.79998779297</ele>
        <time>2025-10-18T11:10:10.000Z</time>
      </trkpt>
      <trkpt lat="42.85655" lon="2.23949">
        <ele>410.39999389648</ele>
        <time>2025-10-18T11:10:16.000Z</time>
      </trkpt>
      <trkpt lat="42.85664" lon="2.23934">
        <ele>408.20001220703</ele>
        <time>2025-10-18T11:10:22.000Z</time>
      </trkpt>
      <trkpt lat="42.85671" lon="2.2392">
        <ele>407.20001220703</ele>
        <time>2025-10-18T11:10:27.000Z</time>
      </trkpt>
      <trkpt lat="42.85672" lon="2.23917">
        <ele>407.20001220703</ele>
        <time>2025-10-18T11:10:28.000Z</time>
      </trkpt>
      <trkpt lat="42.85679" lon="2.23901">
        <ele>407.60000610352</ele>
        <time>2025-10-18T11:10:33.000Z</time>
      </trkpt>
      <trkpt lat="42.85689" lon="2.23887">
        <ele>409</ele>
        <time>2025-10-18T11:10:38.000Z</time>
      </trkpt>
      <trkpt lat="42.85698" lon="2.23863">
        <ele>411.79998779297</ele>
        <time>2025-10-18T11:10:45.000Z</time>
      </trkpt>
      <trkpt lat="42.857" lon="2.23844">
        <ele>413.60000610352</ele>
        <time>2025-10-18T11:10:50.000Z</time>
      </trkpt>
      <trkpt lat="42.857" lon="2.23822">
        <ele>415.60000610352</ele>
        <time>2025-10-18T11:10:56.000Z</time>
      </trkpt>
      <trkpt lat="42.85696" lon="2.23804">
        <ele>415.60000610352</ele>
        <time>2025-10-18T11:11:01.000Z</time>
      </trkpt>
      <trkpt lat="42.85688" lon="2.23796">
        <ele>418.39999389648</ele>
        <time>2025-10-18T11:11:05.000Z</time>
      </trkpt>
      <trkpt lat="42.85675" lon="2.23795">
        <ele>423.20001220703</ele>
        <time>2025-10-18T11:11:10.000Z</time>
      </trkpt>
      <trkpt lat="42.85666" lon="2.238">
        <ele>424.39999389648</ele>
        <time>2025-10-18T11:11:15.000Z</time>
      </trkpt>
      <trkpt lat="42.85656" lon="2.2381">
        <ele>424.79998779297</ele>
        <time>2025-10-18T11:11:21.000Z</time>
      </trkpt>
      <trkpt lat="42.85645" lon="2.23821">
        <ele>425</ele>
        <time>2025-10-18T11:11:27.000Z</time>
      </trkpt>
      <trkpt lat="42.85631" lon="2.2383">
        <ele>425</ele>
        <time>2025-10-18T11:11:33.000Z</time>
      </trkpt>
      <trkpt lat="42.85613" lon="2.23836">
        <ele>425.79998779297</ele>
        <time>2025-10-18T11:11:40.000Z</time>
      </trkpt>
      <trkpt lat="42.85601" lon="2.23832">
        <ele>427.60000610352</ele>
        <time>2025-10-18T11:11:45.000Z</time>
      </trkpt>
      <trkpt lat="42.8559" lon="2.23827">
        <ele>429.79998779297</ele>
        <time>2025-10-18T11:11:50.000Z</time>
      </trkpt>
      <trkpt lat="42.85568" lon="2.23818">
        <ele>437</ele>
        <time>2025-10-18T11:11:59.000Z</time>
      </trkpt>
      <trkpt lat="42.85562" lon="2.2381">
        <ele>440</ele>
        <time>2025-10-18T11:12:04.000Z</time>
      </trkpt>
      <trkpt lat="42.85561" lon="2.23809">
        <ele>440.39999389648</ele>
        <time>2025-10-18T11:12:05.000Z</time>
      </trkpt>
      <trkpt lat="42.85558" lon="2.23808">
        <ele>441</ele>
        <time>2025-10-18T11:12:07.000Z</time>
      </trkpt>
      <trkpt lat="42.85557" lon="2.23809">
        <ele>440.79998779297</ele>
        <time>2025-10-18T11:12:08.000Z</time>
      </trkpt>
      <trkpt lat="42.85557" lon="2.23811">
        <ele>440.60000610352</ele>
        <time>2025-10-18T11:12:09.000Z</time>
      </trkpt>
      <trkpt lat="42.8556" lon="2.23814">
        <ele>439.39999389648</ele>
        <time>2025-10-18T11:12:12.000Z</time>
      </trkpt>
      <trkpt lat="42.8556" lon="2.23814">
        <ele>439.20001220703</ele>
        <time>2025-10-18T11:12:14.000Z</time>
      </trkpt>
      <trkpt lat="42.85564" lon="2.2381">
        <ele>439.60000610352</ele>
        <time>2025-10-18T11:12:31.000Z</time>
      </trkpt>
      <trkpt lat="42.85575" lon="2.23808">
        <ele>437.60000610352</ele>
        <time>2025-10-18T11:12:36.000Z</time>
      </trkpt>
      <trkpt lat="42.85593" lon="2.238">
        <ele>435.60000610352</ele>
        <time>2025-10-18T11:12:42.000Z</time>
      </trkpt>
      <trkpt lat="42.85605" lon="2.23787">
        <ele>435.60000610352</ele>
        <time>2025-10-18T11:12:46.000Z</time>
      </trkpt>
      <trkpt lat="42.85607" lon="2.23782">
        <ele>435.60000610352</ele>
        <time>2025-10-18T11:12:47.000Z</time>
      </trkpt>
      <trkpt lat="42.85628" lon="2.23744">
        <ele>432.20001220703</ele>
        <time>2025-10-18T11:12:54.000Z</time>
      </trkpt>
      <trkpt lat="42.85658" lon="2.23691">
        <ele>432</ele>
        <time>2025-10-18T11:13:03.000Z</time>
      </trkpt>
      <trkpt lat="42.85683" lon="2.23644">
        <ele>434.39999389648</ele>
        <time>2025-10-18T11:13:10.000Z</time>
      </trkpt>
      <trkpt lat="42.85709" lon="2.23588">
        <ele>431.60000610352</ele>
        <time>2025-10-18T11:13:17.000Z</time>
      </trkpt>
      <trkpt lat="42.85734" lon="2.23534">
        <ele>429.79998779297</ele>
        <time>2025-10-18T11:13:23.000Z</time>
      </trkpt>
      <trkpt lat="42.85748" lon="2.23506">
        <ele>429</ele>
        <time>2025-10-18T11:13:26.000Z</time>
      </trkpt>
      <trkpt lat="42.85761" lon="2.23489">
        <ele>426.60000610352</ele>
        <time>2025-10-18T11:13:28.000Z</time>
      </trkpt>
      <trkpt lat="42.85799" lon="2.23451">
        <ele>424.20001220703</ele>
        <time>2025-10-18T11:13:33.000Z</time>
      </trkpt>
      <trkpt lat="42.85845" lon="2.23402">
        <ele>417.79998779297</ele>
        <time>2025-10-18T11:13:39.000Z</time>
      </trkpt>
      <trkpt lat="42.85853" lon="2.23393">
        <ele>417.20001220703</ele>
        <time>2025-10-18T11:13:40.000Z</time>
      </trkpt>
      <trkpt lat="42.85896" lon="2.2334">
        <ele>415.60000610352</ele>
        <time>2025-10-18T11:13:46.000Z</time>
      </trkpt>
      <trkpt lat="42.8591" lon="2.23321">
        <ele>414.39999389648</ele>
        <time>2025-10-18T11:13:48.000Z</time>
      </trkpt>
      <trkpt lat="42.85953" lon="2.23261">
        <ele>408.20001220703</ele>
        <time>2025-10-18T11:13:54.000Z</time>
      </trkpt>
      <trkpt lat="42.85987" lon="2.23212">
        <ele>401.20001220703</ele>
        <time>2025-10-18T11:13:59.000Z</time>
      </trkpt>
      <trkpt lat="42.86021" lon="2.23163">
        <ele>398</ele>
        <time>2025-10-18T11:14:04.000Z</time>
      </trkpt>
      <trkpt lat="42.86026" lon="2.23152">
        <ele>398.20001220703</ele>
        <time>2025-10-18T11:14:05.000Z</time>
      </trkpt>
      <trkpt lat="42.8603" lon="2.2314">
        <ele>397.39999389648</ele>
        <time>2025-10-18T11:14:06.000Z</time>
      </trkpt>
      <trkpt lat="42.8603" lon="2.23115">
        <ele>396.60000610352</ele>
        <time>2025-10-18T11:14:08.000Z</time>
      </trkpt>
      <trkpt lat="42.86023" lon="2.2309">
        <ele>396.20001220703</ele>
        <time>2025-10-18T11:14:10.000Z</time>
      </trkpt>
      <trkpt lat="42.86018" lon="2.23079">
        <ele>396</ele>
        <time>2025-10-18T11:14:11.000Z</time>
      </trkpt>
      <trkpt lat="42.86003" lon="2.23035">
        <ele>396</ele>
        <time>2025-10-18T11:14:15.000Z</time>
      </trkpt>
      <trkpt lat="42.86001" lon="2.23013">
        <ele>396.60000610352</ele>
        <time>2025-10-18T11:14:17.000Z</time>
      </trkpt>
      <trkpt lat="42.86001" lon="2.2299">
        <ele>396.79998779297</ele>
        <time>2025-10-18T11:14:19.000Z</time>
      </trkpt>
      <trkpt lat="42.86005" lon="2.22967">
        <ele>396</ele>
        <time>2025-10-18T11:14:21.000Z</time>
      </trkpt>
      <trkpt lat="42.86011" lon="2.22947">
        <ele>397</ele>
        <time>2025-10-18T11:14:23.000Z</time>
      </trkpt>
      <trkpt lat="42.86024" lon="2.22905">
        <ele>396.79998779297</ele>
        <time>2025-10-18T11:14:28.000Z</time>
      </trkpt>
      <trkpt lat="42.86029" lon="2.22887">
        <ele>393.60000610352</ele>
        <time>2025-10-18T11:14:31.000Z</time>
      </trkpt>
      <trkpt lat="42.86029" lon="2.22881">
        <ele>393.39999389648</ele>
        <time>2025-10-18T11:14:32.000Z</time>
      </trkpt>
      <trkpt lat="42.86028" lon="2.22873">
        <ele>393.20001220703</ele>
        <time>2025-10-18T11:14:35.000Z</time>
      </trkpt>
      <trkpt lat="42.86028" lon="2.22872">
        <ele>393.20001220703</ele>
        <time>2025-10-18T11:14:36.000Z</time>
      </trkpt>
      <trkpt lat="42.86031" lon="2.22869">
        <ele>392.20001220703</ele>
        <time>2025-10-18T11:15:40.000Z</time>
      </trkpt>
      <trkpt lat="42.86033" lon="2.22867">
        <ele>391.39999389648</ele>
        <time>2025-10-18T11:15:41.000Z</time>
      </trkpt>
      <trkpt lat="42.86044" lon="2.2286">
        <ele>387.20001220703</ele>
        <time>2025-10-18T11:15:45.000Z</time>
      </trkpt>
      <trkpt lat="42.86066" lon="2.22838">
        <ele>383</ele>
        <time>2025-10-18T11:15:52.000Z</time>
      </trkpt>
      <trkpt lat="42.86065" lon="2.22825">
        <ele>384.20001220703</ele>
        <time>2025-10-18T11:15:55.000Z</time>
      </trkpt>
      <trkpt lat="42.86062" lon="2.22808">
        <ele>386.20001220703</ele>
        <time>2025-10-18T11:16:00.000Z</time>
      </trkpt>
      <trkpt lat="42.8606" lon="2.22791">
        <ele>388</ele>
        <time>2025-10-18T11:16:05.000Z</time>
      </trkpt>
      <trkpt lat="42.86055" lon="2.22773">
        <ele>390</ele>
        <time>2025-10-18T11:16:10.000Z</time>
      </trkpt>
      <trkpt lat="42.86044" lon="2.22751">
        <ele>393.60000610352</ele>
        <time>2025-10-18T11:16:17.000Z</time>
      </trkpt>
      <trkpt lat="42.8603" lon="2.22749">
        <ele>394.39999389648</ele>
        <time>2025-10-18T11:16:22.000Z</time>
      </trkpt>
      <trkpt lat="42.86018" lon="2.22758">
        <ele>393.79998779297</ele>
        <time>2025-10-18T11:16:27.000Z</time>
      </trkpt>
      <trkpt lat="42.86004" lon="2.22765">
        <ele>394.20001220703</ele>
        <time>2025-10-18T11:16:32.000Z</time>
      </trkpt>
      <trkpt lat="42.85994" lon="2.22759">
        <ele>396.60000610352</ele>
        <time>2025-10-18T11:16:36.000Z</time>
      </trkpt>
      <trkpt lat="42.85987" lon="2.22749">
        <ele>398</ele>
        <time>2025-10-18T11:16:40.000Z</time>
      </trkpt>
      <trkpt lat="42.85979" lon="2.2273">
        <ele>400.39999389648</ele>
        <time>2025-10-18T11:16:46.000Z</time>
      </trkpt>
      <trkpt lat="42.85973" lon="2.22715">
        <ele>402.60000610352</ele>
        <time>2025-10-18T11:16:51.000Z</time>
      </trkpt>
      <trkpt lat="42.85968" lon="2.22699">
        <ele>404.60000610352</ele>
        <time>2025-10-18T11:16:56.000Z</time>
      </trkpt>
      <trkpt lat="42.85969" lon="2.22696">
        <ele>404.39999389648</ele>
        <time>2025-10-18T11:16:57.000Z</time>
      </trkpt>
      <trkpt lat="42.85974" lon="2.22694">
        <ele>403.60000610352</ele>
        <time>2025-10-18T11:16:59.000Z</time>
      </trkpt>
      <trkpt lat="42.85988" lon="2.227">
        <ele>401.20001220703</ele>
        <time>2025-10-18T11:17:04.000Z</time>
      </trkpt>
      <trkpt lat="42.86004" lon="2.227">
        <ele>400.60000610352</ele>
        <time>2025-10-18T11:17:10.000Z</time>
      </trkpt>
      <trkpt lat="42.86008" lon="2.22691">
        <ele>401.60000610352</ele>
        <time>2025-10-18T11:17:13.000Z</time>
      </trkpt>
      <trkpt lat="42.86003" lon="2.22684">
        <ele>402.39999389648</ele>
        <time>2025-10-18T11:17:16.000Z</time>
      </trkpt>
      <trkpt lat="42.85991" lon="2.22683">
        <ele>402.79998779297</ele>
        <time>2025-10-18T11:17:20.000Z</time>
      </trkpt>
      <trkpt lat="42.85983" lon="2.22678">
        <ele>403.60000610352</ele>
        <time>2025-10-18T11:17:23.000Z</time>
      </trkpt>
      <trkpt lat="42.85979" lon="2.22673">
        <ele>404.60000610352</ele>
        <time>2025-10-18T11:17:25.000Z</time>
      </trkpt>
      <trkpt lat="42.85968" lon="2.22656">
        <ele>407.79998779297</ele>
        <time>2025-10-18T11:17:30.000Z</time>
      </trkpt>
      <trkpt lat="42.85951" lon="2.22638">
        <ele>409.79998779297</ele>
        <time>2025-10-18T11:17:37.000Z</time>
      </trkpt>
      <trkpt lat="42.85942" lon="2.22624">
        <ele>411.39999389648</ele>
        <time>2025-10-18T11:17:42.000Z</time>
      </trkpt>
      <trkpt lat="42.85943" lon="2.22615">
        <ele>412.20001220703</ele>
        <time>2025-10-18T11:17:45.000Z</time>
      </trkpt>
      <trkpt lat="42.85945" lon="2.22614">
        <ele>412.20001220703</ele>
        <time>2025-10-18T11:17:46.000Z</time>
      </trkpt>
      <trkpt lat="42.85953" lon="2.22618">
        <ele>411.39999389648</ele>
        <time>2025-10-18T11:17:50.000Z</time>
      </trkpt>
      <trkpt lat="42.85966" lon="2.22633">
        <ele>410.20001220703</ele>
        <time>2025-10-18T11:17:56.000Z</time>
      </trkpt>
      <trkpt lat="42.8598" lon="2.22642">
        <ele>409.39999389648</ele>
        <time>2025-10-18T11:18:01.000Z</time>
      </trkpt>
      <trkpt lat="42.85997" lon="2.22642">
        <ele>409.79998779297</ele>
        <time>2025-10-18T11:18:07.000Z</time>
      </trkpt>
      <trkpt lat="42.86009" lon="2.2263">
        <ele>413.20001220703</ele>
        <time>2025-10-18T11:18:13.000Z</time>
      </trkpt>
      <trkpt lat="42.86013" lon="2.22629">
        <ele>413</ele>
        <time>2025-10-18T11:18:15.000Z</time>
      </trkpt>
      <trkpt lat="42.86017" lon="2.22626">
        <ele>413.39999389648</ele>
        <time>2025-10-18T11:18:17.000Z</time>
      </trkpt>
      <trkpt lat="42.86018" lon="2.22623">
        <ele>414</ele>
        <time>2025-10-18T11:18:18.000Z</time>
      </trkpt>
      <trkpt lat="42.86018" lon="2.22616">
        <ele>415.39999389648</ele>
        <time>2025-10-18T11:18:20.000Z</time>
      </trkpt>
      <trkpt lat="42.86016" lon="2.22614">
        <ele>416</ele>
        <time>2025-10-18T11:18:21.000Z</time>
      </trkpt>
      <trkpt lat="42.86014" lon="2.22612">
        <ele>416.60000610352</ele>
        <time>2025-10-18T11:18:22.000Z</time>
      </trkpt>
      <trkpt lat="42.86009" lon="2.22614">
        <ele>416.60000610352</ele>
        <time>2025-10-18T11:18:24.000Z</time>
      </trkpt>
      <trkpt lat="42.85995" lon="2.22623">
        <ele>414</ele>
        <time>2025-10-18T11:18:30.000Z</time>
      </trkpt>
      <trkpt lat="42.85982" lon="2.22615">
        <ele>415</ele>
        <time>2025-10-18T11:18:35.000Z</time>
      </trkpt>
      <trkpt lat="42.85972" lon="2.22598">
        <ele>417</ele>
        <time>2025-10-18T11:18:41.000Z</time>
      </trkpt>
      <trkpt lat="42.85962" lon="2.22574">
        <ele>419.60000610352</ele>
        <time>2025-10-18T11:18:48.000Z</time>
      </trkpt>
      <trkpt lat="42.85962" lon="2.22559">
        <ele>421.79998779297</ele>
        <time>2025-10-18T11:18:52.000Z</time>
      </trkpt>
      <trkpt lat="42.85964" lon="2.22557">
        <ele>422.39999389648</ele>
        <time>2025-10-18T11:18:53.000Z</time>
      </trkpt>
      <trkpt lat="42.85968" lon="2.22557">
        <ele>423</ele>
        <time>2025-10-18T11:18:55.000Z</time>
      </trkpt>
      <trkpt lat="42.85973" lon="2.22561">
        <ele>423.20001220703</ele>
        <time>2025-10-18T11:18:57.000Z</time>
      </trkpt>
      <trkpt lat="42.85975" lon="2.22567">
        <ele>422.79998779297</ele>
        <time>2025-10-18T11:18:59.000Z</time>
      </trkpt>
      <trkpt lat="42.85983" lon="2.22591">
        <ele>420.20001220703</ele>
        <time>2025-10-18T11:19:05.000Z</time>
      </trkpt>
      <trkpt lat="42.85989" lon="2.22594">
        <ele>420</ele>
        <time>2025-10-18T11:19:07.000Z</time>
      </trkpt>
      <trkpt lat="42.85992" lon="2.22593">
        <ele>420.39999389648</ele>
        <time>2025-10-18T11:19:08.000Z</time>
      </trkpt>
      <trkpt lat="42.86002" lon="2.2258">
        <ele>423.39999389648</ele>
        <time>2025-10-18T11:19:12.000Z</time>
      </trkpt>
      <trkpt lat="42.86009" lon="2.22558">
        <ele>427</ele>
        <time>2025-10-18T11:19:18.000Z</time>
      </trkpt>
      <trkpt lat="42.86018" lon="2.22538">
        <ele>428.20001220703</ele>
        <time>2025-10-18T11:19:24.000Z</time>
      </trkpt>
      <trkpt lat="42.8602" lon="2.2253">
        <ele>429</ele>
        <time>2025-10-18T11:19:26.000Z</time>
      </trkpt>
      <trkpt lat="42.86019" lon="2.22527">
        <ele>429.60000610352</ele>
        <time>2025-10-18T11:19:27.000Z</time>
      </trkpt>
      <trkpt lat="42.86012" lon="2.22529">
        <ele>430.39999389648</ele>
        <time>2025-10-18T11:19:30.000Z</time>
      </trkpt>
      <trkpt lat="42.86004" lon="2.2254">
        <ele>428.60000610352</ele>
        <time>2025-10-18T11:19:34.000Z</time>
      </trkpt>
      <trkpt lat="42.85996" lon="2.22543">
        <ele>427.60000610352</ele>
        <time>2025-10-18T11:19:37.000Z</time>
      </trkpt>
      <trkpt lat="42.85993" lon="2.22541">
        <ele>427.60000610352</ele>
        <time>2025-10-18T11:19:38.000Z</time>
      </trkpt>
      <trkpt lat="42.85988" lon="2.22522">
        <ele>429.39999389648</ele>
        <time>2025-10-18T11:19:43.000Z</time>
      </trkpt>
      <trkpt lat="42.85985" lon="2.22489">
        <ele>434</ele>
        <time>2025-10-18T11:19:51.000Z</time>
      </trkpt>
      <trkpt lat="42.85981" lon="2.22465">
        <ele>437.79998779297</ele>
        <time>2025-10-18T11:19:57.000Z</time>
      </trkpt>
      <trkpt lat="42.85972" lon="2.22439">
        <ele>443</ele>
        <time>2025-10-18T11:20:04.000Z</time>
      </trkpt>
      <trkpt lat="42.85963" lon="2.22428">
        <ele>445.20001220703</ele>
        <time>2025-10-18T11:20:08.000Z</time>
      </trkpt>
      <trkpt lat="42.85951" lon="2.22425">
        <ele>446</ele>
        <time>2025-10-18T11:20:12.000Z</time>
      </trkpt>
      <trkpt lat="42.85938" lon="2.22435">
        <ele>444.20001220703</ele>
        <time>2025-10-18T11:20:17.000Z</time>
      </trkpt>
      <trkpt lat="42.85923" lon="2.22445">
        <ele>443</ele>
        <time>2025-10-18T11:20:23.000Z</time>
      </trkpt>
      <trkpt lat="42.85913" lon="2.22443">
        <ele>444.39999389648</ele>
        <time>2025-10-18T11:20:27.000Z</time>
      </trkpt>
      <trkpt lat="42.85906" lon="2.22435">
        <ele>447</ele>
        <time>2025-10-18T11:20:31.000Z</time>
      </trkpt>
      <trkpt lat="42.85901" lon="2.22431">
        <ele>448.60000610352</ele>
        <time>2025-10-18T11:20:33.000Z</time>
      </trkpt>
      <trkpt lat="42.85895" lon="2.22429">
        <ele>449.20001220703</ele>
        <time>2025-10-18T11:20:35.000Z</time>
      </trkpt>
      <trkpt lat="42.85877" lon="2.22428">
        <ele>450</ele>
        <time>2025-10-18T11:20:41.000Z</time>
      </trkpt>
      <trkpt lat="42.85871" lon="2.2243">
        <ele>449.79998779297</ele>
        <time>2025-10-18T11:20:43.000Z</time>
      </trkpt>
      <trkpt lat="42.85865" lon="2.22429">
        <ele>449.79998779297</ele>
        <time>2025-10-18T11:20:45.000Z</time>
      </trkpt>
      <trkpt lat="42.85849" lon="2.22429">
        <ele>449.20001220703</ele>
        <time>2025-10-18T11:20:50.000Z</time>
      </trkpt>
      <trkpt lat="42.85828" lon="2.22421">
        <ele>451.39999389648</ele>
        <time>2025-10-18T11:20:57.000Z</time>
      </trkpt>
      <trkpt lat="42.85807" lon="2.22414">
        <ele>453.60000610352</ele>
        <time>2025-10-18T11:21:04.000Z</time>
      </trkpt>
      <trkpt lat="42.85791" lon="2.22403">
        <ele>455.60000610352</ele>
        <time>2025-10-18T11:21:10.000Z</time>
      </trkpt>
      <trkpt lat="42.85789" lon="2.22399">
        <ele>456.39999389648</ele>
        <time>2025-10-18T11:21:11.000Z</time>
      </trkpt>
      <trkpt lat="42.85788" lon="2.22392">
        <ele>458.39999389648</ele>
        <time>2025-10-18T11:21:13.000Z</time>
      </trkpt>
      <trkpt lat="42.85793" lon="2.22389">
        <ele>459.20001220703</ele>
        <time>2025-10-18T11:21:15.000Z</time>
      </trkpt>
      <trkpt lat="42.85795" lon="2.2239">
        <ele>459.20001220703</ele>
        <time>2025-10-18T11:21:16.000Z</time>
      </trkpt>
      <trkpt lat="42.85809" lon="2.22398">
        <ele>457.79998779297</ele>
        <time>2025-10-18T11:21:22.000Z</time>
      </trkpt>
      <trkpt lat="42.85821" lon="2.22394">
        <ele>459</ele>
        <time>2025-10-18T11:21:27.000Z</time>
      </trkpt>
      <trkpt lat="42.85836" lon="2.22391">
        <ele>460.39999389648</ele>
        <time>2025-10-18T11:21:32.000Z</time>
      </trkpt>
      <trkpt lat="42.85849" lon="2.2239">
        <ele>461.79998779297</ele>
        <time>2025-10-18T11:21:37.000Z</time>
      </trkpt>
      <trkpt lat="42.8587" lon="2.22388">
        <ele>462</ele>
        <time>2025-10-18T11:21:44.000Z</time>
      </trkpt>
      <trkpt lat="42.85883" lon="2.22384">
        <ele>464</ele>
        <time>2025-10-18T11:21:49.000Z</time>
      </trkpt>
      <trkpt lat="42.85898" lon="2.2238">
        <ele>466.20001220703</ele>
        <time>2025-10-18T11:21:54.000Z</time>
      </trkpt>
      <trkpt lat="42.85919" lon="2.22372">
        <ele>468.39999389648</ele>
        <time>2025-10-18T11:22:01.000Z</time>
      </trkpt>
      <trkpt lat="42.85932" lon="2.22359">
        <ele>469</ele>
        <time>2025-10-18T11:22:06.000Z</time>
      </trkpt>
      <trkpt lat="42.85954" lon="2.22339">
        <ele>470.79998779297</ele>
        <time>2025-10-18T11:22:14.000Z</time>
      </trkpt>
      <trkpt lat="42.85972" lon="2.22322">
        <ele>471.39999389648</ele>
        <time>2025-10-18T11:22:21.000Z</time>
      </trkpt>
      <trkpt lat="42.85983" lon="2.22304">
        <ele>472</ele>
        <time>2025-10-18T11:22:27.000Z</time>
      </trkpt>
      <trkpt lat="42.85991" lon="2.22271">
        <ele>473.20001220703</ele>
        <time>2025-10-18T11:22:35.000Z</time>
      </trkpt>
      <trkpt lat="42.85995" lon="2.22243">
        <ele>475</ele>
        <time>2025-10-18T11:22:42.000Z</time>
      </trkpt>
      <trkpt lat="42.85995" lon="2.22217">
        <ele>481.20001220703</ele>
        <time>2025-10-18T11:22:49.000Z</time>
      </trkpt>
      <trkpt lat="42.85997" lon="2.2219">
        <ele>485</ele>
        <time>2025-10-18T11:22:56.000Z</time>
      </trkpt>
      <trkpt lat="42.86004" lon="2.22165">
        <ele>483.60000610352</ele>
        <time>2025-10-18T11:23:03.000Z</time>
      </trkpt>
      <trkpt lat="42.86006" lon="2.2215">
        <ele>483</ele>
        <time>2025-10-18T11:23:09.000Z</time>
      </trkpt>
      <trkpt lat="42.86003" lon="2.22149">
        <ele>484.39999389648</ele>
        <time>2025-10-18T11:23:11.000Z</time>
      </trkpt>
      <trkpt lat="42.85999" lon="2.22152">
        <ele>485.79998779297</ele>
        <time>2025-10-18T11:23:13.000Z</time>
      </trkpt>
      <trkpt lat="42.85993" lon="2.22168">
        <ele>487</ele>
        <time>2025-10-18T11:23:19.000Z</time>
      </trkpt>
      <trkpt lat="42.85984" lon="2.22193">
        <ele>491</ele>
        <time>2025-10-18T11:23:27.000Z</time>
      </trkpt>
      <trkpt lat="42.85976" lon="2.22216">
        <ele>489.60000610352</ele>
        <time>2025-10-18T11:23:34.000Z</time>
      </trkpt>
      <trkpt lat="42.85965" lon="2.22237">
        <ele>488.39999389648</ele>
        <time>2025-10-18T11:23:41.000Z</time>
      </trkpt>
      <trkpt lat="42.85951" lon="2.22251">
        <ele>490.60000610352</ele>
        <time>2025-10-18T11:23:48.000Z</time>
      </trkpt>
      <trkpt lat="42.85934" lon="2.22263">
        <ele>491.79998779297</ele>
        <time>2025-10-18T11:23:55.000Z</time>
      </trkpt>
      <trkpt lat="42.85918" lon="2.22273">
        <ele>491.60000610352</ele>
        <time>2025-10-18T11:24:02.000Z</time>
      </trkpt>
      <trkpt lat="42.85901" lon="2.22286">
        <ele>489.20001220703</ele>
        <time>2025-10-18T11:24:09.000Z</time>
      </trkpt>
      <trkpt lat="42.85889" lon="2.22292">
        <ele>489.39999389648</ele>
        <time>2025-10-18T11:24:14.000Z</time>
      </trkpt>
      <trkpt lat="42.85885" lon="2.22288">
        <ele>491.39999389648</ele>
        <time>2025-10-18T11:24:16.000Z</time>
      </trkpt>
      <trkpt lat="42.85886" lon="2.22282">
        <ele>493.39999389648</ele>
        <time>2025-10-18T11:24:18.000Z</time>
      </trkpt>
      <trkpt lat="42.85888" lon="2.2228">
        <ele>493.60000610352</ele>
        <time>2025-10-18T11:24:19.000Z</time>
      </trkpt>
      <trkpt lat="42.85898" lon="2.22274">
        <ele>493</ele>
        <time>2025-10-18T11:24:23.000Z</time>
      </trkpt>
      <trkpt lat="42.85913" lon="2.22258">
        <ele>498.60000610352</ele>
        <time>2025-10-18T11:24:30.000Z</time>
      </trkpt>
      <trkpt lat="42.85929" lon="2.22231">
        <ele>502</ele>
        <time>2025-10-18T11:24:39.000Z</time>
      </trkpt>
      <trkpt lat="42.8594" lon="2.22208">
        <ele>502.60000610352</ele>
        <time>2025-10-18T11:24:46.000Z</time>
      </trkpt>
      <trkpt lat="42.85948" lon="2.22188">
        <ele>502.20001220703</ele>
        <time>2025-10-18T11:24:52.000Z</time>
      </trkpt>
      <trkpt lat="42.85955" lon="2.22166">
        <ele>500.20001220703</ele>
        <time>2025-10-18T11:24:58.000Z</time>
      </trkpt>
      <trkpt lat="42.85954" lon="2.22146">
        <ele>500.20001220703</ele>
        <time>2025-10-18T11:25:03.000Z</time>
      </trkpt>
      <trkpt lat="42.85944" lon="2.22132">
        <ele>502.79998779297</ele>
        <time>2025-10-18T11:25:08.000Z</time>
      </trkpt>
      <trkpt lat="42.85932" lon="2.22116">
        <ele>507.20001220703</ele>
        <time>2025-10-18T11:25:14.000Z</time>
      </trkpt>
      <trkpt lat="42.85926" lon="2.22099">
        <ele>509.79998779297</ele>
        <time>2025-10-18T11:25:19.000Z</time>
      </trkpt>
      <trkpt lat="42.85927" lon="2.2208">
        <ele>511.20001220703</ele>
        <time>2025-10-18T11:25:24.000Z</time>
      </trkpt>
      <trkpt lat="42.85929" lon="2.22078">
        <ele>511</ele>
        <time>2025-10-18T11:25:25.000Z</time>
      </trkpt>
      <trkpt lat="42.85933" lon="2.22068">
        <ele>511.60000610352</ele>
        <time>2025-10-18T11:25:28.000Z</time>
      </trkpt>
      <trkpt lat="42.8594" lon="2.2205">
        <ele>512</ele>
        <time>2025-10-18T11:25:33.000Z</time>
      </trkpt>
      <trkpt lat="42.85946" lon="2.22038">
        <ele>511.79998779297</ele>
        <time>2025-10-18T11:25:37.000Z</time>
      </trkpt>
      <trkpt lat="42.85957" lon="2.22024">
        <ele>506.60000610352</ele>
        <time>2025-10-18T11:25:42.000Z</time>
      </trkpt>
      <trkpt lat="42.85969" lon="2.22009">
        <ele>503</ele>
        <time>2025-10-18T11:25:48.000Z</time>
      </trkpt>
      <trkpt lat="42.85967" lon="2.21993">
        <ele>508</ele>
        <time>2025-10-18T11:25:53.000Z</time>
      </trkpt>
      <trkpt lat="42.85967" lon="2.21981">
        <ele>509.60000610352</ele>
        <time>2025-10-18T11:25:59.000Z</time>
      </trkpt>
      <trkpt lat="42.85968" lon="2.21963">
        <ele>511.60000610352</ele>
        <time>2025-10-18T11:32:13.000Z</time>
      </trkpt>
      <trkpt lat="42.85968" lon="2.21957">
        <ele>512.79998779297</ele>
        <time>2025-10-18T11:32:16.000Z</time>
      </trkpt>
      <trkpt lat="42.85967" lon="2.21956">
        <ele>513.20001220703</ele>
        <time>2025-10-18T11:32:17.000Z</time>
      </trkpt>
      <trkpt lat="42.85966" lon="2.21925">
        <ele>519.79998779297</ele>
        <time>2025-10-18T11:32:38.000Z</time>
      </trkpt>
      <trkpt lat="42.85969" lon="2.21914">
        <ele>519.40002441406</ele>
        <time>2025-10-18T11:32:42.000Z</time>
      </trkpt>
      <trkpt lat="42.85972" lon="2.21898">
        <ele>518.59997558594</ele>
        <time>2025-10-18T11:32:47.000Z</time>
      </trkpt>
      <trkpt lat="42.85977" lon="2.21876">
        <ele>517</ele>
        <time>2025-10-18T11:32:53.000Z</time>
      </trkpt>
      <trkpt lat="42.85978" lon="2.21868">
        <ele>518</ele>
        <time>2025-10-18T11:32:55.000Z</time>
      </trkpt>
      <trkpt lat="42.85976" lon="2.2186">
        <ele>521</ele>
        <time>2025-10-18T11:32:57.000Z</time>
      </trkpt>
      <trkpt lat="42.85971" lon="2.21845">
        <ele>526.59997558594</ele>
        <time>2025-10-18T11:33:01.000Z</time>
      </trkpt>
      <trkpt lat="42.85972" lon="2.21841">
        <ele>527.20001220703</ele>
        <time>2025-10-18T11:33:02.000Z</time>
      </trkpt>
      <trkpt lat="42.85981" lon="2.21826">
        <ele>526.59997558594</ele>
        <time>2025-10-18T11:33:06.000Z</time>
      </trkpt>
      <trkpt lat="42.85993" lon="2.21807">
        <ele>525.59997558594</ele>
        <time>2025-10-18T11:33:11.000Z</time>
      </trkpt>
      <trkpt lat="42.86001" lon="2.21782">
        <ele>526.79998779297</ele>
        <time>2025-10-18T11:33:16.000Z</time>
      </trkpt>
      <trkpt lat="42.86012" lon="2.21771">
        <ele>525.40002441406</ele>
        <time>2025-10-18T11:33:20.000Z</time>
      </trkpt>
      <trkpt lat="42.86028" lon="2.21776">
        <ele>520.20001220703</ele>
        <time>2025-10-18T11:33:24.000Z</time>
      </trkpt>
      <trkpt lat="42.8604" lon="2.21772">
        <ele>518</ele>
        <time>2025-10-18T11:33:27.000Z</time>
      </trkpt>
      <trkpt lat="42.86054" lon="2.21751">
        <ele>521.40002441406</ele>
        <time>2025-10-18T11:33:32.000Z</time>
      </trkpt>
      <trkpt lat="42.86066" lon="2.21726">
        <ele>524.59997558594</ele>
        <time>2025-10-18T11:33:38.000Z</time>
      </trkpt>
      <trkpt lat="42.8608" lon="2.21695">
        <ele>526</ele>
        <time>2025-10-18T11:33:45.000Z</time>
      </trkpt>
      <trkpt lat="42.86087" lon="2.21673">
        <ele>527.20001220703</ele>
        <time>2025-10-18T11:33:50.000Z</time>
      </trkpt>
      <trkpt lat="42.86096" lon="2.21638">
        <ele>528.40002441406</ele>
        <time>2025-10-18T11:33:57.000Z</time>
      </trkpt>
      <trkpt lat="42.86102" lon="2.21602">
        <ele>529.20001220703</ele>
        <time>2025-10-18T11:34:04.000Z</time>
      </trkpt>
      <trkpt lat="42.86108" lon="2.21553">
        <ele>533.59997558594</ele>
        <time>2025-10-18T11:34:13.000Z</time>
      </trkpt>
      <trkpt lat="42.86111" lon="2.21519">
        <ele>534.40002441406</ele>
        <time>2025-10-18T11:34:19.000Z</time>
      </trkpt>
      <trkpt lat="42.86114" lon="2.21468">
        <ele>535.79998779297</ele>
        <time>2025-10-18T11:34:27.000Z</time>
      </trkpt>
      <trkpt lat="42.86115" lon="2.21444">
        <ele>537</ele>
        <time>2025-10-18T11:34:31.000Z</time>
      </trkpt>
      <trkpt lat="42.86117" lon="2.21433">
        <ele>537.20001220703</ele>
        <time>2025-10-18T11:34:33.000Z</time>
      </trkpt>
      <trkpt lat="42.86119" lon="2.2141">
        <ele>540.40002441406</ele>
        <time>2025-10-18T11:34:37.000Z</time>
      </trkpt>
      <trkpt lat="42.86122" lon="2.21394">
        <ele>541.79998779297</ele>
        <time>2025-10-18T11:34:40.000Z</time>
      </trkpt>
      <trkpt lat="42.86124" lon="2.21388">
        <ele>542.20001220703</ele>
        <time>2025-10-18T11:34:41.000Z</time>
      </trkpt>
      <trkpt lat="42.8613" lon="2.21364">
        <ele>543</ele>
        <time>2025-10-18T11:34:46.000Z</time>
      </trkpt>
      <trkpt lat="42.8614" lon="2.21338">
        <ele>540.59997558594</ele>
        <time>2025-10-18T11:34:52.000Z</time>
      </trkpt>
      <trkpt lat="42.86152" lon="2.21313">
        <ele>537</ele>
        <time>2025-10-18T11:34:58.000Z</time>
      </trkpt>
      <trkpt lat="42.86162" lon="2.21286">
        <ele>535.20001220703</ele>
        <time>2025-10-18T11:35:04.000Z</time>
      </trkpt>
      <trkpt lat="42.86171" lon="2.21257">
        <ele>536.79998779297</ele>
        <time>2025-10-18T11:35:10.000Z</time>
      </trkpt>
      <trkpt lat="42.86177" lon="2.2122">
        <ele>538.40002441406</ele>
        <time>2025-10-18T11:35:17.000Z</time>
      </trkpt>
      <trkpt lat="42.86179" lon="2.21184">
        <ele>537</ele>
        <time>2025-10-18T11:35:24.000Z</time>
      </trkpt>
      <trkpt lat="42.86179" lon="2.21152">
        <ele>536.79998779297</ele>
        <time>2025-10-18T11:35:30.000Z</time>
      </trkpt>
      <trkpt lat="42.86174" lon="2.21139">
        <ele>537</ele>
        <time>2025-10-18T11:35:34.000Z</time>
      </trkpt>
      <trkpt lat="42.86164" lon="2.21134">
        <ele>540</ele>
        <time>2025-10-18T11:35:38.000Z</time>
      </trkpt>
      <trkpt lat="42.86143" lon="2.21134">
        <ele>548.40002441406</ele>
        <time>2025-10-18T11:35:44.000Z</time>
      </trkpt>
      <trkpt lat="42.86128" lon="2.21122">
        <ele>552.40002441406</ele>
        <time>2025-10-18T11:35:49.000Z</time>
      </trkpt>
      <trkpt lat="42.86116" lon="2.21103">
        <ele>554.20001220703</ele>
        <time>2025-10-18T11:35:55.000Z</time>
      </trkpt>
      <trkpt lat="42.86109" lon="2.21083">
        <ele>553.79998779297</ele>
        <time>2025-10-18T11:36:00.000Z</time>
      </trkpt>
      <trkpt lat="42.86105" lon="2.21055">
        <ele>551.79998779297</ele>
        <time>2025-10-18T11:36:06.000Z</time>
      </trkpt>
      <trkpt lat="42.861" lon="2.21029">
        <ele>553.59997558594</ele>
        <time>2025-10-18T11:36:11.000Z</time>
      </trkpt>
      <trkpt lat="42.86098" lon="2.21005">
        <ele>554.20001220703</ele>
        <time>2025-10-18T11:36:16.000Z</time>
      </trkpt>
      <trkpt lat="42.86099" lon="2.20972">
        <ele>553</ele>
        <time>2025-10-18T11:36:23.000Z</time>
      </trkpt>
      <trkpt lat="42.86101" lon="2.20947">
        <ele>551.59997558594</ele>
        <time>2025-10-18T11:36:29.000Z</time>
      </trkpt>
      <trkpt lat="42.86103" lon="2.20916">
        <ele>552</ele>
        <time>2025-10-18T11:36:36.000Z</time>
      </trkpt>
      <trkpt lat="42.86105" lon="2.20893">
        <ele>556</ele>
        <time>2025-10-18T11:36:41.000Z</time>
      </trkpt>
      <trkpt lat="42.86105" lon="2.20873">
        <ele>560</ele>
        <time>2025-10-18T11:36:46.000Z</time>
      </trkpt>
      <trkpt lat="42.86106" lon="2.20859">
        <ele>562.40002441406</ele>
        <time>2025-10-18T11:36:50.000Z</time>
      </trkpt>
      <trkpt lat="42.86116" lon="2.20836">
        <ele>558.40002441406</ele>
        <time>2025-10-18T11:36:56.000Z</time>
      </trkpt>
      <trkpt lat="42.86135" lon="2.20817">
        <ele>550.40002441406</ele>
        <time>2025-10-18T11:37:03.000Z</time>
      </trkpt>
      <trkpt lat="42.86163" lon="2.20799">
        <ele>540.40002441406</ele>
        <time>2025-10-18T11:37:11.000Z</time>
      </trkpt>
      <trkpt lat="42.86169" lon="2.20797">
        <ele>538.59997558594</ele>
        <time>2025-10-18T11:37:13.000Z</time>
      </trkpt>
      <trkpt lat="42.86171" lon="2.20794">
        <ele>538.40002441406</ele>
        <time>2025-10-18T11:37:14.000Z</time>
      </trkpt>
      <trkpt lat="42.86172" lon="2.2079">
        <ele>538.40002441406</ele>
        <time>2025-10-18T11:37:15.000Z</time>
      </trkpt>
      <trkpt lat="42.8617" lon="2.20783">
        <ele>539</ele>
        <time>2025-10-18T11:37:17.000Z</time>
      </trkpt>
      <trkpt lat="42.86162" lon="2.2078">
        <ele>543</ele>
        <time>2025-10-18T11:37:20.000Z</time>
      </trkpt>
      <trkpt lat="42.86148" lon="2.20768">
        <ele>549.20001220703</ele>
        <time>2025-10-18T11:37:25.000Z</time>
      </trkpt>
      <trkpt lat="42.86135" lon="2.20749">
        <ele>555.40002441406</ele>
        <time>2025-10-18T11:37:31.000Z</time>
      </trkpt>
      <trkpt lat="42.86121" lon="2.20727">
        <ele>561.59997558594</ele>
        <time>2025-10-18T11:37:37.000Z</time>
      </trkpt>
      <trkpt lat="42.86113" lon="2.20704">
        <ele>565.20001220703</ele>
        <time>2025-10-18T11:37:42.000Z</time>
      </trkpt>
      <trkpt lat="42.86108" lon="2.20683">
        <ele>569</ele>
        <time>2025-10-18T11:37:47.000Z</time>
      </trkpt>
      <trkpt lat="42.86105" lon="2.20648">
        <ele>576.20001220703</ele>
        <time>2025-10-18T11:37:54.000Z</time>
      </trkpt>
      <trkpt lat="42.86113" lon="2.2062">
        <ele>576.59997558594</ele>
        <time>2025-10-18T11:38:00.000Z</time>
      </trkpt>
      <trkpt lat="42.86125" lon="2.20581">
        <ele>571.79998779297</ele>
        <time>2025-10-18T11:38:08.000Z</time>
      </trkpt>
      <trkpt lat="42.86138" lon="2.20542">
        <ele>563.79998779297</ele>
        <time>2025-10-18T11:38:16.000Z</time>
      </trkpt>
      <trkpt lat="42.86149" lon="2.20498">
        <ele>559.59997558594</ele>
        <time>2025-10-18T11:38:24.000Z</time>
      </trkpt>
      <trkpt lat="42.86151" lon="2.20462">
        <ele>558.59997558594</ele>
        <time>2025-10-18T11:38:30.000Z</time>
      </trkpt>
      <trkpt lat="42.86147" lon="2.20421">
        <ele>559.20001220703</ele>
        <time>2025-10-18T11:38:37.000Z</time>
      </trkpt>
      <trkpt lat="42.86145" lon="2.20408">
        <ele>559.59997558594</ele>
        <time>2025-10-18T11:38:39.000Z</time>
      </trkpt>
      <trkpt lat="42.86146" lon="2.20382">
        <ele>558</ele>
        <time>2025-10-18T11:38:43.000Z</time>
      </trkpt>
      <trkpt lat="42.86146" lon="2.20375">
        <ele>558</ele>
        <time>2025-10-18T11:38:44.000Z</time>
      </trkpt>
      <trkpt lat="42.86145" lon="2.20351">
        <ele>559.79998779297</ele>
        <time>2025-10-18T11:38:47.000Z</time>
      </trkpt>
      <trkpt lat="42.86143" lon="2.20311">
        <ele>561.40002441406</ele>
        <time>2025-10-18T11:38:52.000Z</time>
      </trkpt>
      <trkpt lat="42.86143" lon="2.20288">
        <ele>560.79998779297</ele>
        <time>2025-10-18T11:38:55.000Z</time>
      </trkpt>
      <trkpt lat="42.86143" lon="2.20273">
        <ele>560.79998779297</ele>
        <time>2025-10-18T11:38:57.000Z</time>
      </trkpt>
      <trkpt lat="42.86144" lon="2.20265">
        <ele>559.79998779297</ele>
        <time>2025-10-18T11:38:58.000Z</time>
      </trkpt>
      <trkpt lat="42.86147" lon="2.20228">
        <ele>557.40002441406</ele>
        <time>2025-10-18T11:39:03.000Z</time>
      </trkpt>
      <trkpt lat="42.86151" lon="2.20199">
        <ele>555.20001220703</ele>
        <time>2025-10-18T11:39:07.000Z</time>
      </trkpt>
      <trkpt lat="42.86153" lon="2.20193">
        <ele>553.79998779297</ele>
        <time>2025-10-18T11:39:08.000Z</time>
      </trkpt>
      <trkpt lat="42.86156" lon="2.20186">
        <ele>554</ele>
        <time>2025-10-18T11:39:09.000Z</time>
      </trkpt>
      <trkpt lat="42.86158" lon="2.20174">
        <ele>551</ele>
        <time>2025-10-18T11:39:11.000Z</time>
      </trkpt>
      <trkpt lat="42.86169" lon="2.20141">
        <ele>547.40002441406</ele>
        <time>2025-10-18T11:39:17.000Z</time>
      </trkpt>
      <trkpt lat="42.86169" lon="2.20138">
        <ele>547.40002441406</ele>
        <time>2025-10-18T11:39:18.000Z</time>
      </trkpt>
      <trkpt lat="42.86168" lon="2.20134">
        <ele>547</ele>
        <time>2025-10-18T11:39:20.000Z</time>
      </trkpt>
      <trkpt lat="42.86167" lon="2.20131">
        <ele>546.59997558594</ele>
        <time>2025-10-18T11:39:23.000Z</time>
      </trkpt>
      <trkpt lat="42.86169" lon="2.20126">
        <ele>545.79998779297</ele>
        <time>2025-10-18T11:40:38.000Z</time>
      </trkpt>
      <trkpt lat="42.8617" lon="2.20126">
        <ele>546.20001220703</ele>
        <time>2025-10-18T11:40:39.000Z</time>
      </trkpt>
      <trkpt lat="42.86181" lon="2.20126">
        <ele>547.59997558594</ele>
        <time>2025-10-18T11:40:43.000Z</time>
      </trkpt>
      <trkpt lat="42.86192" lon="2.20114">
        <ele>545.59997558594</ele>
        <time>2025-10-18T11:40:48.000Z</time>
      </trkpt>
      <trkpt lat="42.8621" lon="2.20098">
        <ele>548.79998779297</ele>
        <time>2025-10-18T11:40:54.000Z</time>
      </trkpt>
      <trkpt lat="42.86228" lon="2.20088">
        <ele>548.40002441406</ele>
        <time>2025-10-18T11:40:59.000Z</time>
      </trkpt>
      <trkpt lat="42.86242" lon="2.20081">
        <ele>547.79998779297</ele>
        <time>2025-10-18T11:41:03.000Z</time>
      </trkpt>
      <trkpt lat="42.86246" lon="2.20078">
        <ele>547.59997558594</ele>
        <time>2025-10-18T11:41:04.000Z</time>
      </trkpt>
      <trkpt lat="42.86268" lon="2.2006">
        <ele>547.40002441406</ele>
        <time>2025-10-18T11:41:10.000Z</time>
      </trkpt>
      <trkpt lat="42.86291" lon="2.20045">
        <ele>545.59997558594</ele>
        <time>2025-10-18T11:41:17.000Z</time>
      </trkpt>
      <trkpt lat="42.86306" lon="2.20032">
        <ele>543.20001220703</ele>
        <time>2025-10-18T11:41:21.000Z</time>
      </trkpt>
      <trkpt lat="42.86333" lon="2.20015">
        <ele>539.20001220703</ele>
        <time>2025-10-18T11:41:27.000Z</time>
      </trkpt>
      <trkpt lat="42.86348" lon="2.20009">
        <ele>538.59997558594</ele>
        <time>2025-10-18T11:41:31.000Z</time>
      </trkpt>
      <trkpt lat="42.86366" lon="2.20002">
        <ele>539.20001220703</ele>
        <time>2025-10-18T11:41:37.000Z</time>
      </trkpt>
      <trkpt lat="42.86394" lon="2.19991">
        <ele>544.40002441406</ele>
        <time>2025-10-18T11:41:45.000Z</time>
      </trkpt>
      <trkpt lat="42.86408" lon="2.19988">
        <ele>547</ele>
        <time>2025-10-18T11:41:50.000Z</time>
      </trkpt>
      <trkpt lat="42.86429" lon="2.19986">
        <ele>550</ele>
        <time>2025-10-18T11:41:57.000Z</time>
      </trkpt>
      <trkpt lat="42.86446" lon="2.19999">
        <ele>546.79998779297</ele>
        <time>2025-10-18T11:42:03.000Z</time>
      </trkpt>
      <trkpt lat="42.86461" lon="2.20009">
        <ele>543.79998779297</ele>
        <time>2025-10-18T11:42:08.000Z</time>
      </trkpt>
      <trkpt lat="42.86478" lon="2.20007">
        <ele>546</ele>
        <time>2025-10-18T11:42:14.000Z</time>
      </trkpt>
      <trkpt lat="42.86498" lon="2.19999">
        <ele>546</ele>
        <time>2025-10-18T11:42:20.000Z</time>
      </trkpt>
      <trkpt lat="42.86507" lon="2.19997">
        <ele>544.59997558594</ele>
        <time>2025-10-18T11:42:22.000Z</time>
      </trkpt>
      <trkpt lat="42.86516" lon="2.19997">
        <ele>543</ele>
        <time>2025-10-18T11:42:25.000Z</time>
      </trkpt>
      <trkpt lat="42.86533" lon="2.19996">
        <ele>539.79998779297</ele>
        <time>2025-10-18T11:42:30.000Z</time>
      </trkpt>
      <trkpt lat="42.86547" lon="2.19988">
        <ele>538.20001220703</ele>
        <time>2025-10-18T11:42:35.000Z</time>
      </trkpt>
      <trkpt lat="42.86548" lon="2.19985">
        <ele>537.79998779297</ele>
        <time>2025-10-18T11:42:36.000Z</time>
      </trkpt>
      <trkpt lat="42.86548" lon="2.19979">
        <ele>537.40002441406</ele>
        <time>2025-10-18T11:42:39.000Z</time>
      </trkpt>
      <trkpt lat="42.86548" lon="2.19978">
        <ele>537.20001220703</ele>
        <time>2025-10-18T11:42:41.000Z</time>
      </trkpt>
      <trkpt lat="42.8655" lon="2.19973">
        <ele>537</ele>
        <time>2025-10-18T11:42:46.000Z</time>
      </trkpt>
      <trkpt lat="42.86552" lon="2.19971">
        <ele>537</ele>
        <time>2025-10-18T11:42:47.000Z</time>
      </trkpt>
      <trkpt lat="42.86556" lon="2.19957">
        <ele>536.59997558594</ele>
        <time>2025-10-18T11:42:52.000Z</time>
      </trkpt>
      <trkpt lat="42.86567" lon="2.19941">
        <ele>537</ele>
        <time>2025-10-18T11:42:58.000Z</time>
      </trkpt>
      <trkpt lat="42.86577" lon="2.19935">
        <ele>536.40002441406</ele>
        <time>2025-10-18T11:43:02.000Z</time>
      </trkpt>
      <trkpt lat="42.86579" lon="2.19934">
        <ele>536</ele>
        <time>2025-10-18T11:43:03.000Z</time>
      </trkpt>
      <trkpt lat="42.86586" lon="2.19932">
        <ele>535.20001220703</ele>
        <time>2025-10-18T11:43:07.000Z</time>
      </trkpt>
      <trkpt lat="42.8659" lon="2.1993">
        <ele>534.79998779297</ele>
        <time>2025-10-18T11:43:50.000Z</time>
      </trkpt>
      <trkpt lat="42.86597" lon="2.19921">
        <ele>534.59997558594</ele>
        <time>2025-10-18T11:43:55.000Z</time>
      </trkpt>
      <trkpt lat="42.86597" lon="2.19921">
        <ele>534.59997558594</ele>
        <time>2025-10-18T11:43:56.000Z</time>
      </trkpt>
      <trkpt lat="42.866" lon="2.19919">
        <ele>535</ele>
        <time>2025-10-18T11:44:13.000Z</time>
      </trkpt>
      <trkpt lat="42.86603" lon="2.19916">
        <ele>535.20001220703</ele>
        <time>2025-10-18T11:44:15.000Z</time>
      </trkpt>
      <trkpt lat="42.86613" lon="2.19905">
        <ele>536.59997558594</ele>
        <time>2025-10-18T11:44:21.000Z</time>
      </trkpt>
      <trkpt lat="42.86619" lon="2.19897">
        <ele>535.59997558594</ele>
        <time>2025-10-18T11:44:25.000Z</time>
      </trkpt>
      <trkpt lat="42.86628" lon="2.19885">
        <ele>533.59997558594</ele>
        <time>2025-10-18T11:44:30.000Z</time>
      </trkpt>
      <trkpt lat="42.86637" lon="2.19872">
        <ele>528.59997558594</ele>
        <time>2025-10-18T11:44:35.000Z</time>
      </trkpt>
      <trkpt lat="42.86647" lon="2.19857">
        <ele>523.40002441406</ele>
        <time>2025-10-18T11:44:41.000Z</time>
      </trkpt>
      <trkpt lat="42.86658" lon="2.1984">
        <ele>520.79998779297</ele>
        <time>2025-10-18T11:44:47.000Z</time>
      </trkpt>
      <trkpt lat="42.86668" lon="2.19827">
        <ele>521.40002441406</ele>
        <time>2025-10-18T11:44:52.000Z</time>
      </trkpt>
      <trkpt lat="42.86677" lon="2.1981">
        <ele>520</ele>
        <time>2025-10-18T11:44:57.000Z</time>
      </trkpt>
      <trkpt lat="42.86685" lon="2.19791">
        <ele>517.40002441406</ele>
        <time>2025-10-18T11:45:02.000Z</time>
      </trkpt>
      <trkpt lat="42.86694" lon="2.19774">
        <ele>513</ele>
        <time>2025-10-18T11:45:07.000Z</time>
      </trkpt>
      <trkpt lat="42.86702" lon="2.19759">
        <ele>508</ele>
        <time>2025-10-18T11:45:12.000Z</time>
      </trkpt>
      <trkpt lat="42.86711" lon="2.19743">
        <ele>502.79998779297</ele>
        <time>2025-10-18T11:45:17.000Z</time>
      </trkpt>
      <trkpt lat="42.86719" lon="2.19726">
        <ele>500.79998779297</ele>
        <time>2025-10-18T11:45:22.000Z</time>
      </trkpt>
      <trkpt lat="42.86732" lon="2.19715">
        <ele>502.20001220703</ele>
        <time>2025-10-18T11:45:27.000Z</time>
      </trkpt>
      <trkpt lat="42.86752" lon="2.19708">
        <ele>504.39999389648</ele>
        <time>2025-10-18T11:45:32.000Z</time>
      </trkpt>
      <trkpt lat="42.86769" lon="2.19698">
        <ele>500.39999389648</ele>
        <time>2025-10-18T11:45:37.000Z</time>
      </trkpt>
      <trkpt lat="42.86783" lon="2.19695">
        <ele>501</ele>
        <time>2025-10-18T11:45:41.000Z</time>
      </trkpt>
      <trkpt lat="42.86793" lon="2.19695">
        <ele>503.39999389648</ele>
        <time>2025-10-18T11:45:46.000Z</time>
      </trkpt>
      <trkpt lat="42.86805" lon="2.19688">
        <ele>502.79998779297</ele>
        <time>2025-10-18T11:45:50.000Z</time>
      </trkpt>
      <trkpt lat="42.86821" lon="2.19682">
        <ele>501.60000610352</ele>
        <time>2025-10-18T11:45:55.000Z</time>
      </trkpt>
      <trkpt lat="42.86832" lon="2.19686">
        <ele>504.39999389648</ele>
        <time>2025-10-18T11:46:00.000Z</time>
      </trkpt>
      <trkpt lat="42.86838" lon="2.19689">
        <ele>506.20001220703</ele>
        <time>2025-10-18T11:46:03.000Z</time>
      </trkpt>
      <trkpt lat="42.8684" lon="2.19688">
        <ele>505.60000610352</ele>
        <time>2025-10-18T11:46:04.000Z</time>
      </trkpt>
      <trkpt lat="42.8685" lon="2.19682">
        <ele>501</ele>
        <time>2025-10-18T11:46:09.000Z</time>
      </trkpt>
      <trkpt lat="42.86851" lon="2.19681">
        <ele>500.39999389648</ele>
        <time>2025-10-18T11:46:11.000Z</time>
      </trkpt>
      <trkpt lat="42.86865" lon="2.19671">
        <ele>493.39999389648</ele>
        <time>2025-10-18T11:46:38.000Z</time>
      </trkpt>
      <trkpt lat="42.86874" lon="2.1966">
        <ele>488.60000610352</ele>
        <time>2025-10-18T11:46:42.000Z</time>
      </trkpt>
      <trkpt lat="42.86877" lon="2.19657">
        <ele>488.39999389648</ele>
        <time>2025-10-18T11:46:43.000Z</time>
      </trkpt>
      <trkpt lat="42.86889" lon="2.19651">
        <ele>488</ele>
        <time>2025-10-18T11:46:46.000Z</time>
      </trkpt>
      <trkpt lat="42.86903" lon="2.1964">
        <ele>486.39999389648</ele>
        <time>2025-10-18T11:46:51.000Z</time>
      </trkpt>
      <trkpt lat="42.86906" lon="2.19636">
        <ele>485.39999389648</ele>
        <time>2025-10-18T11:46:53.000Z</time>
      </trkpt>
      <trkpt lat="42.86911" lon="2.1963">
        <ele>483.39999389648</ele>
        <time>2025-10-18T11:46:55.000Z</time>
      </trkpt>
      <trkpt lat="42.86913" lon="2.19626">
        <ele>482</ele>
        <time>2025-10-18T11:46:56.000Z</time>
      </trkpt>
      <trkpt lat="42.86921" lon="2.19615">
        <ele>479.20001220703</ele>
        <time>2025-10-18T11:46:59.000Z</time>
      </trkpt>
      <trkpt lat="42.86933" lon="2.19597">
        <ele>473.79998779297</ele>
        <time>2025-10-18T11:47:05.000Z</time>
      </trkpt>
      <trkpt lat="42.86942" lon="2.19581">
        <ele>469</ele>
        <time>2025-10-18T11:47:10.000Z</time>
      </trkpt>
      <trkpt lat="42.86952" lon="2.1957">
        <ele>467</ele>
        <time>2025-10-18T11:47:15.000Z</time>
      </trkpt>
      <trkpt lat="42.86967" lon="2.19565">
        <ele>466.20001220703</ele>
        <time>2025-10-18T11:47:20.000Z</time>
      </trkpt>
      <trkpt lat="42.86976" lon="2.19562">
        <ele>466</ele>
        <time>2025-10-18T11:47:25.000Z</time>
      </trkpt>
      <trkpt lat="42.86977" lon="2.19562">
        <ele>466</ele>
        <time>2025-10-18T11:47:26.000Z</time>
      </trkpt>
      <trkpt lat="42.86983" lon="2.19554">
        <ele>465.20001220703</ele>
        <time>2025-10-18T11:47:32.000Z</time>
      </trkpt>
      <trkpt lat="42.86984" lon="2.19551">
        <ele>464.20001220703</ele>
        <time>2025-10-18T11:47:33.000Z</time>
      </trkpt>
      <trkpt lat="42.86988" lon="2.19539">
        <ele>462.39999389648</ele>
        <time>2025-10-18T11:47:37.000Z</time>
      </trkpt>
      <trkpt lat="42.86993" lon="2.19529">
        <ele>461.20001220703</ele>
        <time>2025-10-18T11:47:41.000Z</time>
      </trkpt>
      <trkpt lat="42.86999" lon="2.19517">
        <ele>461.79998779297</ele>
        <time>2025-10-18T11:47:45.000Z</time>
      </trkpt>
      <trkpt lat="42.87006" lon="2.19501">
        <ele>462.79998779297</ele>
        <time>2025-10-18T11:47:50.000Z</time>
      </trkpt>
      <trkpt lat="42.87013" lon="2.19491">
        <ele>462.79998779297</ele>
        <time>2025-10-18T11:47:54.000Z</time>
      </trkpt>
      <trkpt lat="42.87024" lon="2.19479">
        <ele>459.79998779297</ele>
        <time>2025-10-18T11:47:59.000Z</time>
      </trkpt>
      <trkpt lat="42.87033" lon="2.19469">
        <ele>460.60000610352</ele>
        <time>2025-10-18T11:48:03.000Z</time>
      </trkpt>
      <trkpt lat="42.8705" lon="2.19457">
        <ele>454.60000610352</ele>
        <time>2025-10-18T11:48:08.000Z</time>
      </trkpt>
      <trkpt lat="42.87067" lon="2.19444">
        <ele>450.39999389648</ele>
        <time>2025-10-18T11:48:15.000Z</time>
      </trkpt>
      <trkpt lat="42.87069" lon="2.19438">
        <ele>451.20001220703</ele>
        <time>2025-10-18T11:48:17.000Z</time>
      </trkpt>
      <trkpt lat="42.87071" lon="2.1943">
        <ele>451.79998779297</ele>
        <time>2025-10-18T11:48:20.000Z</time>
      </trkpt>
      <trkpt lat="42.87073" lon="2.19416">
        <ele>453.79998779297</ele>
        <time>2025-10-18T11:48:25.000Z</time>
      </trkpt>
      <trkpt lat="42.87073" lon="2.19415">
        <ele>454.39999389648</ele>
        <time>2025-10-18T11:48:26.000Z</time>
      </trkpt>
      <trkpt lat="42.87073" lon="2.19409">
        <ele>454.79998779297</ele>
        <time>2025-10-18T11:48:28.000Z</time>
      </trkpt>
      <trkpt lat="42.87076" lon="2.19396">
        <ele>456</ele>
        <time>2025-10-18T11:48:31.000Z</time>
      </trkpt>
      <trkpt lat="42.87082" lon="2.19374">
        <ele>452.79998779297</ele>
        <time>2025-10-18T11:48:36.000Z</time>
      </trkpt>
      <trkpt lat="42.87085" lon="2.19359">
        <ele>452.60000610352</ele>
        <time>2025-10-18T11:48:40.000Z</time>
      </trkpt>
      <trkpt lat="42.87086" lon="2.1935">
        <ele>452.20001220703</ele>
        <time>2025-10-18T11:48:43.000Z</time>
      </trkpt>
      <trkpt lat="42.87088" lon="2.19344">
        <ele>451.20001220703</ele>
        <time>2025-10-18T11:48:45.000Z</time>
      </trkpt>
      <trkpt lat="42.8709" lon="2.19343">
        <ele>450.60000610352</ele>
        <time>2025-10-18T11:48:46.000Z</time>
      </trkpt>
      <trkpt lat="42.87094" lon="2.19332">
        <ele>451.60000610352</ele>
        <time>2025-10-18T11:48:49.000Z</time>
      </trkpt>
      <trkpt lat="42.87104" lon="2.19315">
        <ele>446.20001220703</ele>
        <time>2025-10-18T11:48:55.000Z</time>
      </trkpt>
      <trkpt lat="42.87111" lon="2.19306">
        <ele>443</ele>
        <time>2025-10-18T11:48:58.000Z</time>
      </trkpt>
      <trkpt lat="42.87114" lon="2.19302">
        <ele>442.20001220703</ele>
        <time>2025-10-18T11:49:00.000Z</time>
      </trkpt>
      <trkpt lat="42.87131" lon="2.19292">
        <ele>432.60000610352</ele>
        <time>2025-10-18T11:49:05.000Z</time>
      </trkpt>
      <trkpt lat="42.87145" lon="2.19278">
        <ele>423.39999389648</ele>
        <time>2025-10-18T11:49:10.000Z</time>
      </trkpt>
      <trkpt lat="42.87148" lon="2.19274">
        <ele>422.39999389648</ele>
        <time>2025-10-18T11:49:11.000Z</time>
      </trkpt>
      <trkpt lat="42.87149" lon="2.19266">
        <ele>422.39999389648</ele>
        <time>2025-10-18T11:49:13.000Z</time>
      </trkpt>
      <trkpt lat="42.87151" lon="2.1926">
        <ele>422.39999389648</ele>
        <time>2025-10-18T11:49:16.000Z</time>
      </trkpt>
      <trkpt lat="42.87152" lon="2.19255">
        <ele>423</ele>
        <time>2025-10-18T11:49:18.000Z</time>
      </trkpt>
      <trkpt lat="42.87154" lon="2.19244">
        <ele>423.39999389648</ele>
        <time>2025-10-18T11:49:21.000Z</time>
      </trkpt>
      <trkpt lat="42.87154" lon="2.19242">
        <ele>423.39999389648</ele>
        <time>2025-10-18T11:49:22.000Z</time>
      </trkpt>
      <trkpt lat="42.87159" lon="2.19229">
        <ele>420.20001220703</ele>
        <time>2025-10-18T11:49:26.000Z</time>
      </trkpt>
      <trkpt lat="42.8717" lon="2.19218">
        <ele>414.39999389648</ele>
        <time>2025-10-18T11:49:31.000Z</time>
      </trkpt>
      <trkpt lat="42.87182" lon="2.19213">
        <ele>408.39999389648</ele>
        <time>2025-10-18T11:49:36.000Z</time>
      </trkpt>
      <trkpt lat="42.87195" lon="2.19208">
        <ele>401.20001220703</ele>
        <time>2025-10-18T11:49:41.000Z</time>
      </trkpt>
      <trkpt lat="42.87203" lon="2.19207">
        <ele>397.60000610352</ele>
        <time>2025-10-18T11:49:44.000Z</time>
      </trkpt>
      <trkpt lat="42.87204" lon="2.19205">
        <ele>397.39999389648</ele>
        <time>2025-10-18T11:49:45.000Z</time>
      </trkpt>
      <trkpt lat="42.87205" lon="2.19204">
        <ele>397.20001220703</ele>
        <time>2025-10-18T11:49:46.000Z</time>
      </trkpt>
      <trkpt lat="42.87217" lon="2.19194">
        <ele>394.39999389648</ele>
        <time>2025-10-18T11:50:06.000Z</time>
      </trkpt>
      <trkpt lat="42.87219" lon="2.19194">
        <ele>393.60000610352</ele>
        <time>2025-10-18T11:50:07.000Z</time>
      </trkpt>
      <trkpt lat="42.87232" lon="2.19193">
        <ele>390.20001220703</ele>
        <time>2025-10-18T11:50:10.000Z</time>
      </trkpt>
      <trkpt lat="42.87236" lon="2.19191">
        <ele>389.39999389648</ele>
        <time>2025-10-18T11:50:11.000Z</time>
      </trkpt>
      <trkpt lat="42.8724" lon="2.1919">
        <ele>388.60000610352</ele>
        <time>2025-10-18T11:50:12.000Z</time>
      </trkpt>
      <trkpt lat="42.87254" lon="2.19184">
        <ele>386.20001220703</ele>
        <time>2025-10-18T11:50:16.000Z</time>
      </trkpt>
      <trkpt lat="42.87264" lon="2.19179">
        <ele>384.20001220703</ele>
        <time>2025-10-18T11:50:18.000Z</time>
      </trkpt>
      <trkpt lat="42.87272" lon="2.19171">
        <ele>382.39999389648</ele>
        <time>2025-10-18T11:50:20.000Z</time>
      </trkpt>
      <trkpt lat="42.87276" lon="2.1916">
        <ele>382.60000610352</ele>
        <time>2025-10-18T11:50:23.000Z</time>
      </trkpt>
      <trkpt lat="42.87277" lon="2.19157">
        <ele>382.60000610352</ele>
        <time>2025-10-18T11:50:24.000Z</time>
      </trkpt>
      <trkpt lat="42.87276" lon="2.1915">
        <ele>382</ele>
        <time>2025-10-18T11:50:27.000Z</time>
      </trkpt>
      <trkpt lat="42.87275" lon="2.1915">
        <ele>382</ele>
        <time>2025-10-18T11:50:28.000Z</time>
      </trkpt>
      <trkpt lat="42.87277" lon="2.19163">
        <ele>382.20001220703</ele>
        <time>2025-10-18T11:50:54.000Z</time>
      </trkpt>
      <trkpt lat="42.8728" lon="2.19165">
        <ele>381.79998779297</ele>
        <time>2025-10-18T11:50:56.000Z</time>
      </trkpt>
      <trkpt lat="42.87284" lon="2.19166">
        <ele>381</ele>
        <time>2025-10-18T11:50:58.000Z</time>
      </trkpt>
      <trkpt lat="42.87288" lon="2.19162">
        <ele>380.60000610352</ele>
        <time>2025-10-18T11:51:00.000Z</time>
      </trkpt>
      <trkpt lat="42.87294" lon="2.19153">
        <ele>379</ele>
        <time>2025-10-18T11:51:04.000Z</time>
      </trkpt>
      <trkpt lat="42.87295" lon="2.1915">
        <ele>378.39999389648</ele>
        <time>2025-10-18T11:51:05.000Z</time>
      </trkpt>
      <trkpt lat="42.87293" lon="2.19137">
        <ele>378</ele>
        <time>2025-10-18T11:51:08.000Z</time>
      </trkpt>
      <trkpt lat="42.87286" lon="2.19121">
        <ele>378.20001220703</ele>
        <time>2025-10-18T11:51:12.000Z</time>
      </trkpt>
      <trkpt lat="42.87289" lon="2.19118">
        <ele>377.39999389648</ele>
        <time>2025-10-18T11:51:15.000Z</time>
      </trkpt>
      <trkpt lat="42.87298" lon="2.19125">
        <ele>376.79998779297</ele>
        <time>2025-10-18T11:51:19.000Z</time>
      </trkpt>
      <trkpt lat="42.87306" lon="2.19138">
        <ele>375.39999389648</ele>
        <time>2025-10-18T11:51:23.000Z</time>
      </trkpt>
      <trkpt lat="42.87308" lon="2.19141">
        <ele>375</ele>
        <time>2025-10-18T11:51:25.000Z</time>
      </trkpt>
      <trkpt lat="42.87313" lon="2.19144">
        <ele>374.20001220703</ele>
        <time>2025-10-18T11:51:28.000Z</time>
      </trkpt>
      <trkpt lat="42.87322" lon="2.19158">
        <ele>371</ele>
        <time>2025-10-18T11:51:33.000Z</time>
      </trkpt>
      <trkpt lat="42.87324" lon="2.19164">
        <ele>369.79998779297</ele>
        <time>2025-10-18T11:51:37.000Z</time>
      </trkpt>
      <trkpt lat="42.87326" lon="2.19161">
        <ele>369.39999389648</ele>
        <time>2025-10-18T11:51:42.000Z</time>
      </trkpt>
      <trkpt lat="42.87326" lon="2.19159">
        <ele>369.60000610352</ele>
        <time>2025-10-18T11:51:44.000Z</time>
      </trkpt>
      <trkpt lat="42.87328" lon="2.1915">
        <ele>369.20001220703</ele>
        <time>2025-10-18T11:51:51.000Z</time>
      </trkpt>
      <trkpt lat="42.87331" lon="2.19144">
        <ele>368.60000610352</ele>
        <time>2025-10-18T11:51:53.000Z</time>
      </trkpt>
      <trkpt lat="42.87335" lon="2.19126">
        <ele>366</ele>
        <time>2025-10-18T11:51:59.000Z</time>
      </trkpt>
      <trkpt lat="42.87335" lon="2.19125">
        <ele>365.79998779297</ele>
        <time>2025-10-18T11:52:00.000Z</time>
      </trkpt>
      <trkpt lat="42.87337" lon="2.19121">
        <ele>364.79998779297</ele>
        <time>2025-10-18T11:52:03.000Z</time>
      </trkpt>
      <trkpt lat="42.87338" lon="2.1912">
        <ele>364.60000610352</ele>
        <time>2025-10-18T11:52:04.000Z</time>
      </trkpt>
      <trkpt lat="42.87339" lon="2.1912">
        <ele>364</ele>
        <time>2025-10-18T11:52:05.000Z</time>
      </trkpt>
      <trkpt lat="42.87342" lon="2.19119">
        <ele>363.20001220703</ele>
        <time>2025-10-18T11:52:08.000Z</time>
      </trkpt>
      <trkpt lat="42.87359" lon="2.19105">
        <ele>356.20001220703</ele>
        <time>2025-10-18T11:52:41.000Z</time>
      </trkpt>
      <trkpt lat="42.87363" lon="2.19103">
        <ele>354.20001220703</ele>
        <time>2025-10-18T11:52:43.000Z</time>
      </trkpt>
      <trkpt lat="42.87374" lon="2.1909">
        <ele>350.60000610352</ele>
        <time>2025-10-18T11:52:48.000Z</time>
      </trkpt>
      <trkpt lat="42.87382" lon="2.19082">
        <ele>349.20001220703</ele>
        <time>2025-10-18T11:52:52.000Z</time>
      </trkpt>
      <trkpt lat="42.87393" lon="2.19073">
        <ele>346.20001220703</ele>
        <time>2025-10-18T11:52:56.000Z</time>
      </trkpt>
      <trkpt lat="42.87396" lon="2.19073">
        <ele>345.39999389648</ele>
        <time>2025-10-18T11:52:57.000Z</time>
      </trkpt>
      <trkpt lat="42.87402" lon="2.19071">
        <ele>344.79998779297</ele>
        <time>2025-10-18T11:52:59.000Z</time>
      </trkpt>
      <trkpt lat="42.87414" lon="2.19065">
        <ele>344</ele>
        <time>2025-10-18T11:53:03.000Z</time>
      </trkpt>
      <trkpt lat="42.87422" lon="2.19076">
        <ele>343.39999389648</ele>
        <time>2025-10-18T11:53:06.000Z</time>
      </trkpt>
      <trkpt lat="42.8743" lon="2.19089">
        <ele>342.60000610352</ele>
        <time>2025-10-18T11:53:09.000Z</time>
      </trkpt>
      <trkpt lat="42.87433" lon="2.1909">
        <ele>342.20001220703</ele>
        <time>2025-10-18T11:53:10.000Z</time>
      </trkpt>
      <trkpt lat="42.87437" lon="2.19088">
        <ele>341.60000610352</ele>
        <time>2025-10-18T11:53:11.000Z</time>
      </trkpt>
      <trkpt lat="42.87447" lon="2.19078">
        <ele>340.20001220703</ele>
        <time>2025-10-18T11:53:14.000Z</time>
      </trkpt>
      <trkpt lat="42.87456" lon="2.19062">
        <ele>338.79998779297</ele>
        <time>2025-10-18T11:53:18.000Z</time>
      </trkpt>
      <trkpt lat="42.87465" lon="2.19053">
        <ele>337.60000610352</ele>
        <time>2025-10-18T11:53:21.000Z</time>
      </trkpt>
      <trkpt lat="42.87466" lon="2.19049">
        <ele>337.39999389648</ele>
        <time>2025-10-18T11:53:22.000Z</time>
      </trkpt>
      <trkpt lat="42.87478" lon="2.19032">
        <ele>335.79998779297</ele>
        <time>2025-10-18T11:53:28.000Z</time>
      </trkpt>
      <trkpt lat="42.8749" lon="2.19023">
        <ele>333.20001220703</ele>
        <time>2025-10-18T11:53:33.000Z</time>
      </trkpt>
      <trkpt lat="42.87497" lon="2.19006">
        <ele>331.79998779297</ele>
        <time>2025-10-18T11:53:37.000Z</time>
      </trkpt>
      <trkpt lat="42.87497" lon="2.18987">
        <ele>331.60000610352</ele>
        <time>2025-10-18T11:53:41.000Z</time>
      </trkpt>
      <trkpt lat="42.87495" lon="2.18969">
        <ele>331.39999389648</ele>
        <time>2025-10-18T11:53:46.000Z</time>
      </trkpt>
      <trkpt lat="42.87493" lon="2.18954">
        <ele>331.39999389648</ele>
        <time>2025-10-18T11:53:51.000Z</time>
      </trkpt>
      <trkpt lat="42.87497" lon="2.18935">
        <ele>331</ele>
        <time>2025-10-18T11:53:57.000Z</time>
      </trkpt>
      <trkpt lat="42.87499" lon="2.18921">
        <ele>331</ele>
        <time>2025-10-18T11:54:02.000Z</time>
      </trkpt>
      <trkpt lat="42.875" lon="2.1891">
        <ele>330.79998779297</ele>
        <time>2025-10-18T11:54:08.000Z</time>
      </trkpt>
      <trkpt lat="42.87501" lon="2.18903">
        <ele>330.39999389648</ele>
        <time>2025-10-18T11:54:11.000Z</time>
      </trkpt>
      <trkpt lat="42.87504" lon="2.18898">
        <ele>329.60000610352</ele>
        <time>2025-10-18T11:54:13.000Z</time>
      </trkpt>
      <trkpt lat="42.87507" lon="2.18883">
        <ele>327.79998779297</ele>
        <time>2025-10-18T11:54:17.000Z</time>
      </trkpt>
      <trkpt lat="42.87511" lon="2.18871">
        <ele>325.79998779297</ele>
        <time>2025-10-18T11:54:21.000Z</time>
      </trkpt>
      <trkpt lat="42.87513" lon="2.18867">
        <ele>325</ele>
        <time>2025-10-18T11:54:22.000Z</time>
      </trkpt>
      <trkpt lat="42.87521" lon="2.18861">
        <ele>322.60000610352</ele>
        <time>2025-10-18T11:54:24.000Z</time>
      </trkpt>
      <trkpt lat="42.87528" lon="2.18851">
        <ele>320</ele>
        <time>2025-10-18T11:54:26.000Z</time>
      </trkpt>
      <trkpt lat="42.8753" lon="2.18845">
        <ele>319.20001220703</ele>
        <time>2025-10-18T11:54:27.000Z</time>
      </trkpt>
      <trkpt lat="42.87532" lon="2.18838">
        <ele>318</ele>
        <time>2025-10-18T11:54:28.000Z</time>
      </trkpt>
      <trkpt lat="42.87533" lon="2.18822">
        <ele>316</ele>
        <time>2025-10-18T11:54:30.000Z</time>
      </trkpt>
      <trkpt lat="42.87527" lon="2.18807">
        <ele>315</ele>
        <time>2025-10-18T11:54:32.000Z</time>
      </trkpt>
      <trkpt lat="42.87526" lon="2.18799">
        <ele>314.39999389648</ele>
        <time>2025-10-18T11:54:33.000Z</time>
      </trkpt>
      <trkpt lat="42.87527" lon="2.18792">
        <ele>313.79998779297</ele>
        <time>2025-10-18T11:54:34.000Z</time>
      </trkpt>
      <trkpt lat="42.87525" lon="2.18778">
        <ele>313</ele>
        <time>2025-10-18T11:54:36.000Z</time>
      </trkpt>
      <trkpt lat="42.87518" lon="2.18753">
        <ele>311.39999389648</ele>
        <time>2025-10-18T11:54:41.000Z</time>
      </trkpt>
      <trkpt lat="42.87507" lon="2.18719">
        <ele>311.60000610352</ele>
        <time>2025-10-18T11:54:48.000Z</time>
      </trkpt>
      <trkpt lat="42.87502" lon="2.18701">
        <ele>310.79998779297</ele>
        <time>2025-10-18T11:54:51.000Z</time>
      </trkpt>
      <trkpt lat="42.87497" lon="2.18684">
        <ele>310.20001220703</ele>
        <time>2025-10-18T11:54:54.000Z</time>
      </trkpt>
      <trkpt lat="42.87491" lon="2.18664">
        <ele>306</ele>
        <time>2025-10-18T11:54:58.000Z</time>
      </trkpt>
      <trkpt lat="42.87486" lon="2.1865">
        <ele>303.20001220703</ele>
        <time>2025-10-18T11:55:02.000Z</time>
      </trkpt>
      <trkpt lat="42.87485" lon="2.18648">
        <ele>302.79998779297</ele>
        <time>2025-10-18T11:55:03.000Z</time>
      </trkpt>
      <trkpt lat="42.87475" lon="2.18644">
        <ele>301.39999389648</ele>
        <time>2025-10-18T11:55:06.000Z</time>
      </trkpt>
      <trkpt lat="42.87461" lon="2.18643">
        <ele>300.20001220703</ele>
        <time>2025-10-18T11:55:09.000Z</time>
      </trkpt>
      <trkpt lat="42.87457" lon="2.18645">
        <ele>300.39999389648</ele>
        <time>2025-10-18T11:55:10.000Z</time>
      </trkpt>
      <trkpt lat="42.87453" lon="2.18648">
        <ele>300.60000610352</ele>
        <time>2025-10-18T11:55:11.000Z</time>
      </trkpt>
      <trkpt lat="42.87442" lon="2.18656">
        <ele>301.20001220703</ele>
        <time>2025-10-18T11:55:14.000Z</time>
      </trkpt>
      <trkpt lat="42.87439" lon="2.1866">
        <ele>301.60000610352</ele>
        <time>2025-10-18T11:55:15.000Z</time>
      </trkpt>
      <trkpt lat="42.87437" lon="2.18662">
        <ele>301.79998779297</ele>
        <time>2025-10-18T11:55:16.000Z</time>
      </trkpt>
      <trkpt lat="42.87434" lon="2.18662">
        <ele>301.60000610352</ele>
        <time>2025-10-18T11:55:18.000Z</time>
      </trkpt>
      <trkpt lat="42.87434" lon="2.18656">
        <ele>300.60000610352</ele>
        <time>2025-10-18T11:55:31.000Z</time>
      </trkpt>
      <trkpt lat="42.87439" lon="2.18652">
        <ele>300.20001220703</ele>
        <time>2025-10-18T11:55:33.000Z</time>
      </trkpt>
      <trkpt lat="42.87447" lon="2.18648">
        <ele>300.20001220703</ele>
        <time>2025-10-18T11:55:35.000Z</time>
      </trkpt>
      <trkpt lat="42.8745" lon="2.18644">
        <ele>299.60000610352</ele>
        <time>2025-10-18T11:55:36.000Z</time>
      </trkpt>
      <trkpt lat="42.87453" lon="2.18641">
        <ele>299.20001220703</ele>
        <time>2025-10-18T11:55:37.000Z</time>
      </trkpt>
      <trkpt lat="42.87459" lon="2.18635">
        <ele>298.39999389648</ele>
        <time>2025-10-18T11:55:39.000Z</time>
      </trkpt>
      <trkpt lat="42.87468" lon="2.18623">
        <ele>296.60000610352</ele>
        <time>2025-10-18T11:55:43.000Z</time>
      </trkpt>
      <trkpt lat="42.8747" lon="2.1862">
        <ele>296.20001220703</ele>
        <time>2025-10-18T11:55:44.000Z</time>
      </trkpt>
      <trkpt lat="42.87472" lon="2.18616">
        <ele>295.60000610352</ele>
        <time>2025-10-18T11:55:45.000Z</time>
      </trkpt>
      <trkpt lat="42.87473" lon="2.18607">
        <ele>293.60000610352</ele>
        <time>2025-10-18T11:55:47.000Z</time>
      </trkpt>
      <trkpt lat="42.87467" lon="2.18581">
        <ele>289.60000610352</ele>
        <time>2025-10-18T11:55:52.000Z</time>
      </trkpt>
      <trkpt lat="42.87465" lon="2.18574">
        <ele>288.60000610352</ele>
        <time>2025-10-18T11:55:53.000Z</time>
      </trkpt>
      <trkpt lat="42.8746" lon="2.18556">
        <ele>288.79998779297</ele>
        <time>2025-10-18T11:55:56.000Z</time>
      </trkpt>
      <trkpt lat="42.87456" lon="2.18545">
        <ele>289.20001220703</ele>
        <time>2025-10-18T11:55:59.000Z</time>
      </trkpt>
      <trkpt lat="42.87453" lon="2.18543">
        <ele>289.20001220703</ele>
        <time>2025-10-18T11:56:00.000Z</time>
      </trkpt>
      <trkpt lat="42.87436" lon="2.18548">
        <ele>290.39999389648</ele>
        <time>2025-10-18T11:56:05.000Z</time>
      </trkpt>
      <trkpt lat="42.8742" lon="2.18552">
        <ele>290.79998779297</ele>
        <time>2025-10-18T11:56:09.000Z</time>
      </trkpt>
      <trkpt lat="42.87404" lon="2.18552">
        <ele>290.20001220703</ele>
        <time>2025-10-18T11:56:12.000Z</time>
      </trkpt>
      <trkpt lat="42.87394" lon="2.18551">
        <ele>289.79998779297</ele>
        <time>2025-10-18T11:56:14.000Z</time>
      </trkpt>
      <trkpt lat="42.87389" lon="2.18548">
        <ele>289.60000610352</ele>
        <time>2025-10-18T11:56:15.000Z</time>
      </trkpt>
      <trkpt lat="42.87376" lon="2.1854">
        <ele>289.20001220703</ele>
        <time>2025-10-18T11:56:18.000Z</time>
      </trkpt>
      <trkpt lat="42.87371" lon="2.18539">
        <ele>289</ele>
        <time>2025-10-18T11:56:19.000Z</time>
      </trkpt>
      <trkpt lat="42.87366" lon="2.18538">
        <ele>289</ele>
        <time>2025-10-18T11:56:20.000Z</time>
      </trkpt>
      <trkpt lat="42.87356" lon="2.18539">
        <ele>289</ele>
        <time>2025-10-18T11:56:22.000Z</time>
      </trkpt>
      <trkpt lat="42.8735" lon="2.18533">
        <ele>289</ele>
        <time>2025-10-18T11:56:24.000Z</time>
      </trkpt>
      <trkpt lat="42.87347" lon="2.18528">
        <ele>289</ele>
        <time>2025-10-18T11:56:25.000Z</time>
      </trkpt>
      <trkpt lat="42.87337" lon="2.18511">
        <ele>289</ele>
        <time>2025-10-18T11:56:28.000Z</time>
      </trkpt>
      <trkpt lat="42.8733" lon="2.18493">
        <ele>289</ele>
        <time>2025-10-18T11:56:31.000Z</time>
      </trkpt>
      <trkpt lat="42.87322" lon="2.18475">
        <ele>289</ele>
        <time>2025-10-18T11:56:34.000Z</time>
      </trkpt>
      <trkpt lat="42.87317" lon="2.18464">
        <ele>289</ele>
        <time>2025-10-18T11:56:36.000Z</time>
      </trkpt>
      <trkpt lat="42.8732" lon="2.18452">
        <ele>289.20001220703</ele>
        <time>2025-10-18T11:56:38.000Z</time>
      </trkpt>
      <trkpt lat="42.87324" lon="2.18448">
        <ele>289.39999389648</ele>
        <time>2025-10-18T11:56:39.000Z</time>
      </trkpt>
      <trkpt lat="42.87329" lon="2.18445">
        <ele>289.39999389648</ele>
        <time>2025-10-18T11:56:40.000Z</time>
      </trkpt>
      <trkpt lat="42.8735" lon="2.18423">
        <ele>289.60000610352</ele>
        <time>2025-10-18T11:56:45.000Z</time>
      </trkpt>
      <trkpt lat="42.87355" lon="2.18418">
        <ele>289.39999389648</ele>
        <time>2025-10-18T11:56:46.000Z</time>
      </trkpt>
      <trkpt lat="42.87364" lon="2.18409">
        <ele>289</ele>
        <time>2025-10-18T11:56:48.000Z</time>
      </trkpt>
      <trkpt lat="42.87367" lon="2.18403">
        <ele>288.79998779297</ele>
        <time>2025-10-18T11:56:49.000Z</time>
      </trkpt>
      <trkpt lat="42.87368" lon="2.18396">
        <ele>288.79998779297</ele>
        <time>2025-10-18T11:56:50.000Z</time>
      </trkpt>
      <trkpt lat="42.87367" lon="2.18389">
        <ele>288.79998779297</ele>
        <time>2025-10-18T11:56:51.000Z</time>
      </trkpt>
      <trkpt lat="42.87359" lon="2.18344">
        <ele>288.60000610352</ele>
        <time>2025-10-18T11:56:58.000Z</time>
      </trkpt>
      <trkpt lat="42.87358" lon="2.18337">
        <ele>288.60000610352</ele>
        <time>2025-10-18T11:56:59.000Z</time>
      </trkpt>
      <trkpt lat="42.8735" lon="2.18309">
        <ele>289.39999389648</ele>
        <time>2025-10-18T11:57:04.000Z</time>
      </trkpt>
      <trkpt lat="42.87349" lon="2.18289">
        <ele>290.20001220703</ele>
        <time>2025-10-18T11:57:08.000Z</time>
      </trkpt>
      <trkpt lat="42.8735" lon="2.18286">
        <ele>290.20001220703</ele>
        <time>2025-10-18T11:57:09.000Z</time>
      </trkpt>
      <trkpt lat="42.87352" lon="2.18281">
        <ele>290.20001220703</ele>
        <time>2025-10-18T11:57:11.000Z</time>
      </trkpt>
      <trkpt lat="42.87355" lon="2.18275">
        <ele>290.60000610352</ele>
        <time>2025-10-18T11:57:14.000Z</time>
      </trkpt>
      <trkpt lat="42.87354" lon="2.1827">
        <ele>290.79998779297</ele>
        <time>2025-10-18T11:57:16.000Z</time>
      </trkpt>
      <trkpt lat="42.87353" lon="2.18268">
        <ele>291</ele>
        <time>2025-10-18T11:57:17.000Z</time>
      </trkpt>
      <trkpt lat="42.87347" lon="2.18267">
        <ele>291</ele>
        <time>2025-10-18T11:57:19.000Z</time>
      </trkpt>
      <trkpt lat="42.87329" lon="2.1827">
        <ele>291</ele>
        <time>2025-10-18T11:57:24.000Z</time>
      </trkpt>
      <trkpt lat="42.87307" lon="2.18273">
        <ele>291</ele>
        <time>2025-10-18T11:57:29.000Z</time>
      </trkpt>
      <trkpt lat="42.87303" lon="2.18274">
        <ele>291.20001220703</ele>
        <time>2025-10-18T11:57:30.000Z</time>
      </trkpt>
      <trkpt lat="42.87293" lon="2.18276">
        <ele>291.39999389648</ele>
        <time>2025-10-18T11:57:32.000Z</time>
      </trkpt>
      <trkpt lat="42.87276" lon="2.18279">
        <ele>290.39999389648</ele>
        <time>2025-10-18T11:57:36.000Z</time>
      </trkpt>
      <trkpt lat="42.87247" lon="2.18284">
        <ele>289.39999389648</ele>
        <time>2025-10-18T11:57:43.000Z</time>
      </trkpt>
      <trkpt lat="42.87243" lon="2.18285">
        <ele>289.39999389648</ele>
        <time>2025-10-18T11:57:44.000Z</time>
      </trkpt>
      <trkpt lat="42.87236" lon="2.18282">
        <ele>289.60000610352</ele>
        <time>2025-10-18T11:57:46.000Z</time>
      </trkpt>
      <trkpt lat="42.87227" lon="2.18285">
        <ele>289.39999389648</ele>
        <time>2025-10-18T11:57:48.000Z</time>
      </trkpt>
      <trkpt lat="42.87224" lon="2.18288">
        <ele>289.39999389648</ele>
        <time>2025-10-18T11:57:49.000Z</time>
      </trkpt>
      <trkpt lat="42.87221" lon="2.18289">
        <ele>289.39999389648</ele>
        <time>2025-10-18T11:57:50.000Z</time>
      </trkpt>
      <trkpt lat="42.87213" lon="2.18291">
        <ele>289.79998779297</ele>
        <time>2025-10-18T11:57:52.000Z</time>
      </trkpt>
      <trkpt lat="42.87186" lon="2.18296">
        <ele>290.60000610352</ele>
        <time>2025-10-18T11:57:58.000Z</time>
      </trkpt>
      <trkpt lat="42.87182" lon="2.18297">
        <ele>290.79998779297</ele>
        <time>2025-10-18T11:57:59.000Z</time>
      </trkpt>
      <trkpt lat="42.87173" lon="2.18299">
        <ele>291</ele>
        <time>2025-10-18T11:58:01.000Z</time>
      </trkpt>
      <trkpt lat="42.87168" lon="2.183">
        <ele>291</ele>
        <time>2025-10-18T11:58:02.000Z</time>
      </trkpt>
      <trkpt lat="42.87133" lon="2.18307">
        <ele>290.39999389648</ele>
        <time>2025-10-18T11:58:09.000Z</time>
      </trkpt>
      <trkpt lat="42.87092" lon="2.18314">
        <ele>290</ele>
        <time>2025-10-18T11:58:17.000Z</time>
      </trkpt>
      <trkpt lat="42.87082" lon="2.18316">
        <ele>290</ele>
        <time>2025-10-18T11:58:19.000Z</time>
      </trkpt>
      <trkpt lat="42.87068" lon="2.18318">
        <ele>290</ele>
        <time>2025-10-18T11:58:22.000Z</time>
      </trkpt>
      <trkpt lat="42.87044" lon="2.18322">
        <ele>290</ele>
        <time>2025-10-18T11:58:27.000Z</time>
      </trkpt>
      <trkpt lat="42.8704" lon="2.18324">
        <ele>290</ele>
        <time>2025-10-18T11:58:28.000Z</time>
      </trkpt>
      <trkpt lat="42.87029" lon="2.18329">
        <ele>289.39999389648</ele>
        <time>2025-10-18T11:58:31.000Z</time>
      </trkpt>
      <trkpt lat="42.87018" lon="2.18332">
        <ele>289</ele>
        <time>2025-10-18T11:58:34.000Z</time>
      </trkpt>
      <trkpt lat="42.87002" lon="2.18338">
        <ele>289</ele>
        <time>2025-10-18T11:58:39.000Z</time>
      </trkpt>
      <trkpt lat="42.87002" lon="2.18353">
        <ele>289.39999389648</ele>
        <time>2025-10-18T11:58:42.000Z</time>
      </trkpt>
      <trkpt lat="42.87004" lon="2.18365">
        <ele>288.79998779297</ele>
        <time>2025-10-18T11:58:44.000Z</time>
      </trkpt>
      <trkpt lat="42.8701" lon="2.18385">
        <ele>288</ele>
        <time>2025-10-18T11:58:47.000Z</time>
      </trkpt>
      <trkpt lat="42.87016" lon="2.18406">
        <ele>288</ele>
        <time>2025-10-18T11:58:51.000Z</time>
      </trkpt>
      <trkpt lat="42.87018" lon="2.18414">
        <ele>288</ele>
        <time>2025-10-18T11:58:56.000Z</time>
      </trkpt>
    </trkseg>
  </trk>
</gpx>